<?xml version="1.0" encoding="UTF-8" standalone="no" ?>
<gpx xmlns="http://www.topografix.com/GPX/1/1" xmlns:xsi="http://www.w3.org/2001/XMLSchema-instance" xsi:schemaLocation="http://www.topografix.com/GPX/1/1 http://www.topografix.com/GPX/1/1/gpx.xsd" version="1.1" creator="VisuGPX - https://www.visugpx.com">
  <metadata>
    <name>Hohneck</name>
    <desc><![CDATA[Départ du Hohneck,descente par la vallée de la wormsa vers le lac d'Altenweiher.Remontée vers les crêtes et Batteriekopf par l'auberge de Steinwasen.
Retour par les crêtes vers le Hohneck. Très belle rando, vues panoramiques sur les deux versants.]]></desc>
  </metadata>
  <trk>
    <name><![CDATA[15-JUIN-22 06:09:53 PM]]></name>
    <trkseg>
      <trkpt lat="48.03633" lon="7.00798">
        <ele>1218.13</ele>
        <time>2022-06-15T08:03:03Z</time>
      </trkpt>
      <trkpt lat="48.03629" lon="7.00801">
        <ele>1218.13</ele>
        <time>2022-06-15T08:03:31Z</time>
      </trkpt>
      <trkpt lat="48.03636" lon="7.00804">
        <ele>1218.13</ele>
        <time>2022-06-15T08:03:52Z</time>
      </trkpt>
      <trkpt lat="48.03639" lon="7.00802">
        <ele>1218.61</ele>
        <time>2022-06-15T08:04:25Z</time>
      </trkpt>
      <trkpt lat="48.0363" lon="7.00799">
        <ele>1220.53</ele>
        <time>2022-06-15T08:04:34Z</time>
      </trkpt>
      <trkpt lat="48.03632" lon="7.00799">
        <ele>1220.05</ele>
        <time>2022-06-15T08:04:48Z</time>
      </trkpt>
      <trkpt lat="48.03631" lon="7.00799">
        <ele>1220.53</ele>
        <time>2022-06-15T08:04:57Z</time>
      </trkpt>
      <trkpt lat="48.03633" lon="7.00798">
        <ele>1221.01</ele>
        <time>2022-06-15T08:05:18Z</time>
      </trkpt>
      <trkpt lat="48.0363" lon="7.00798">
        <ele>1221.01</ele>
        <time>2022-06-15T08:05:45Z</time>
      </trkpt>
      <trkpt lat="48.03629" lon="7.00798">
        <ele>1221.49</ele>
        <time>2022-06-15T08:05:46Z</time>
      </trkpt>
      <trkpt lat="48.03616" lon="7.008">
        <ele>1222.45</ele>
        <time>2022-06-15T08:06:02Z</time>
      </trkpt>
      <trkpt lat="48.03608" lon="7.00798">
        <ele>1222.45</ele>
        <time>2022-06-15T08:06:13Z</time>
      </trkpt>
      <trkpt lat="48.03608" lon="7.00799">
        <ele>1222.45</ele>
        <time>2022-06-15T08:06:14Z</time>
      </trkpt>
      <trkpt lat="48.03598" lon="7.00806">
        <ele>1222.93</ele>
        <time>2022-06-15T08:06:24Z</time>
      </trkpt>
      <trkpt lat="48.03595" lon="7.0082">
        <ele>1224.38</ele>
        <time>2022-06-15T08:06:33Z</time>
      </trkpt>
      <trkpt lat="48.03603" lon="7.00838">
        <ele>1226.78</ele>
        <time>2022-06-15T08:06:48Z</time>
      </trkpt>
      <trkpt lat="48.03618" lon="7.00847">
        <ele>1228.22</ele>
        <time>2022-06-15T08:07:03Z</time>
      </trkpt>
      <trkpt lat="48.03632" lon="7.00855">
        <ele>1229.66</ele>
        <time>2022-06-15T08:07:16Z</time>
      </trkpt>
      <trkpt lat="48.03629" lon="7.00861">
        <ele>1230.14</ele>
        <time>2022-06-15T08:07:26Z</time>
      </trkpt>
      <trkpt lat="48.03612" lon="7.00864">
        <ele>1232.07</ele>
        <time>2022-06-15T08:07:42Z</time>
      </trkpt>
      <trkpt lat="48.03605" lon="7.00865">
        <ele>1231.11</ele>
        <time>2022-06-15T08:07:48Z</time>
      </trkpt>
      <trkpt lat="48.03604" lon="7.00872">
        <ele>1233.51</ele>
        <time>2022-06-15T08:07:55Z</time>
      </trkpt>
      <trkpt lat="48.03605" lon="7.00881">
        <ele>1234.47</ele>
        <time>2022-06-15T08:08:02Z</time>
      </trkpt>
      <trkpt lat="48.03597" lon="7.00894">
        <ele>1236.87</ele>
        <time>2022-06-15T08:08:16Z</time>
      </trkpt>
      <trkpt lat="48.03596" lon="7.00894">
        <ele>1237.35</ele>
        <time>2022-06-15T08:08:17Z</time>
      </trkpt>
      <trkpt lat="48.03583" lon="7.00907">
        <ele>1238.8</ele>
        <time>2022-06-15T08:08:32Z</time>
      </trkpt>
      <trkpt lat="48.0357" lon="7.00919">
        <ele>1240.72</ele>
        <time>2022-06-15T08:08:47Z</time>
      </trkpt>
      <trkpt lat="48.03563" lon="7.00924">
        <ele>1241.2</ele>
        <time>2022-06-15T08:08:59Z</time>
      </trkpt>
      <trkpt lat="48.03555" lon="7.00939">
        <ele>1243.12</ele>
        <time>2022-06-15T08:09:14Z</time>
      </trkpt>
      <trkpt lat="48.0355" lon="7.00951">
        <ele>1245.04</ele>
        <time>2022-06-15T08:09:28Z</time>
      </trkpt>
      <trkpt lat="48.0355" lon="7.00952">
        <ele>1245.53</ele>
        <time>2022-06-15T08:09:33Z</time>
      </trkpt>
      <trkpt lat="48.03546" lon="7.00958">
        <ele>1246.49</ele>
        <time>2022-06-15T08:09:47Z</time>
      </trkpt>
      <trkpt lat="48.03542" lon="7.00966">
        <ele>1247.93</ele>
        <time>2022-06-15T08:09:53Z</time>
      </trkpt>
      <trkpt lat="48.0354" lon="7.0097">
        <ele>1248.41</ele>
        <time>2022-06-15T08:09:56Z</time>
      </trkpt>
      <trkpt lat="48.03528" lon="7.00991">
        <ele>1250.81</ele>
        <time>2022-06-15T08:10:12Z</time>
      </trkpt>
      <trkpt lat="48.03525" lon="7.00998">
        <ele>1252.74</ele>
        <time>2022-06-15T08:10:17Z</time>
      </trkpt>
      <trkpt lat="48.03522" lon="7.01002">
        <ele>1252.74</ele>
        <time>2022-06-15T08:10:21Z</time>
      </trkpt>
      <trkpt lat="48.03511" lon="7.01019">
        <ele>1254.18</ele>
        <time>2022-06-15T08:10:34Z</time>
      </trkpt>
      <trkpt lat="48.03502" lon="7.01038">
        <ele>1257.06</ele>
        <time>2022-06-15T08:10:48Z</time>
      </trkpt>
      <trkpt lat="48.03488" lon="7.01055">
        <ele>1258.5</ele>
        <time>2022-06-15T08:11:04Z</time>
      </trkpt>
      <trkpt lat="48.03486" lon="7.0106">
        <ele>1258.5</ele>
        <time>2022-06-15T08:11:08Z</time>
      </trkpt>
      <trkpt lat="48.03483" lon="7.01079">
        <ele>1259.94</ele>
        <time>2022-06-15T08:11:19Z</time>
      </trkpt>
      <trkpt lat="48.03481" lon="7.01082">
        <ele>1258.98</ele>
        <time>2022-06-15T08:11:22Z</time>
      </trkpt>
      <trkpt lat="48.03477" lon="7.01087">
        <ele>1259.46</ele>
        <time>2022-06-15T08:11:27Z</time>
      </trkpt>
      <trkpt lat="48.03474" lon="7.01099">
        <ele>1258.98</ele>
        <time>2022-06-15T08:11:44Z</time>
      </trkpt>
      <trkpt lat="48.03476" lon="7.01104">
        <ele>1259.94</ele>
        <time>2022-06-15T08:12:07Z</time>
      </trkpt>
      <trkpt lat="48.03475" lon="7.01103">
        <ele>1259.94</ele>
        <time>2022-06-15T08:12:25Z</time>
      </trkpt>
      <trkpt lat="48.03473" lon="7.01105">
        <ele>1259.46</ele>
        <time>2022-06-15T08:12:54Z</time>
      </trkpt>
      <trkpt lat="48.03473" lon="7.01108">
        <ele>1259.94</ele>
        <time>2022-06-15T08:13:13Z</time>
      </trkpt>
      <trkpt lat="48.0348" lon="7.01113">
        <ele>1259.46</ele>
        <time>2022-06-15T08:13:22Z</time>
      </trkpt>
      <trkpt lat="48.03489" lon="7.0112">
        <ele>1259.46</ele>
        <time>2022-06-15T08:13:38Z</time>
      </trkpt>
      <trkpt lat="48.03491" lon="7.0112">
        <ele>1260.43</ele>
        <time>2022-06-15T08:14:00Z</time>
      </trkpt>
      <trkpt lat="48.0349" lon="7.01138">
        <ele>1258.5</ele>
        <time>2022-06-15T08:14:15Z</time>
      </trkpt>
      <trkpt lat="48.03484" lon="7.01135">
        <ele>1255.62</ele>
        <time>2022-06-15T08:14:27Z</time>
      </trkpt>
      <trkpt lat="48.03478" lon="7.01135">
        <ele>1254.18</ele>
        <time>2022-06-15T08:14:34Z</time>
      </trkpt>
      <trkpt lat="48.03476" lon="7.01142">
        <ele>1251.77</ele>
        <time>2022-06-15T08:14:45Z</time>
      </trkpt>
      <trkpt lat="48.03469" lon="7.01144">
        <ele>1247.93</ele>
        <time>2022-06-15T08:14:59Z</time>
      </trkpt>
      <trkpt lat="48.03468" lon="7.01145">
        <ele>1247.93</ele>
        <time>2022-06-15T08:15:00Z</time>
      </trkpt>
      <trkpt lat="48.03464" lon="7.01146">
        <ele>1246.97</ele>
        <time>2022-06-15T08:15:05Z</time>
      </trkpt>
      <trkpt lat="48.03461" lon="7.01144">
        <ele>1246.01</ele>
        <time>2022-06-15T08:15:08Z</time>
      </trkpt>
      <trkpt lat="48.0345" lon="7.01141">
        <ele>1244.08</ele>
        <time>2022-06-15T08:15:22Z</time>
      </trkpt>
      <trkpt lat="48.03445" lon="7.0114">
        <ele>1242.16</ele>
        <time>2022-06-15T08:15:32Z</time>
      </trkpt>
      <trkpt lat="48.03443" lon="7.01139">
        <ele>1241.68</ele>
        <time>2022-06-15T08:16:00Z</time>
      </trkpt>
      <trkpt lat="48.03443" lon="7.01143">
        <ele>1241.2</ele>
        <time>2022-06-15T08:16:20Z</time>
      </trkpt>
      <trkpt lat="48.03447" lon="7.01147">
        <ele>1240.24</ele>
        <time>2022-06-15T08:16:26Z</time>
      </trkpt>
      <trkpt lat="48.0345" lon="7.01155">
        <ele>1237.35</ele>
        <time>2022-06-15T08:16:37Z</time>
      </trkpt>
      <trkpt lat="48.03454" lon="7.01163">
        <ele>1234.95</ele>
        <time>2022-06-15T08:16:48Z</time>
      </trkpt>
      <trkpt lat="48.03449" lon="7.01162">
        <ele>1234.47</ele>
        <time>2022-06-15T08:16:54Z</time>
      </trkpt>
      <trkpt lat="48.03437" lon="7.01159">
        <ele>1231.59</ele>
        <time>2022-06-15T08:17:10Z</time>
      </trkpt>
      <trkpt lat="48.03437" lon="7.0116">
        <ele>1231.59</ele>
        <time>2022-06-15T08:17:35Z</time>
      </trkpt>
      <trkpt lat="48.03438" lon="7.01161">
        <ele>1232.07</ele>
        <time>2022-06-15T08:17:39Z</time>
      </trkpt>
      <trkpt lat="48.03445" lon="7.0117">
        <ele>1229.66</ele>
        <time>2022-06-15T08:17:47Z</time>
      </trkpt>
      <trkpt lat="48.03449" lon="7.01179">
        <ele>1228.22</ele>
        <time>2022-06-15T08:17:54Z</time>
      </trkpt>
      <trkpt lat="48.03452" lon="7.01191">
        <ele>1223.9</ele>
        <time>2022-06-15T08:18:04Z</time>
      </trkpt>
      <trkpt lat="48.03453" lon="7.01198">
        <ele>1223.42</ele>
        <time>2022-06-15T08:18:09Z</time>
      </trkpt>
      <trkpt lat="48.03452" lon="7.01205">
        <ele>1221.01</ele>
        <time>2022-06-15T08:18:21Z</time>
      </trkpt>
      <trkpt lat="48.03451" lon="7.01213">
        <ele>1218.13</ele>
        <time>2022-06-15T08:18:30Z</time>
      </trkpt>
      <trkpt lat="48.03453" lon="7.01217">
        <ele>1218.13</ele>
        <time>2022-06-15T08:18:35Z</time>
      </trkpt>
      <trkpt lat="48.0345" lon="7.01218">
        <ele>1216.69</ele>
        <time>2022-06-15T08:18:42Z</time>
      </trkpt>
      <trkpt lat="48.03449" lon="7.01225">
        <ele>1214.28</ele>
        <time>2022-06-15T08:18:52Z</time>
      </trkpt>
      <trkpt lat="48.03448" lon="7.0123">
        <ele>1212.36</ele>
        <time>2022-06-15T08:19:02Z</time>
      </trkpt>
      <trkpt lat="48.03445" lon="7.01235">
        <ele>1209.96</ele>
        <time>2022-06-15T08:19:11Z</time>
      </trkpt>
      <trkpt lat="48.03441" lon="7.0124">
        <ele>1207.55</ele>
        <time>2022-06-15T08:19:22Z</time>
      </trkpt>
      <trkpt lat="48.03441" lon="7.01246">
        <ele>1205.15</ele>
        <time>2022-06-15T08:19:32Z</time>
      </trkpt>
      <trkpt lat="48.03437" lon="7.01253">
        <ele>1203.71</ele>
        <time>2022-06-15T08:19:42Z</time>
      </trkpt>
      <trkpt lat="48.03436" lon="7.01256">
        <ele>1203.23</ele>
        <time>2022-06-15T08:19:45Z</time>
      </trkpt>
      <trkpt lat="48.03435" lon="7.01267">
        <ele>1199.86</ele>
        <time>2022-06-15T08:19:55Z</time>
      </trkpt>
      <trkpt lat="48.03433" lon="7.01277">
        <ele>1197.94</ele>
        <time>2022-06-15T08:20:07Z</time>
      </trkpt>
      <trkpt lat="48.03432" lon="7.01277">
        <ele>1197.46</ele>
        <time>2022-06-15T08:20:08Z</time>
      </trkpt>
      <trkpt lat="48.03427" lon="7.01285">
        <ele>1195.54</ele>
        <time>2022-06-15T08:20:20Z</time>
      </trkpt>
      <trkpt lat="48.03425" lon="7.01288">
        <ele>1194.09</ele>
        <time>2022-06-15T08:20:24Z</time>
      </trkpt>
      <trkpt lat="48.03417" lon="7.01298">
        <ele>1192.65</ele>
        <time>2022-06-15T08:20:37Z</time>
      </trkpt>
      <trkpt lat="48.03416" lon="7.01301">
        <ele>1192.65</ele>
        <time>2022-06-15T08:20:58Z</time>
      </trkpt>
      <trkpt lat="48.03418" lon="7.01317">
        <ele>1190.73</ele>
        <time>2022-06-15T08:21:12Z</time>
      </trkpt>
      <trkpt lat="48.03418" lon="7.0133">
        <ele>1188.33</ele>
        <time>2022-06-15T08:21:25Z</time>
      </trkpt>
      <trkpt lat="48.03418" lon="7.01332">
        <ele>1188.33</ele>
        <time>2022-06-15T08:21:36Z</time>
      </trkpt>
      <trkpt lat="48.03416" lon="7.01334">
        <ele>1187.37</ele>
        <time>2022-06-15T08:21:38Z</time>
      </trkpt>
      <trkpt lat="48.03411" lon="7.01332">
        <ele>1185.92</ele>
        <time>2022-06-15T08:21:51Z</time>
      </trkpt>
      <trkpt lat="48.03406" lon="7.01325">
        <ele>1184.48</ele>
        <time>2022-06-15T08:22:02Z</time>
      </trkpt>
      <trkpt lat="48.03401" lon="7.01323">
        <ele>1182.08</ele>
        <time>2022-06-15T08:22:13Z</time>
      </trkpt>
      <trkpt lat="48.03402" lon="7.01327">
        <ele>1181.12</ele>
        <time>2022-06-15T08:22:27Z</time>
      </trkpt>
      <trkpt lat="48.03402" lon="7.01327">
        <ele>1181.12</ele>
        <time>2022-06-15T08:22:29Z</time>
      </trkpt>
      <trkpt lat="48.03409" lon="7.01342">
        <ele>1178.71</ele>
        <time>2022-06-15T08:22:44Z</time>
      </trkpt>
      <trkpt lat="48.03413" lon="7.01352">
        <ele>1176.79</ele>
        <time>2022-06-15T08:22:56Z</time>
      </trkpt>
      <trkpt lat="48.03414" lon="7.01359">
        <ele>1174.39</ele>
        <time>2022-06-15T08:23:08Z</time>
      </trkpt>
      <trkpt lat="48.03415" lon="7.01361">
        <ele>1173.43</ele>
        <time>2022-06-15T08:23:11Z</time>
      </trkpt>
      <trkpt lat="48.03418" lon="7.01373">
        <ele>1171.02</ele>
        <time>2022-06-15T08:23:23Z</time>
      </trkpt>
      <trkpt lat="48.03419" lon="7.01376">
        <ele>1169.58</ele>
        <time>2022-06-15T08:23:27Z</time>
      </trkpt>
      <trkpt lat="48.0342" lon="7.01384">
        <ele>1168.62</ele>
        <time>2022-06-15T08:23:37Z</time>
      </trkpt>
      <trkpt lat="48.03415" lon="7.01384">
        <ele>1166.22</ele>
        <time>2022-06-15T08:23:50Z</time>
      </trkpt>
      <trkpt lat="48.03411" lon="7.01386">
        <ele>1164.29</ele>
        <time>2022-06-15T08:23:58Z</time>
      </trkpt>
      <trkpt lat="48.03402" lon="7.01387">
        <ele>1162.37</ele>
        <time>2022-06-15T08:24:12Z</time>
      </trkpt>
      <trkpt lat="48.034" lon="7.01387">
        <ele>1161.89</ele>
        <time>2022-06-15T08:24:14Z</time>
      </trkpt>
      <trkpt lat="48.03396" lon="7.01382">
        <ele>1160.93</ele>
        <time>2022-06-15T08:24:26Z</time>
      </trkpt>
      <trkpt lat="48.03394" lon="7.01382">
        <ele>1159.01</ele>
        <time>2022-06-15T08:24:32Z</time>
      </trkpt>
      <trkpt lat="48.03393" lon="7.01381">
        <ele>1159.97</ele>
        <time>2022-06-15T08:24:34Z</time>
      </trkpt>
      <trkpt lat="48.03391" lon="7.01379">
        <ele>1159.01</ele>
        <time>2022-06-15T08:24:36Z</time>
      </trkpt>
      <trkpt lat="48.0339" lon="7.01379">
        <ele>1159.01</ele>
        <time>2022-06-15T08:24:37Z</time>
      </trkpt>
      <trkpt lat="48.03386" lon="7.01381">
        <ele>1158.53</ele>
        <time>2022-06-15T08:24:50Z</time>
      </trkpt>
      <trkpt lat="48.03385" lon="7.0138">
        <ele>1158.53</ele>
        <time>2022-06-15T08:25:24Z</time>
      </trkpt>
      <trkpt lat="48.03386" lon="7.01383">
        <ele>1158.53</ele>
        <time>2022-06-15T08:25:39Z</time>
      </trkpt>
      <trkpt lat="48.03388" lon="7.01386">
        <ele>1158.05</ele>
        <time>2022-06-15T08:25:53Z</time>
      </trkpt>
      <trkpt lat="48.03387" lon="7.01386">
        <ele>1158.05</ele>
        <time>2022-06-15T08:26:14Z</time>
      </trkpt>
      <trkpt lat="48.03386" lon="7.01388">
        <ele>1157.56</ele>
        <time>2022-06-15T08:26:31Z</time>
      </trkpt>
      <trkpt lat="48.03387" lon="7.0139">
        <ele>1156.6</ele>
        <time>2022-06-15T08:26:36Z</time>
      </trkpt>
      <trkpt lat="48.03385" lon="7.01397">
        <ele>1154.68</ele>
        <time>2022-06-15T08:26:42Z</time>
      </trkpt>
      <trkpt lat="48.03384" lon="7.01399">
        <ele>1154.68</ele>
        <time>2022-06-15T08:26:43Z</time>
      </trkpt>
      <trkpt lat="48.03381" lon="7.01406">
        <ele>1153.72</ele>
        <time>2022-06-15T08:26:49Z</time>
      </trkpt>
      <trkpt lat="48.03376" lon="7.01421">
        <ele>1154.2</ele>
        <time>2022-06-15T08:26:58Z</time>
      </trkpt>
      <trkpt lat="48.03378" lon="7.01433">
        <ele>1151.8</ele>
        <time>2022-06-15T08:27:10Z</time>
      </trkpt>
      <trkpt lat="48.03378" lon="7.01434">
        <ele>1151.32</ele>
        <time>2022-06-15T08:27:13Z</time>
      </trkpt>
      <trkpt lat="48.03377" lon="7.01443">
        <ele>1149.39</ele>
        <time>2022-06-15T08:27:19Z</time>
      </trkpt>
      <trkpt lat="48.03375" lon="7.01461">
        <ele>1147.47</ele>
        <time>2022-06-15T08:27:32Z</time>
      </trkpt>
      <trkpt lat="48.03377" lon="7.01466">
        <ele>1146.51</ele>
        <time>2022-06-15T08:27:36Z</time>
      </trkpt>
      <trkpt lat="48.03378" lon="7.01472">
        <ele>1145.55</ele>
        <time>2022-06-15T08:27:41Z</time>
      </trkpt>
      <trkpt lat="48.03377" lon="7.01475">
        <ele>1146.03</ele>
        <time>2022-06-15T08:27:43Z</time>
      </trkpt>
      <trkpt lat="48.03377" lon="7.01486">
        <ele>1143.14</ele>
        <time>2022-06-15T08:27:54Z</time>
      </trkpt>
      <trkpt lat="48.03379" lon="7.01494">
        <ele>1140.74</ele>
        <time>2022-06-15T08:28:01Z</time>
      </trkpt>
      <trkpt lat="48.03379" lon="7.01502">
        <ele>1139.78</ele>
        <time>2022-06-15T08:28:08Z</time>
      </trkpt>
      <trkpt lat="48.03379" lon="7.01511">
        <ele>1137.86</ele>
        <time>2022-06-15T08:28:18Z</time>
      </trkpt>
      <trkpt lat="48.03381" lon="7.01515">
        <ele>1135.94</ele>
        <time>2022-06-15T08:28:24Z</time>
      </trkpt>
      <trkpt lat="48.03386" lon="7.01524">
        <ele>1134.01</ele>
        <time>2022-06-15T08:28:36Z</time>
      </trkpt>
      <trkpt lat="48.03389" lon="7.01534">
        <ele>1133.05</ele>
        <time>2022-06-15T08:28:49Z</time>
      </trkpt>
      <trkpt lat="48.03389" lon="7.01549">
        <ele>1129.69</ele>
        <time>2022-06-15T08:29:02Z</time>
      </trkpt>
      <trkpt lat="48.03387" lon="7.01563">
        <ele>1127.76</ele>
        <time>2022-06-15T08:29:12Z</time>
      </trkpt>
      <trkpt lat="48.03378" lon="7.01578">
        <ele>1127.28</ele>
        <time>2022-06-15T08:29:25Z</time>
      </trkpt>
      <trkpt lat="48.03379" lon="7.01595">
        <ele>1126.32</ele>
        <time>2022-06-15T08:29:37Z</time>
      </trkpt>
      <trkpt lat="48.03388" lon="7.01591">
        <ele>1123.92</ele>
        <time>2022-06-15T08:29:51Z</time>
      </trkpt>
      <trkpt lat="48.03396" lon="7.01594">
        <ele>1121.03</ele>
        <time>2022-06-15T08:30:04Z</time>
      </trkpt>
      <trkpt lat="48.03395" lon="7.01604">
        <ele>1120.07</ele>
        <time>2022-06-15T08:30:15Z</time>
      </trkpt>
      <trkpt lat="48.03392" lon="7.01614">
        <ele>1118.15</ele>
        <time>2022-06-15T08:30:25Z</time>
      </trkpt>
      <trkpt lat="48.03391" lon="7.01621">
        <ele>1116.23</ele>
        <time>2022-06-15T08:30:37Z</time>
      </trkpt>
      <trkpt lat="48.03389" lon="7.01627">
        <ele>1114.31</ele>
        <time>2022-06-15T08:30:49Z</time>
      </trkpt>
      <trkpt lat="48.03385" lon="7.01633">
        <ele>1112.86</ele>
        <time>2022-06-15T08:31:01Z</time>
      </trkpt>
      <trkpt lat="48.03376" lon="7.01633">
        <ele>1110.46</ele>
        <time>2022-06-15T08:31:14Z</time>
      </trkpt>
      <trkpt lat="48.03373" lon="7.01638">
        <ele>1107.58</ele>
        <time>2022-06-15T08:31:24Z</time>
      </trkpt>
      <trkpt lat="48.03369" lon="7.01646">
        <ele>1104.69</ele>
        <time>2022-06-15T08:31:36Z</time>
      </trkpt>
      <trkpt lat="48.03362" lon="7.01652">
        <ele>1101.81</ele>
        <time>2022-06-15T08:31:50Z</time>
      </trkpt>
      <trkpt lat="48.0335" lon="7.01645">
        <ele>1101.81</ele>
        <time>2022-06-15T08:32:07Z</time>
      </trkpt>
      <trkpt lat="48.03351" lon="7.0164">
        <ele>1102.77</ele>
        <time>2022-06-15T08:32:21Z</time>
      </trkpt>
      <trkpt lat="48.03348" lon="7.01651">
        <ele>1103.25</ele>
        <time>2022-06-15T08:32:58Z</time>
      </trkpt>
      <trkpt lat="48.0335" lon="7.01655">
        <ele>1102.29</ele>
        <time>2022-06-15T08:33:19Z</time>
      </trkpt>
      <trkpt lat="48.03352" lon="7.01649">
        <ele>1102.77</ele>
        <time>2022-06-15T08:33:45Z</time>
      </trkpt>
      <trkpt lat="48.03348" lon="7.01656">
        <ele>1100.37</ele>
        <time>2022-06-15T08:33:52Z</time>
      </trkpt>
      <trkpt lat="48.03346" lon="7.01659">
        <ele>1098.92</ele>
        <time>2022-06-15T08:33:55Z</time>
      </trkpt>
      <trkpt lat="48.03338" lon="7.01671">
        <ele>1096.04</ele>
        <time>2022-06-15T08:34:08Z</time>
      </trkpt>
      <trkpt lat="48.03327" lon="7.01681">
        <ele>1093.64</ele>
        <time>2022-06-15T08:34:20Z</time>
      </trkpt>
      <trkpt lat="48.03319" lon="7.01687">
        <ele>1090.27</ele>
        <time>2022-06-15T08:34:30Z</time>
      </trkpt>
      <trkpt lat="48.03313" lon="7.01696">
        <ele>1088.83</ele>
        <time>2022-06-15T08:34:37Z</time>
      </trkpt>
      <trkpt lat="48.03303" lon="7.01711">
        <ele>1085.95</ele>
        <time>2022-06-15T08:34:51Z</time>
      </trkpt>
      <trkpt lat="48.03299" lon="7.01718">
        <ele>1083.54</ele>
        <time>2022-06-15T08:34:59Z</time>
      </trkpt>
      <trkpt lat="48.03291" lon="7.01731">
        <ele>1080.66</ele>
        <time>2022-06-15T08:35:12Z</time>
      </trkpt>
      <trkpt lat="48.03289" lon="7.01743">
        <ele>1079.22</ele>
        <time>2022-06-15T08:35:23Z</time>
      </trkpt>
      <trkpt lat="48.03282" lon="7.01752">
        <ele>1076.33</ele>
        <time>2022-06-15T08:35:33Z</time>
      </trkpt>
      <trkpt lat="48.03275" lon="7.01763">
        <ele>1075.37</ele>
        <time>2022-06-15T08:35:43Z</time>
      </trkpt>
      <trkpt lat="48.03272" lon="7.0177">
        <ele>1074.89</ele>
        <time>2022-06-15T08:35:47Z</time>
      </trkpt>
      <trkpt lat="48.03269" lon="7.01777">
        <ele>1074.41</ele>
        <time>2022-06-15T08:35:52Z</time>
      </trkpt>
      <trkpt lat="48.03265" lon="7.01797">
        <ele>1072.49</ele>
        <time>2022-06-15T08:36:06Z</time>
      </trkpt>
      <trkpt lat="48.03265" lon="7.01807">
        <ele>1071.05</ele>
        <time>2022-06-15T08:36:18Z</time>
      </trkpt>
      <trkpt lat="48.03263" lon="7.01815">
        <ele>1069.6</ele>
        <time>2022-06-15T08:36:27Z</time>
      </trkpt>
      <trkpt lat="48.0326" lon="7.01813">
        <ele>1068.16</ele>
        <time>2022-06-15T08:36:42Z</time>
      </trkpt>
      <trkpt lat="48.03256" lon="7.01816">
        <ele>1066.24</ele>
        <time>2022-06-15T08:36:53Z</time>
      </trkpt>
      <trkpt lat="48.03253" lon="7.01817">
        <ele>1065.76</ele>
        <time>2022-06-15T08:36:59Z</time>
      </trkpt>
      <trkpt lat="48.03244" lon="7.01818">
        <ele>1063.84</ele>
        <time>2022-06-15T08:37:13Z</time>
      </trkpt>
      <trkpt lat="48.03242" lon="7.01818">
        <ele>1063.84</ele>
        <time>2022-06-15T08:37:16Z</time>
      </trkpt>
      <trkpt lat="48.0323" lon="7.01823">
        <ele>1060.95</ele>
        <time>2022-06-15T08:37:32Z</time>
      </trkpt>
      <trkpt lat="48.03231" lon="7.01826">
        <ele>1058.55</ele>
        <time>2022-06-15T08:37:46Z</time>
      </trkpt>
      <trkpt lat="48.03231" lon="7.01828">
        <ele>1057.59</ele>
        <time>2022-06-15T08:37:48Z</time>
      </trkpt>
      <trkpt lat="48.03234" lon="7.01828">
        <ele>1056.63</ele>
        <time>2022-06-15T08:38:03Z</time>
      </trkpt>
      <trkpt lat="48.0324" lon="7.01833">
        <ele>1052.78</ele>
        <time>2022-06-15T08:38:15Z</time>
      </trkpt>
      <trkpt lat="48.03245" lon="7.01841">
        <ele>1051.34</ele>
        <time>2022-06-15T08:38:28Z</time>
      </trkpt>
      <trkpt lat="48.03247" lon="7.01845">
        <ele>1049.9</ele>
        <time>2022-06-15T08:38:38Z</time>
      </trkpt>
      <trkpt lat="48.0325" lon="7.01854">
        <ele>1047.49</ele>
        <time>2022-06-15T08:38:52Z</time>
      </trkpt>
      <trkpt lat="48.03252" lon="7.01869">
        <ele>1044.61</ele>
        <time>2022-06-15T08:39:08Z</time>
      </trkpt>
      <trkpt lat="48.03244" lon="7.01875">
        <ele>1043.65</ele>
        <time>2022-06-15T08:39:22Z</time>
      </trkpt>
      <trkpt lat="48.0323" lon="7.01885">
        <ele>1045.57</ele>
        <time>2022-06-15T08:39:36Z</time>
      </trkpt>
      <trkpt lat="48.03223" lon="7.01891">
        <ele>1046.53</ele>
        <time>2022-06-15T08:39:49Z</time>
      </trkpt>
      <trkpt lat="48.03214" lon="7.01896">
        <ele>1046.53</ele>
        <time>2022-06-15T08:40:08Z</time>
      </trkpt>
      <trkpt lat="48.0321" lon="7.01902">
        <ele>1044.13</ele>
        <time>2022-06-15T08:40:27Z</time>
      </trkpt>
      <trkpt lat="48.03202" lon="7.01913">
        <ele>1041.73</ele>
        <time>2022-06-15T08:40:42Z</time>
      </trkpt>
      <trkpt lat="48.03193" lon="7.01928">
        <ele>1040.28</ele>
        <time>2022-06-15T08:40:56Z</time>
      </trkpt>
      <trkpt lat="48.0319" lon="7.01943">
        <ele>1039.8</ele>
        <time>2022-06-15T08:41:14Z</time>
      </trkpt>
      <trkpt lat="48.03183" lon="7.0195">
        <ele>1039.32</ele>
        <time>2022-06-15T08:41:29Z</time>
      </trkpt>
      <trkpt lat="48.03188" lon="7.01953">
        <ele>1040.28</ele>
        <time>2022-06-15T08:41:57Z</time>
      </trkpt>
      <trkpt lat="48.03191" lon="7.01954">
        <ele>1039.8</ele>
        <time>2022-06-15T08:42:01Z</time>
      </trkpt>
      <trkpt lat="48.03177" lon="7.01968">
        <ele>1039.32</ele>
        <time>2022-06-15T08:42:16Z</time>
      </trkpt>
      <trkpt lat="48.03174" lon="7.01982">
        <ele>1038.84</ele>
        <time>2022-06-15T08:42:29Z</time>
      </trkpt>
      <trkpt lat="48.03172" lon="7.02001">
        <ele>1039.8</ele>
        <time>2022-06-15T08:42:42Z</time>
      </trkpt>
      <trkpt lat="48.03159" lon="7.02013">
        <ele>1042.21</ele>
        <time>2022-06-15T08:42:56Z</time>
      </trkpt>
      <trkpt lat="48.0315" lon="7.02021">
        <ele>1044.61</ele>
        <time>2022-06-15T08:43:07Z</time>
      </trkpt>
      <trkpt lat="48.03141" lon="7.02026">
        <ele>1044.61</ele>
        <time>2022-06-15T08:43:15Z</time>
      </trkpt>
      <trkpt lat="48.03126" lon="7.02031">
        <ele>1045.09</ele>
        <time>2022-06-15T08:43:30Z</time>
      </trkpt>
      <trkpt lat="48.03116" lon="7.02039">
        <ele>1043.65</ele>
        <time>2022-06-15T08:43:43Z</time>
      </trkpt>
      <trkpt lat="48.03112" lon="7.02047">
        <ele>1042.69</ele>
        <time>2022-06-15T08:43:52Z</time>
      </trkpt>
      <trkpt lat="48.03102" lon="7.02053">
        <ele>1040.76</ele>
        <time>2022-06-15T08:44:05Z</time>
      </trkpt>
      <trkpt lat="48.03089" lon="7.02065">
        <ele>1038.36</ele>
        <time>2022-06-15T08:44:19Z</time>
      </trkpt>
      <trkpt lat="48.03083" lon="7.02073">
        <ele>1037.88</ele>
        <time>2022-06-15T08:44:32Z</time>
      </trkpt>
      <trkpt lat="48.03076" lon="7.02081">
        <ele>1035.96</ele>
        <time>2022-06-15T08:44:41Z</time>
      </trkpt>
      <trkpt lat="48.03062" lon="7.02092">
        <ele>1033.55</ele>
        <time>2022-06-15T08:44:55Z</time>
      </trkpt>
      <trkpt lat="48.0305" lon="7.02096">
        <ele>1031.15</ele>
        <time>2022-06-15T08:45:09Z</time>
      </trkpt>
      <trkpt lat="48.03028" lon="7.02104">
        <ele>1028.27</ele>
        <time>2022-06-15T08:45:24Z</time>
      </trkpt>
      <trkpt lat="48.0302" lon="7.0211">
        <ele>1027.31</ele>
        <time>2022-06-15T08:45:39Z</time>
      </trkpt>
      <trkpt lat="48.03018" lon="7.0212">
        <ele>1024.9</ele>
        <time>2022-06-15T08:45:50Z</time>
      </trkpt>
      <trkpt lat="48.03018" lon="7.02125">
        <ele>1024.42</ele>
        <time>2022-06-15T08:46:05Z</time>
      </trkpt>
      <trkpt lat="48.03024" lon="7.02132">
        <ele>1021.54</ele>
        <time>2022-06-15T08:46:20Z</time>
      </trkpt>
      <trkpt lat="48.03021" lon="7.02141">
        <ele>1019.62</ele>
        <time>2022-06-15T08:46:34Z</time>
      </trkpt>
      <trkpt lat="48.03016" lon="7.02152">
        <ele>1017.69</ele>
        <time>2022-06-15T08:46:48Z</time>
      </trkpt>
      <trkpt lat="48.03008" lon="7.02162">
        <ele>1016.25</ele>
        <time>2022-06-15T08:47:03Z</time>
      </trkpt>
      <trkpt lat="48.02999" lon="7.02172">
        <ele>1014.33</ele>
        <time>2022-06-15T08:47:18Z</time>
      </trkpt>
      <trkpt lat="48.02989" lon="7.02177">
        <ele>1012.41</ele>
        <time>2022-06-15T08:47:34Z</time>
      </trkpt>
      <trkpt lat="48.02977" lon="7.02183">
        <ele>1010</ele>
        <time>2022-06-15T08:47:49Z</time>
      </trkpt>
      <trkpt lat="48.02971" lon="7.02187">
        <ele>1008.56</ele>
        <time>2022-06-15T08:48:02Z</time>
      </trkpt>
      <trkpt lat="48.02958" lon="7.02192">
        <ele>1006.64</ele>
        <time>2022-06-15T08:48:14Z</time>
      </trkpt>
      <trkpt lat="48.02954" lon="7.02199">
        <ele>1005.2</ele>
        <time>2022-06-15T08:48:30Z</time>
      </trkpt>
      <trkpt lat="48.02952" lon="7.02206">
        <ele>1003.27</ele>
        <time>2022-06-15T08:48:44Z</time>
      </trkpt>
      <trkpt lat="48.02939" lon="7.02219">
        <ele>1001.83</ele>
        <time>2022-06-15T08:49:00Z</time>
      </trkpt>
      <trkpt lat="48.02923" lon="7.0223">
        <ele>999.43</ele>
        <time>2022-06-15T08:49:15Z</time>
      </trkpt>
      <trkpt lat="48.0291" lon="7.02232">
        <ele>997.02</ele>
        <time>2022-06-15T08:49:29Z</time>
      </trkpt>
      <trkpt lat="48.02897" lon="7.02235">
        <ele>995.1</ele>
        <time>2022-06-15T08:49:43Z</time>
      </trkpt>
      <trkpt lat="48.02895" lon="7.02238">
        <ele>993.66</ele>
        <time>2022-06-15T08:49:54Z</time>
      </trkpt>
      <trkpt lat="48.02881" lon="7.02252">
        <ele>991.26</ele>
        <time>2022-06-15T08:50:11Z</time>
      </trkpt>
      <trkpt lat="48.02866" lon="7.02257">
        <ele>989.33</ele>
        <time>2022-06-15T08:50:24Z</time>
      </trkpt>
      <trkpt lat="48.02859" lon="7.02263">
        <ele>987.89</ele>
        <time>2022-06-15T08:50:39Z</time>
      </trkpt>
      <trkpt lat="48.0285" lon="7.02277">
        <ele>985.97</ele>
        <time>2022-06-15T08:50:55Z</time>
      </trkpt>
      <trkpt lat="48.02834" lon="7.02292">
        <ele>985.01</ele>
        <time>2022-06-15T08:51:08Z</time>
      </trkpt>
      <trkpt lat="48.02828" lon="7.02299">
        <ele>983.57</ele>
        <time>2022-06-15T08:51:15Z</time>
      </trkpt>
      <trkpt lat="48.02822" lon="7.02305">
        <ele>984.05</ele>
        <time>2022-06-15T08:51:33Z</time>
      </trkpt>
      <trkpt lat="48.02825" lon="7.02311">
        <ele>984.05</ele>
        <time>2022-06-15T08:51:58Z</time>
      </trkpt>
      <trkpt lat="48.02826" lon="7.02313">
        <ele>985.01</ele>
        <time>2022-06-15T08:52:20Z</time>
      </trkpt>
      <trkpt lat="48.02821" lon="7.02314">
        <ele>987.41</ele>
        <time>2022-06-15T08:52:34Z</time>
      </trkpt>
      <trkpt lat="48.02806" lon="7.0231">
        <ele>989.33</ele>
        <time>2022-06-15T08:52:47Z</time>
      </trkpt>
      <trkpt lat="48.02788" lon="7.02311">
        <ele>990.78</ele>
        <time>2022-06-15T08:53:01Z</time>
      </trkpt>
      <trkpt lat="48.02775" lon="7.02323">
        <ele>992.22</ele>
        <time>2022-06-15T08:53:17Z</time>
      </trkpt>
      <trkpt lat="48.0277" lon="7.02334">
        <ele>994.62</ele>
        <time>2022-06-15T08:53:31Z</time>
      </trkpt>
      <trkpt lat="48.02768" lon="7.02337">
        <ele>994.62</ele>
        <time>2022-06-15T08:53:34Z</time>
      </trkpt>
      <trkpt lat="48.02752" lon="7.02348">
        <ele>997.02</ele>
        <time>2022-06-15T08:53:48Z</time>
      </trkpt>
      <trkpt lat="48.02742" lon="7.0236">
        <ele>998.95</ele>
        <time>2022-06-15T08:54:04Z</time>
      </trkpt>
      <trkpt lat="48.02733" lon="7.02374">
        <ele>999.91</ele>
        <time>2022-06-15T08:54:20Z</time>
      </trkpt>
      <trkpt lat="48.02723" lon="7.02386">
        <ele>1002.31</ele>
        <time>2022-06-15T08:54:38Z</time>
      </trkpt>
      <trkpt lat="48.02715" lon="7.02399">
        <ele>1004.23</ele>
        <time>2022-06-15T08:54:55Z</time>
      </trkpt>
      <trkpt lat="48.02696" lon="7.02409">
        <ele>1005.68</ele>
        <time>2022-06-15T08:55:12Z</time>
      </trkpt>
      <trkpt lat="48.02688" lon="7.02412">
        <ele>1005.2</ele>
        <time>2022-06-15T08:55:18Z</time>
      </trkpt>
      <trkpt lat="48.02673" lon="7.02411">
        <ele>1008.08</ele>
        <time>2022-06-15T08:55:33Z</time>
      </trkpt>
      <trkpt lat="48.02665" lon="7.02405">
        <ele>1010</ele>
        <time>2022-06-15T08:55:46Z</time>
      </trkpt>
      <trkpt lat="48.02656" lon="7.02395">
        <ele>1010.96</ele>
        <time>2022-06-15T08:56:01Z</time>
      </trkpt>
      <trkpt lat="48.02653" lon="7.02395">
        <ele>1011.44</ele>
        <time>2022-06-15T08:56:04Z</time>
      </trkpt>
      <trkpt lat="48.02639" lon="7.02388">
        <ele>1012.89</ele>
        <time>2022-06-15T08:56:19Z</time>
      </trkpt>
      <trkpt lat="48.0263" lon="7.02379">
        <ele>1014.33</ele>
        <time>2022-06-15T08:56:32Z</time>
      </trkpt>
      <trkpt lat="48.0263" lon="7.02372">
        <ele>1017.21</ele>
        <time>2022-06-15T08:56:45Z</time>
      </trkpt>
      <trkpt lat="48.02637" lon="7.02369">
        <ele>1019.13</ele>
        <time>2022-06-15T08:56:59Z</time>
      </trkpt>
      <trkpt lat="48.02646" lon="7.02369">
        <ele>1020.1</ele>
        <time>2022-06-15T08:57:13Z</time>
      </trkpt>
      <trkpt lat="48.02657" lon="7.02367">
        <ele>1022.02</ele>
        <time>2022-06-15T08:57:28Z</time>
      </trkpt>
      <trkpt lat="48.02669" lon="7.02363">
        <ele>1023.94</ele>
        <time>2022-06-15T08:57:45Z</time>
      </trkpt>
      <trkpt lat="48.02676" lon="7.02358">
        <ele>1025.86</ele>
        <time>2022-06-15T08:58:00Z</time>
      </trkpt>
      <trkpt lat="48.02687" lon="7.0234">
        <ele>1027.31</ele>
        <time>2022-06-15T08:58:16Z</time>
      </trkpt>
      <trkpt lat="48.02694" lon="7.02328">
        <ele>1029.23</ele>
        <time>2022-06-15T08:58:31Z</time>
      </trkpt>
      <trkpt lat="48.027" lon="7.02314">
        <ele>1030.19</ele>
        <time>2022-06-15T08:58:46Z</time>
      </trkpt>
      <trkpt lat="48.02704" lon="7.02302">
        <ele>1032.11</ele>
        <time>2022-06-15T08:59:01Z</time>
      </trkpt>
      <trkpt lat="48.02715" lon="7.02279">
        <ele>1033.55</ele>
        <time>2022-06-15T08:59:17Z</time>
      </trkpt>
      <trkpt lat="48.02721" lon="7.02258">
        <ele>1035.96</ele>
        <time>2022-06-15T08:59:32Z</time>
      </trkpt>
      <trkpt lat="48.02722" lon="7.02251">
        <ele>1037.88</ele>
        <time>2022-06-15T08:59:47Z</time>
      </trkpt>
      <trkpt lat="48.02716" lon="7.02246">
        <ele>1040.28</ele>
        <time>2022-06-15T09:00:01Z</time>
      </trkpt>
      <trkpt lat="48.02703" lon="7.02244">
        <ele>1041.25</ele>
        <time>2022-06-15T09:00:18Z</time>
      </trkpt>
      <trkpt lat="48.02694" lon="7.0225">
        <ele>1042.69</ele>
        <time>2022-06-15T09:00:33Z</time>
      </trkpt>
      <trkpt lat="48.02679" lon="7.02264">
        <ele>1043.65</ele>
        <time>2022-06-15T09:00:50Z</time>
      </trkpt>
      <trkpt lat="48.02663" lon="7.02273">
        <ele>1045.57</ele>
        <time>2022-06-15T09:01:05Z</time>
      </trkpt>
      <trkpt lat="48.02655" lon="7.02281">
        <ele>1046.05</ele>
        <time>2022-06-15T09:01:18Z</time>
      </trkpt>
      <trkpt lat="48.02653" lon="7.02285">
        <ele>1046.05</ele>
        <time>2022-06-15T09:01:43Z</time>
      </trkpt>
      <trkpt lat="48.02646" lon="7.0229">
        <ele>1045.09</ele>
        <time>2022-06-15T09:01:56Z</time>
      </trkpt>
      <trkpt lat="48.02645" lon="7.02291">
        <ele>1044.61</ele>
        <time>2022-06-15T09:01:57Z</time>
      </trkpt>
      <trkpt lat="48.0264" lon="7.02301">
        <ele>1043.65</ele>
        <time>2022-06-15T09:02:12Z</time>
      </trkpt>
      <trkpt lat="48.02631" lon="7.02309">
        <ele>1044.13</ele>
        <time>2022-06-15T09:02:30Z</time>
      </trkpt>
      <trkpt lat="48.02628" lon="7.0231">
        <ele>1044.61</ele>
        <time>2022-06-15T09:02:36Z</time>
      </trkpt>
      <trkpt lat="48.02623" lon="7.02312">
        <ele>1045.09</ele>
        <time>2022-06-15T09:02:40Z</time>
      </trkpt>
      <trkpt lat="48.02619" lon="7.02313">
        <ele>1044.13</ele>
        <time>2022-06-15T09:02:43Z</time>
      </trkpt>
      <trkpt lat="48.02617" lon="7.02314">
        <ele>1045.09</ele>
        <time>2022-06-15T09:02:46Z</time>
      </trkpt>
      <trkpt lat="48.02615" lon="7.02313">
        <ele>1045.57</ele>
        <time>2022-06-15T09:02:49Z</time>
      </trkpt>
      <trkpt lat="48.02604" lon="7.02309">
        <ele>1046.05</ele>
        <time>2022-06-15T09:03:02Z</time>
      </trkpt>
      <trkpt lat="48.02596" lon="7.0231">
        <ele>1044.13</ele>
        <time>2022-06-15T09:03:15Z</time>
      </trkpt>
      <trkpt lat="48.02586" lon="7.02309">
        <ele>1044.13</ele>
        <time>2022-06-15T09:03:29Z</time>
      </trkpt>
      <trkpt lat="48.0258" lon="7.02309">
        <ele>1043.17</ele>
        <time>2022-06-15T09:03:42Z</time>
      </trkpt>
      <trkpt lat="48.02581" lon="7.02311">
        <ele>1042.69</ele>
        <time>2022-06-15T09:04:00Z</time>
      </trkpt>
      <trkpt lat="48.02579" lon="7.02305">
        <ele>1044.13</ele>
        <time>2022-06-15T09:04:21Z</time>
      </trkpt>
      <trkpt lat="48.02578" lon="7.02301">
        <ele>1043.65</ele>
        <time>2022-06-15T09:04:32Z</time>
      </trkpt>
      <trkpt lat="48.0258" lon="7.02303">
        <ele>1043.17</ele>
        <time>2022-06-15T09:04:52Z</time>
      </trkpt>
      <trkpt lat="48.0258" lon="7.02306">
        <ele>1043.17</ele>
        <time>2022-06-15T09:05:17Z</time>
      </trkpt>
      <trkpt lat="48.02583" lon="7.02306">
        <ele>1042.69</ele>
        <time>2022-06-15T09:05:48Z</time>
      </trkpt>
      <trkpt lat="48.02586" lon="7.02303">
        <ele>1042.69</ele>
        <time>2022-06-15T09:06:12Z</time>
      </trkpt>
      <trkpt lat="48.02583" lon="7.02306">
        <ele>1042.69</ele>
        <time>2022-06-15T09:06:39Z</time>
      </trkpt>
      <trkpt lat="48.0258" lon="7.02307">
        <ele>1042.69</ele>
        <time>2022-06-15T09:07:03Z</time>
      </trkpt>
      <trkpt lat="48.02583" lon="7.02305">
        <ele>1042.21</ele>
        <time>2022-06-15T09:07:33Z</time>
      </trkpt>
      <trkpt lat="48.02581" lon="7.02305">
        <ele>1042.21</ele>
        <time>2022-06-15T09:08:04Z</time>
      </trkpt>
      <trkpt lat="48.0258" lon="7.02304">
        <ele>1041.73</ele>
        <time>2022-06-15T09:08:39Z</time>
      </trkpt>
      <trkpt lat="48.02579" lon="7.02305">
        <ele>1041.73</ele>
        <time>2022-06-15T09:09:04Z</time>
      </trkpt>
      <trkpt lat="48.0258" lon="7.02306">
        <ele>1041.73</ele>
        <time>2022-06-15T09:09:28Z</time>
      </trkpt>
      <trkpt lat="48.0258" lon="7.02307">
        <ele>1041.73</ele>
        <time>2022-06-15T09:10:05Z</time>
      </trkpt>
      <trkpt lat="48.02579" lon="7.02303">
        <ele>1041.25</ele>
        <time>2022-06-15T09:10:26Z</time>
      </trkpt>
      <trkpt lat="48.0258" lon="7.02305">
        <ele>1041.25</ele>
        <time>2022-06-15T09:10:47Z</time>
      </trkpt>
      <trkpt lat="48.0258" lon="7.02302">
        <ele>1040.28</ele>
        <time>2022-06-15T09:11:07Z</time>
      </trkpt>
      <trkpt lat="48.02581" lon="7.02306">
        <ele>1040.76</ele>
        <time>2022-06-15T09:11:20Z</time>
      </trkpt>
      <trkpt lat="48.0258" lon="7.02306">
        <ele>1040.28</ele>
        <time>2022-06-15T09:11:31Z</time>
      </trkpt>
      <trkpt lat="48.0258" lon="7.02306">
        <ele>1040.76</ele>
        <time>2022-06-15T09:11:51Z</time>
      </trkpt>
      <trkpt lat="48.02581" lon="7.02306">
        <ele>1040.28</ele>
        <time>2022-06-15T09:12:17Z</time>
      </trkpt>
      <trkpt lat="48.0258" lon="7.02305">
        <ele>1040.28</ele>
        <time>2022-06-15T09:12:32Z</time>
      </trkpt>
      <trkpt lat="48.02582" lon="7.02305">
        <ele>1040.28</ele>
        <time>2022-06-15T09:12:37Z</time>
      </trkpt>
      <trkpt lat="48.02594" lon="7.02305">
        <ele>1041.73</ele>
        <time>2022-06-15T09:12:51Z</time>
      </trkpt>
      <trkpt lat="48.02601" lon="7.02308">
        <ele>1042.21</ele>
        <time>2022-06-15T09:13:05Z</time>
      </trkpt>
      <trkpt lat="48.02609" lon="7.02313">
        <ele>1040.76</ele>
        <time>2022-06-15T09:13:16Z</time>
      </trkpt>
      <trkpt lat="48.02624" lon="7.02309">
        <ele>1040.28</ele>
        <time>2022-06-15T09:13:31Z</time>
      </trkpt>
      <trkpt lat="48.02627" lon="7.02307">
        <ele>1039.8</ele>
        <time>2022-06-15T09:13:34Z</time>
      </trkpt>
      <trkpt lat="48.02637" lon="7.02296">
        <ele>1040.28</ele>
        <time>2022-06-15T09:13:49Z</time>
      </trkpt>
      <trkpt lat="48.02645" lon="7.02281">
        <ele>1041.73</ele>
        <time>2022-06-15T09:14:01Z</time>
      </trkpt>
      <trkpt lat="48.02646" lon="7.02281">
        <ele>1041.25</ele>
        <time>2022-06-15T09:14:02Z</time>
      </trkpt>
      <trkpt lat="48.02648" lon="7.02277">
        <ele>1041.73</ele>
        <time>2022-06-15T09:14:06Z</time>
      </trkpt>
      <trkpt lat="48.02658" lon="7.02257">
        <ele>1040.76</ele>
        <time>2022-06-15T09:14:18Z</time>
      </trkpt>
      <trkpt lat="48.02665" lon="7.02236">
        <ele>1042.21</ele>
        <time>2022-06-15T09:14:33Z</time>
      </trkpt>
      <trkpt lat="48.02665" lon="7.02232">
        <ele>1042.69</ele>
        <time>2022-06-15T09:14:36Z</time>
      </trkpt>
      <trkpt lat="48.02663" lon="7.02227">
        <ele>1042.69</ele>
        <time>2022-06-15T09:14:50Z</time>
      </trkpt>
      <trkpt lat="48.0265" lon="7.02218">
        <ele>1040.28</ele>
        <time>2022-06-15T09:15:08Z</time>
      </trkpt>
      <trkpt lat="48.02646" lon="7.02217">
        <ele>1040.28</ele>
        <time>2022-06-15T09:15:12Z</time>
      </trkpt>
      <trkpt lat="48.0264" lon="7.02215">
        <ele>1039.32</ele>
        <time>2022-06-15T09:15:16Z</time>
      </trkpt>
      <trkpt lat="48.02621" lon="7.02207">
        <ele>1036.92</ele>
        <time>2022-06-15T09:15:31Z</time>
      </trkpt>
      <trkpt lat="48.02615" lon="7.02201">
        <ele>1037.4</ele>
        <time>2022-06-15T09:15:38Z</time>
      </trkpt>
      <trkpt lat="48.02611" lon="7.02186">
        <ele>1036.92</ele>
        <time>2022-06-15T09:15:50Z</time>
      </trkpt>
      <trkpt lat="48.02604" lon="7.02174">
        <ele>1035.96</ele>
        <time>2022-06-15T09:15:57Z</time>
      </trkpt>
      <trkpt lat="48.02603" lon="7.02163">
        <ele>1035</ele>
        <time>2022-06-15T09:16:04Z</time>
      </trkpt>
      <trkpt lat="48.02593" lon="7.02141">
        <ele>1035.48</ele>
        <time>2022-06-15T09:16:17Z</time>
      </trkpt>
      <trkpt lat="48.02588" lon="7.02133">
        <ele>1035.96</ele>
        <time>2022-06-15T09:16:22Z</time>
      </trkpt>
      <trkpt lat="48.02591" lon="7.02108">
        <ele>1036.92</ele>
        <time>2022-06-15T09:16:33Z</time>
      </trkpt>
      <trkpt lat="48.0259" lon="7.02103">
        <ele>1036.92</ele>
        <time>2022-06-15T09:16:35Z</time>
      </trkpt>
      <trkpt lat="48.02593" lon="7.02088">
        <ele>1037.4</ele>
        <time>2022-06-15T09:16:44Z</time>
      </trkpt>
      <trkpt lat="48.02595" lon="7.02066">
        <ele>1038.84</ele>
        <time>2022-06-15T09:16:59Z</time>
      </trkpt>
      <trkpt lat="48.02597" lon="7.02047">
        <ele>1040.28</ele>
        <time>2022-06-15T09:17:12Z</time>
      </trkpt>
      <trkpt lat="48.02604" lon="7.02027">
        <ele>1042.69</ele>
        <time>2022-06-15T09:17:26Z</time>
      </trkpt>
      <trkpt lat="48.0261" lon="7.02016">
        <ele>1044.13</ele>
        <time>2022-06-15T09:17:36Z</time>
      </trkpt>
      <trkpt lat="48.02615" lon="7.01997">
        <ele>1047.01</ele>
        <time>2022-06-15T09:17:52Z</time>
      </trkpt>
      <trkpt lat="48.02618" lon="7.01987">
        <ele>1048.45</ele>
        <time>2022-06-15T09:18:09Z</time>
      </trkpt>
      <trkpt lat="48.02623" lon="7.01973">
        <ele>1049.9</ele>
        <time>2022-06-15T09:18:25Z</time>
      </trkpt>
      <trkpt lat="48.02627" lon="7.01963">
        <ele>1052.3</ele>
        <time>2022-06-15T09:18:39Z</time>
      </trkpt>
      <trkpt lat="48.02631" lon="7.01951">
        <ele>1054.22</ele>
        <time>2022-06-15T09:18:52Z</time>
      </trkpt>
      <trkpt lat="48.02636" lon="7.0194">
        <ele>1056.63</ele>
        <time>2022-06-15T09:19:08Z</time>
      </trkpt>
      <trkpt lat="48.02638" lon="7.01939">
        <ele>1057.59</ele>
        <time>2022-06-15T09:19:20Z</time>
      </trkpt>
      <trkpt lat="48.02638" lon="7.01939">
        <ele>1059.03</ele>
        <time>2022-06-15T09:19:35Z</time>
      </trkpt>
      <trkpt lat="48.02638" lon="7.01937">
        <ele>1059.03</ele>
        <time>2022-06-15T09:19:56Z</time>
      </trkpt>
      <trkpt lat="48.02651" lon="7.0193">
        <ele>1059.51</ele>
        <time>2022-06-15T09:20:16Z</time>
      </trkpt>
      <trkpt lat="48.02655" lon="7.01929">
        <ele>1061.43</ele>
        <time>2022-06-15T09:20:31Z</time>
      </trkpt>
      <trkpt lat="48.02657" lon="7.01933">
        <ele>1061.91</ele>
        <time>2022-06-15T09:20:43Z</time>
      </trkpt>
      <trkpt lat="48.02658" lon="7.01933">
        <ele>1062.87</ele>
        <time>2022-06-15T09:21:02Z</time>
      </trkpt>
      <trkpt lat="48.02662" lon="7.01928">
        <ele>1065.28</ele>
        <time>2022-06-15T09:21:15Z</time>
      </trkpt>
      <trkpt lat="48.02667" lon="7.01919">
        <ele>1062.39</ele>
        <time>2022-06-15T09:21:29Z</time>
      </trkpt>
      <trkpt lat="48.02668" lon="7.01919">
        <ele>1061.91</ele>
        <time>2022-06-15T09:21:43Z</time>
      </trkpt>
      <trkpt lat="48.02668" lon="7.01913">
        <ele>1059.99</ele>
        <time>2022-06-15T09:21:59Z</time>
      </trkpt>
      <trkpt lat="48.02668" lon="7.01906">
        <ele>1058.07</ele>
        <time>2022-06-15T09:22:13Z</time>
      </trkpt>
      <trkpt lat="48.02667" lon="7.019">
        <ele>1057.59</ele>
        <time>2022-06-15T09:22:35Z</time>
      </trkpt>
      <trkpt lat="48.02672" lon="7.01892">
        <ele>1056.63</ele>
        <time>2022-06-15T09:22:52Z</time>
      </trkpt>
      <trkpt lat="48.02675" lon="7.01888">
        <ele>1053.74</ele>
        <time>2022-06-15T09:23:04Z</time>
      </trkpt>
      <trkpt lat="48.02681" lon="7.01884">
        <ele>1054.22</ele>
        <time>2022-06-15T09:23:15Z</time>
      </trkpt>
      <trkpt lat="48.0268" lon="7.01871">
        <ele>1054.7</ele>
        <time>2022-06-15T09:23:28Z</time>
      </trkpt>
      <trkpt lat="48.02676" lon="7.01864">
        <ele>1054.22</ele>
        <time>2022-06-15T09:23:45Z</time>
      </trkpt>
      <trkpt lat="48.02675" lon="7.01867">
        <ele>1054.22</ele>
        <time>2022-06-15T09:23:58Z</time>
      </trkpt>
      <trkpt lat="48.02671" lon="7.01862">
        <ele>1051.82</ele>
        <time>2022-06-15T09:24:12Z</time>
      </trkpt>
      <trkpt lat="48.02689" lon="7.01848">
        <ele>1050.38</ele>
        <time>2022-06-15T09:24:24Z</time>
      </trkpt>
      <trkpt lat="48.02696" lon="7.01848">
        <ele>1048.94</ele>
        <time>2022-06-15T09:24:39Z</time>
      </trkpt>
      <trkpt lat="48.02692" lon="7.01857">
        <ele>1049.42</ele>
        <time>2022-06-15T09:25:01Z</time>
      </trkpt>
      <trkpt lat="48.02687" lon="7.01845">
        <ele>1047.01</ele>
        <time>2022-06-15T09:25:14Z</time>
      </trkpt>
      <trkpt lat="48.02684" lon="7.01831">
        <ele>1045.57</ele>
        <time>2022-06-15T09:25:27Z</time>
      </trkpt>
      <trkpt lat="48.02682" lon="7.01823">
        <ele>1046.05</ele>
        <time>2022-06-15T09:25:39Z</time>
      </trkpt>
      <trkpt lat="48.02676" lon="7.01816">
        <ele>1046.05</ele>
        <time>2022-06-15T09:25:53Z</time>
      </trkpt>
      <trkpt lat="48.02671" lon="7.01816">
        <ele>1046.05</ele>
        <time>2022-06-15T09:26:07Z</time>
      </trkpt>
      <trkpt lat="48.02669" lon="7.01807">
        <ele>1047.01</ele>
        <time>2022-06-15T09:26:22Z</time>
      </trkpt>
      <trkpt lat="48.02668" lon="7.01796">
        <ele>1047.01</ele>
        <time>2022-06-15T09:26:34Z</time>
      </trkpt>
      <trkpt lat="48.02669" lon="7.01787">
        <ele>1047.49</ele>
        <time>2022-06-15T09:26:47Z</time>
      </trkpt>
      <trkpt lat="48.02672" lon="7.01779">
        <ele>1047.97</ele>
        <time>2022-06-15T09:27:01Z</time>
      </trkpt>
      <trkpt lat="48.02681" lon="7.0176">
        <ele>1048.45</ele>
        <time>2022-06-15T09:27:15Z</time>
      </trkpt>
      <trkpt lat="48.02683" lon="7.01756">
        <ele>1049.42</ele>
        <time>2022-06-15T09:27:18Z</time>
      </trkpt>
      <trkpt lat="48.02689" lon="7.0174">
        <ele>1049.9</ele>
        <time>2022-06-15T09:27:32Z</time>
      </trkpt>
      <trkpt lat="48.02693" lon="7.0173">
        <ele>1050.86</ele>
        <time>2022-06-15T09:27:45Z</time>
      </trkpt>
      <trkpt lat="48.02697" lon="7.01723">
        <ele>1051.34</ele>
        <time>2022-06-15T09:27:56Z</time>
      </trkpt>
      <trkpt lat="48.02698" lon="7.01717">
        <ele>1050.38</ele>
        <time>2022-06-15T09:28:09Z</time>
      </trkpt>
      <trkpt lat="48.02708" lon="7.01712">
        <ele>1050.86</ele>
        <time>2022-06-15T09:28:22Z</time>
      </trkpt>
      <trkpt lat="48.02709" lon="7.01711">
        <ele>1051.34</ele>
        <time>2022-06-15T09:28:42Z</time>
      </trkpt>
      <trkpt lat="48.02708" lon="7.01712">
        <ele>1050.86</ele>
        <time>2022-06-15T09:29:05Z</time>
      </trkpt>
      <trkpt lat="48.02708" lon="7.01709">
        <ele>1050.86</ele>
        <time>2022-06-15T09:29:25Z</time>
      </trkpt>
      <trkpt lat="48.0271" lon="7.01707">
        <ele>1051.34</ele>
        <time>2022-06-15T09:29:38Z</time>
      </trkpt>
      <trkpt lat="48.0271" lon="7.01708">
        <ele>1051.34</ele>
        <time>2022-06-15T09:30:01Z</time>
      </trkpt>
      <trkpt lat="48.02704" lon="7.01704">
        <ele>1050.86</ele>
        <time>2022-06-15T09:30:24Z</time>
      </trkpt>
      <trkpt lat="48.02708" lon="7.01697">
        <ele>1052.3</ele>
        <time>2022-06-15T09:30:39Z</time>
      </trkpt>
      <trkpt lat="48.02708" lon="7.01688">
        <ele>1052.3</ele>
        <time>2022-06-15T09:30:51Z</time>
      </trkpt>
      <trkpt lat="48.02712" lon="7.0168">
        <ele>1053.26</ele>
        <time>2022-06-15T09:31:03Z</time>
      </trkpt>
      <trkpt lat="48.02716" lon="7.0167">
        <ele>1053.74</ele>
        <time>2022-06-15T09:31:14Z</time>
      </trkpt>
      <trkpt lat="48.02719" lon="7.01661">
        <ele>1053.26</ele>
        <time>2022-06-15T09:31:25Z</time>
      </trkpt>
      <trkpt lat="48.0272" lon="7.01653">
        <ele>1052.78</ele>
        <time>2022-06-15T09:31:36Z</time>
      </trkpt>
      <trkpt lat="48.02723" lon="7.01643">
        <ele>1052.3</ele>
        <time>2022-06-15T09:31:43Z</time>
      </trkpt>
      <trkpt lat="48.02728" lon="7.0163">
        <ele>1051.82</ele>
        <time>2022-06-15T09:31:58Z</time>
      </trkpt>
      <trkpt lat="48.02727" lon="7.01627">
        <ele>1051.34</ele>
        <time>2022-06-15T09:32:08Z</time>
      </trkpt>
      <trkpt lat="48.02726" lon="7.01616">
        <ele>1052.3</ele>
        <time>2022-06-15T09:32:24Z</time>
      </trkpt>
      <trkpt lat="48.02723" lon="7.01617">
        <ele>1054.7</ele>
        <time>2022-06-15T09:32:40Z</time>
      </trkpt>
      <trkpt lat="48.02724" lon="7.01615">
        <ele>1056.15</ele>
        <time>2022-06-15T09:32:56Z</time>
      </trkpt>
      <trkpt lat="48.02724" lon="7.0161">
        <ele>1054.22</ele>
        <time>2022-06-15T09:33:09Z</time>
      </trkpt>
      <trkpt lat="48.02719" lon="7.01607">
        <ele>1054.22</ele>
        <time>2022-06-15T09:33:23Z</time>
      </trkpt>
      <trkpt lat="48.02708" lon="7.01603">
        <ele>1052.78</ele>
        <time>2022-06-15T09:33:38Z</time>
      </trkpt>
      <trkpt lat="48.02707" lon="7.01603">
        <ele>1056.15</ele>
        <time>2022-06-15T09:33:39Z</time>
      </trkpt>
      <trkpt lat="48.02686" lon="7.01602">
        <ele>1054.7</ele>
        <time>2022-06-15T09:34:11Z</time>
      </trkpt>
      <trkpt lat="48.02684" lon="7.01606">
        <ele>1055.18</ele>
        <time>2022-06-15T09:34:23Z</time>
      </trkpt>
      <trkpt lat="48.02682" lon="7.01598">
        <ele>1057.11</ele>
        <time>2022-06-15T09:34:42Z</time>
      </trkpt>
      <trkpt lat="48.02678" lon="7.01593">
        <ele>1059.51</ele>
        <time>2022-06-15T09:34:54Z</time>
      </trkpt>
      <trkpt lat="48.02669" lon="7.0159">
        <ele>1059.51</ele>
        <time>2022-06-15T09:35:09Z</time>
      </trkpt>
      <trkpt lat="48.02658" lon="7.01585">
        <ele>1060.47</ele>
        <time>2022-06-15T09:35:24Z</time>
      </trkpt>
      <trkpt lat="48.02641" lon="7.0159">
        <ele>1060.95</ele>
        <time>2022-06-15T09:35:49Z</time>
      </trkpt>
      <trkpt lat="48.02638" lon="7.01592">
        <ele>1060.95</ele>
        <time>2022-06-15T09:36:20Z</time>
      </trkpt>
      <trkpt lat="48.02636" lon="7.0159">
        <ele>1060.95</ele>
        <time>2022-06-15T09:36:50Z</time>
      </trkpt>
      <trkpt lat="48.02638" lon="7.01589">
        <ele>1062.87</ele>
        <time>2022-06-15T09:37:09Z</time>
      </trkpt>
      <trkpt lat="48.02626" lon="7.01581">
        <ele>1063.36</ele>
        <time>2022-06-15T09:37:23Z</time>
      </trkpt>
      <trkpt lat="48.02614" lon="7.01571">
        <ele>1063.84</ele>
        <time>2022-06-15T09:37:39Z</time>
      </trkpt>
      <trkpt lat="48.02608" lon="7.0156">
        <ele>1065.28</ele>
        <time>2022-06-15T09:37:54Z</time>
      </trkpt>
      <trkpt lat="48.02592" lon="7.01546">
        <ele>1064.8</ele>
        <time>2022-06-15T09:38:12Z</time>
      </trkpt>
      <trkpt lat="48.02589" lon="7.01545">
        <ele>1063.84</ele>
        <time>2022-06-15T09:38:15Z</time>
      </trkpt>
      <trkpt lat="48.02585" lon="7.01543">
        <ele>1063.84</ele>
        <time>2022-06-15T09:38:21Z</time>
      </trkpt>
      <trkpt lat="48.02582" lon="7.01543">
        <ele>1062.39</ele>
        <time>2022-06-15T09:38:25Z</time>
      </trkpt>
      <trkpt lat="48.02574" lon="7.01542">
        <ele>1060.95</ele>
        <time>2022-06-15T09:38:33Z</time>
      </trkpt>
      <trkpt lat="48.02564" lon="7.01543">
        <ele>1059.03</ele>
        <time>2022-06-15T09:38:46Z</time>
      </trkpt>
      <trkpt lat="48.0256" lon="7.01545">
        <ele>1056.15</ele>
        <time>2022-06-15T09:39:03Z</time>
      </trkpt>
      <trkpt lat="48.02554" lon="7.01539">
        <ele>1054.22</ele>
        <time>2022-06-15T09:39:16Z</time>
      </trkpt>
      <trkpt lat="48.02544" lon="7.01536">
        <ele>1052.78</ele>
        <time>2022-06-15T09:39:22Z</time>
      </trkpt>
      <trkpt lat="48.02535" lon="7.01526">
        <ele>1050.38</ele>
        <time>2022-06-15T09:39:36Z</time>
      </trkpt>
      <trkpt lat="48.02532" lon="7.0152">
        <ele>1050.38</ele>
        <time>2022-06-15T09:39:43Z</time>
      </trkpt>
      <trkpt lat="48.02532" lon="7.01507">
        <ele>1049.9</ele>
        <time>2022-06-15T09:40:03Z</time>
      </trkpt>
      <trkpt lat="48.02534" lon="7.01492">
        <ele>1049.42</ele>
        <time>2022-06-15T09:40:18Z</time>
      </trkpt>
      <trkpt lat="48.02526" lon="7.01486">
        <ele>1048.94</ele>
        <time>2022-06-15T09:40:27Z</time>
      </trkpt>
      <trkpt lat="48.02513" lon="7.01482">
        <ele>1047.97</ele>
        <time>2022-06-15T09:40:41Z</time>
      </trkpt>
      <trkpt lat="48.02502" lon="7.01482">
        <ele>1049.42</ele>
        <time>2022-06-15T09:40:56Z</time>
      </trkpt>
      <trkpt lat="48.02494" lon="7.01481">
        <ele>1049.9</ele>
        <time>2022-06-15T09:41:11Z</time>
      </trkpt>
      <trkpt lat="48.02491" lon="7.0148">
        <ele>1050.86</ele>
        <time>2022-06-15T09:41:15Z</time>
      </trkpt>
      <trkpt lat="48.02479" lon="7.01483">
        <ele>1050.38</ele>
        <time>2022-06-15T09:41:25Z</time>
      </trkpt>
      <trkpt lat="48.02475" lon="7.0148">
        <ele>1051.34</ele>
        <time>2022-06-15T09:41:31Z</time>
      </trkpt>
      <trkpt lat="48.02468" lon="7.01482">
        <ele>1052.3</ele>
        <time>2022-06-15T09:41:37Z</time>
      </trkpt>
      <trkpt lat="48.0245" lon="7.01477">
        <ele>1053.26</ele>
        <time>2022-06-15T09:41:52Z</time>
      </trkpt>
      <trkpt lat="48.02446" lon="7.01476">
        <ele>1054.22</ele>
        <time>2022-06-15T09:41:56Z</time>
      </trkpt>
      <trkpt lat="48.02431" lon="7.01477">
        <ele>1055.18</ele>
        <time>2022-06-15T09:42:11Z</time>
      </trkpt>
      <trkpt lat="48.0242" lon="7.01489">
        <ele>1054.7</ele>
        <time>2022-06-15T09:42:25Z</time>
      </trkpt>
      <trkpt lat="48.02413" lon="7.01507">
        <ele>1052.78</ele>
        <time>2022-06-15T09:42:41Z</time>
      </trkpt>
      <trkpt lat="48.02413" lon="7.01515">
        <ele>1053.26</ele>
        <time>2022-06-15T09:42:55Z</time>
      </trkpt>
      <trkpt lat="48.02397" lon="7.0152">
        <ele>1053.26</ele>
        <time>2022-06-15T09:43:06Z</time>
      </trkpt>
      <trkpt lat="48.02384" lon="7.01534">
        <ele>1053.74</ele>
        <time>2022-06-15T09:43:22Z</time>
      </trkpt>
      <trkpt lat="48.02381" lon="7.01538">
        <ele>1051.34</ele>
        <time>2022-06-15T09:43:33Z</time>
      </trkpt>
      <trkpt lat="48.02369" lon="7.01548">
        <ele>1051.34</ele>
        <time>2022-06-15T09:43:46Z</time>
      </trkpt>
      <trkpt lat="48.02358" lon="7.01555">
        <ele>1051.82</ele>
        <time>2022-06-15T09:44:03Z</time>
      </trkpt>
      <trkpt lat="48.02352" lon="7.01558">
        <ele>1051.82</ele>
        <time>2022-06-15T09:44:21Z</time>
      </trkpt>
      <trkpt lat="48.02358" lon="7.01552">
        <ele>1051.82</ele>
        <time>2022-06-15T09:44:42Z</time>
      </trkpt>
      <trkpt lat="48.02355" lon="7.01551">
        <ele>1051.82</ele>
        <time>2022-06-15T09:45:01Z</time>
      </trkpt>
      <trkpt lat="48.02357" lon="7.01554">
        <ele>1051.82</ele>
        <time>2022-06-15T09:45:21Z</time>
      </trkpt>
      <trkpt lat="48.02355" lon="7.01557">
        <ele>1052.3</ele>
        <time>2022-06-15T09:45:36Z</time>
      </trkpt>
      <trkpt lat="48.02349" lon="7.01556">
        <ele>1051.82</ele>
        <time>2022-06-15T09:46:11Z</time>
      </trkpt>
      <trkpt lat="48.02346" lon="7.01559">
        <ele>1051.82</ele>
        <time>2022-06-15T09:46:40Z</time>
      </trkpt>
      <trkpt lat="48.02344" lon="7.01557">
        <ele>1051.82</ele>
        <time>2022-06-15T09:47:11Z</time>
      </trkpt>
      <trkpt lat="48.02356" lon="7.01558">
        <ele>1052.3</ele>
        <time>2022-06-15T09:47:38Z</time>
      </trkpt>
      <trkpt lat="48.02351" lon="7.0156">
        <ele>1051.34</ele>
        <time>2022-06-15T09:48:14Z</time>
      </trkpt>
      <trkpt lat="48.02348" lon="7.0157">
        <ele>1051.34</ele>
        <time>2022-06-15T09:48:33Z</time>
      </trkpt>
      <trkpt lat="48.02348" lon="7.01573">
        <ele>1050.86</ele>
        <time>2022-06-15T09:48:35Z</time>
      </trkpt>
      <trkpt lat="48.02347" lon="7.01586">
        <ele>1049.42</ele>
        <time>2022-06-15T09:48:47Z</time>
      </trkpt>
      <trkpt lat="48.02343" lon="7.01592">
        <ele>1047.49</ele>
        <time>2022-06-15T09:49:01Z</time>
      </trkpt>
      <trkpt lat="48.02343" lon="7.01593">
        <ele>1047.01</ele>
        <time>2022-06-15T09:49:03Z</time>
      </trkpt>
      <trkpt lat="48.0234" lon="7.01598">
        <ele>1046.05</ele>
        <time>2022-06-15T09:49:16Z</time>
      </trkpt>
      <trkpt lat="48.0234" lon="7.01597">
        <ele>1046.05</ele>
        <time>2022-06-15T09:49:17Z</time>
      </trkpt>
      <trkpt lat="48.02336" lon="7.01601">
        <ele>1044.61</ele>
        <time>2022-06-15T09:49:30Z</time>
      </trkpt>
      <trkpt lat="48.02335" lon="7.01602">
        <ele>1043.65</ele>
        <time>2022-06-15T09:49:34Z</time>
      </trkpt>
      <trkpt lat="48.02323" lon="7.0161">
        <ele>1042.69</ele>
        <time>2022-06-15T09:49:49Z</time>
      </trkpt>
      <trkpt lat="48.02315" lon="7.01615">
        <ele>1043.17</ele>
        <time>2022-06-15T09:50:05Z</time>
      </trkpt>
      <trkpt lat="48.02309" lon="7.01621">
        <ele>1043.17</ele>
        <time>2022-06-15T09:50:18Z</time>
      </trkpt>
      <trkpt lat="48.02305" lon="7.01623">
        <ele>1044.61</ele>
        <time>2022-06-15T09:50:33Z</time>
      </trkpt>
      <trkpt lat="48.02301" lon="7.01626">
        <ele>1045.09</ele>
        <time>2022-06-15T09:50:46Z</time>
      </trkpt>
      <trkpt lat="48.02292" lon="7.0163">
        <ele>1044.13</ele>
        <time>2022-06-15T09:51:02Z</time>
      </trkpt>
      <trkpt lat="48.02282" lon="7.01631">
        <ele>1044.61</ele>
        <time>2022-06-15T09:51:16Z</time>
      </trkpt>
      <trkpt lat="48.02266" lon="7.01629">
        <ele>1046.53</ele>
        <time>2022-06-15T09:51:34Z</time>
      </trkpt>
      <trkpt lat="48.02252" lon="7.01627">
        <ele>1047.01</ele>
        <time>2022-06-15T09:51:48Z</time>
      </trkpt>
      <trkpt lat="48.0224" lon="7.01625">
        <ele>1046.05</ele>
        <time>2022-06-15T09:52:00Z</time>
      </trkpt>
      <trkpt lat="48.02227" lon="7.01631">
        <ele>1046.05</ele>
        <time>2022-06-15T09:52:15Z</time>
      </trkpt>
      <trkpt lat="48.02216" lon="7.01634">
        <ele>1045.57</ele>
        <time>2022-06-15T09:52:30Z</time>
      </trkpt>
      <trkpt lat="48.0221" lon="7.01632">
        <ele>1045.57</ele>
        <time>2022-06-15T09:52:37Z</time>
      </trkpt>
      <trkpt lat="48.02197" lon="7.01618">
        <ele>1045.57</ele>
        <time>2022-06-15T09:52:53Z</time>
      </trkpt>
      <trkpt lat="48.02195" lon="7.01618">
        <ele>1044.61</ele>
        <time>2022-06-15T09:52:55Z</time>
      </trkpt>
      <trkpt lat="48.02193" lon="7.01616">
        <ele>1044.13</ele>
        <time>2022-06-15T09:52:59Z</time>
      </trkpt>
      <trkpt lat="48.02182" lon="7.01621">
        <ele>1045.09</ele>
        <time>2022-06-15T09:53:14Z</time>
      </trkpt>
      <trkpt lat="48.02174" lon="7.01626">
        <ele>1045.09</ele>
        <time>2022-06-15T09:53:29Z</time>
      </trkpt>
      <trkpt lat="48.02169" lon="7.01638">
        <ele>1046.05</ele>
        <time>2022-06-15T09:53:46Z</time>
      </trkpt>
      <trkpt lat="48.02168" lon="7.01649">
        <ele>1045.57</ele>
        <time>2022-06-15T09:54:01Z</time>
      </trkpt>
      <trkpt lat="48.02164" lon="7.01661">
        <ele>1045.09</ele>
        <time>2022-06-15T09:54:18Z</time>
      </trkpt>
      <trkpt lat="48.02161" lon="7.0167">
        <ele>1043.65</ele>
        <time>2022-06-15T09:54:34Z</time>
      </trkpt>
      <trkpt lat="48.02167" lon="7.01668">
        <ele>1044.13</ele>
        <time>2022-06-15T09:55:01Z</time>
      </trkpt>
      <trkpt lat="48.02165" lon="7.0168">
        <ele>1044.61</ele>
        <time>2022-06-15T09:55:34Z</time>
      </trkpt>
      <trkpt lat="48.02155" lon="7.01687">
        <ele>1045.09</ele>
        <time>2022-06-15T09:55:57Z</time>
      </trkpt>
      <trkpt lat="48.02158" lon="7.01673">
        <ele>1045.09</ele>
        <time>2022-06-15T09:56:29Z</time>
      </trkpt>
      <trkpt lat="48.02162" lon="7.01677">
        <ele>1045.09</ele>
        <time>2022-06-15T09:56:54Z</time>
      </trkpt>
      <trkpt lat="48.02163" lon="7.01678">
        <ele>1045.57</ele>
        <time>2022-06-15T09:57:22Z</time>
      </trkpt>
      <trkpt lat="48.02156" lon="7.01683">
        <ele>1044.61</ele>
        <time>2022-06-15T09:57:36Z</time>
      </trkpt>
      <trkpt lat="48.02148" lon="7.0169">
        <ele>1043.65</ele>
        <time>2022-06-15T09:57:50Z</time>
      </trkpt>
      <trkpt lat="48.02144" lon="7.01693">
        <ele>1046.53</ele>
        <time>2022-06-15T09:58:03Z</time>
      </trkpt>
      <trkpt lat="48.02133" lon="7.01701">
        <ele>1047.49</ele>
        <time>2022-06-15T09:58:18Z</time>
      </trkpt>
      <trkpt lat="48.02126" lon="7.01705">
        <ele>1047.97</ele>
        <time>2022-06-15T09:58:35Z</time>
      </trkpt>
      <trkpt lat="48.02122" lon="7.01704">
        <ele>1047.49</ele>
        <time>2022-06-15T09:58:53Z</time>
      </trkpt>
      <trkpt lat="48.0212" lon="7.01713">
        <ele>1049.9</ele>
        <time>2022-06-15T09:59:10Z</time>
      </trkpt>
      <trkpt lat="48.02112" lon="7.01719">
        <ele>1050.86</ele>
        <time>2022-06-15T09:59:27Z</time>
      </trkpt>
      <trkpt lat="48.02108" lon="7.01724">
        <ele>1050.86</ele>
        <time>2022-06-15T09:59:42Z</time>
      </trkpt>
      <trkpt lat="48.02104" lon="7.01727">
        <ele>1049.9</ele>
        <time>2022-06-15T09:59:57Z</time>
      </trkpt>
      <trkpt lat="48.02091" lon="7.01738">
        <ele>1051.82</ele>
        <time>2022-06-15T10:00:14Z</time>
      </trkpt>
      <trkpt lat="48.02081" lon="7.01744">
        <ele>1051.82</ele>
        <time>2022-06-15T10:00:29Z</time>
      </trkpt>
      <trkpt lat="48.02067" lon="7.01744">
        <ele>1053.26</ele>
        <time>2022-06-15T10:00:44Z</time>
      </trkpt>
      <trkpt lat="48.02057" lon="7.01742">
        <ele>1054.7</ele>
        <time>2022-06-15T10:00:59Z</time>
      </trkpt>
      <trkpt lat="48.02045" lon="7.01737">
        <ele>1056.63</ele>
        <time>2022-06-15T10:01:16Z</time>
      </trkpt>
      <trkpt lat="48.02043" lon="7.01733">
        <ele>1059.51</ele>
        <time>2022-06-15T10:01:30Z</time>
      </trkpt>
      <trkpt lat="48.02042" lon="7.01731">
        <ele>1061.91</ele>
        <time>2022-06-15T10:01:46Z</time>
      </trkpt>
      <trkpt lat="48.02046" lon="7.01735">
        <ele>1063.36</ele>
        <time>2022-06-15T10:01:58Z</time>
      </trkpt>
      <trkpt lat="48.02049" lon="7.01731">
        <ele>1065.28</ele>
        <time>2022-06-15T10:02:13Z</time>
      </trkpt>
      <trkpt lat="48.02044" lon="7.01723">
        <ele>1067.2</ele>
        <time>2022-06-15T10:02:28Z</time>
      </trkpt>
      <trkpt lat="48.02039" lon="7.01717">
        <ele>1069.12</ele>
        <time>2022-06-15T10:02:45Z</time>
      </trkpt>
      <trkpt lat="48.0203" lon="7.01716">
        <ele>1071.53</ele>
        <time>2022-06-15T10:03:03Z</time>
      </trkpt>
      <trkpt lat="48.02024" lon="7.01715">
        <ele>1072.01</ele>
        <time>2022-06-15T10:03:16Z</time>
      </trkpt>
      <trkpt lat="48.02018" lon="7.01724">
        <ele>1071.53</ele>
        <time>2022-06-15T10:03:33Z</time>
      </trkpt>
      <trkpt lat="48.02005" lon="7.01738">
        <ele>1071.53</ele>
        <time>2022-06-15T10:03:48Z</time>
      </trkpt>
      <trkpt lat="48.01999" lon="7.01747">
        <ele>1072.49</ele>
        <time>2022-06-15T10:04:07Z</time>
      </trkpt>
      <trkpt lat="48.01992" lon="7.01754">
        <ele>1072.49</ele>
        <time>2022-06-15T10:04:37Z</time>
      </trkpt>
      <trkpt lat="48.01988" lon="7.0175">
        <ele>1073.93</ele>
        <time>2022-06-15T10:04:52Z</time>
      </trkpt>
      <trkpt lat="48.01976" lon="7.01751">
        <ele>1077.29</ele>
        <time>2022-06-15T10:05:10Z</time>
      </trkpt>
      <trkpt lat="48.01971" lon="7.0175">
        <ele>1079.7</ele>
        <time>2022-06-15T10:05:25Z</time>
      </trkpt>
      <trkpt lat="48.01964" lon="7.01747">
        <ele>1082.1</ele>
        <time>2022-06-15T10:05:40Z</time>
      </trkpt>
      <trkpt lat="48.01956" lon="7.01745">
        <ele>1081.62</ele>
        <time>2022-06-15T10:05:54Z</time>
      </trkpt>
      <trkpt lat="48.01946" lon="7.01737">
        <ele>1080.66</ele>
        <time>2022-06-15T10:06:09Z</time>
      </trkpt>
      <trkpt lat="48.01943" lon="7.01735">
        <ele>1081.14</ele>
        <time>2022-06-15T10:06:27Z</time>
      </trkpt>
      <trkpt lat="48.0194" lon="7.01734">
        <ele>1082.1</ele>
        <time>2022-06-15T10:06:55Z</time>
      </trkpt>
      <trkpt lat="48.01925" lon="7.01734">
        <ele>1084.5</ele>
        <time>2022-06-15T10:07:11Z</time>
      </trkpt>
      <trkpt lat="48.01915" lon="7.01732">
        <ele>1085.47</ele>
        <time>2022-06-15T10:07:23Z</time>
      </trkpt>
      <trkpt lat="48.01907" lon="7.01735">
        <ele>1085.47</ele>
        <time>2022-06-15T10:07:39Z</time>
      </trkpt>
      <trkpt lat="48.019" lon="7.01734">
        <ele>1084.99</ele>
        <time>2022-06-15T10:07:55Z</time>
      </trkpt>
      <trkpt lat="48.01893" lon="7.01741">
        <ele>1084.5</ele>
        <time>2022-06-15T10:08:14Z</time>
      </trkpt>
      <trkpt lat="48.01886" lon="7.01757">
        <ele>1084.5</ele>
        <time>2022-06-15T10:08:31Z</time>
      </trkpt>
      <trkpt lat="48.0188" lon="7.01774">
        <ele>1084.99</ele>
        <time>2022-06-15T10:08:49Z</time>
      </trkpt>
      <trkpt lat="48.01877" lon="7.01775">
        <ele>1084.5</ele>
        <time>2022-06-15T10:08:56Z</time>
      </trkpt>
      <trkpt lat="48.01867" lon="7.01786">
        <ele>1085.47</ele>
        <time>2022-06-15T10:09:13Z</time>
      </trkpt>
      <trkpt lat="48.01857" lon="7.01795">
        <ele>1087.87</ele>
        <time>2022-06-15T10:09:29Z</time>
      </trkpt>
      <trkpt lat="48.01842" lon="7.01796">
        <ele>1090.27</ele>
        <time>2022-06-15T10:09:43Z</time>
      </trkpt>
      <trkpt lat="48.01832" lon="7.01803">
        <ele>1093.16</ele>
        <time>2022-06-15T10:10:01Z</time>
      </trkpt>
      <trkpt lat="48.01827" lon="7.0181">
        <ele>1094.6</ele>
        <time>2022-06-15T10:10:17Z</time>
      </trkpt>
      <trkpt lat="48.01819" lon="7.01814">
        <ele>1094.6</ele>
        <time>2022-06-15T10:10:36Z</time>
      </trkpt>
      <trkpt lat="48.01813" lon="7.01831">
        <ele>1095.08</ele>
        <time>2022-06-15T10:10:51Z</time>
      </trkpt>
      <trkpt lat="48.01808" lon="7.01835">
        <ele>1094.12</ele>
        <time>2022-06-15T10:11:05Z</time>
      </trkpt>
      <trkpt lat="48.01805" lon="7.01841">
        <ele>1095.08</ele>
        <time>2022-06-15T10:11:20Z</time>
      </trkpt>
      <trkpt lat="48.01801" lon="7.01846">
        <ele>1095.56</ele>
        <time>2022-06-15T10:11:36Z</time>
      </trkpt>
      <trkpt lat="48.01801" lon="7.01845">
        <ele>1095.08</ele>
        <time>2022-06-15T10:12:02Z</time>
      </trkpt>
      <trkpt lat="48.018" lon="7.01845">
        <ele>1095.56</ele>
        <time>2022-06-15T10:12:24Z</time>
      </trkpt>
      <trkpt lat="48.01799" lon="7.01859">
        <ele>1097</ele>
        <time>2022-06-15T10:12:39Z</time>
      </trkpt>
      <trkpt lat="48.0179" lon="7.01868">
        <ele>1098.44</ele>
        <time>2022-06-15T10:12:53Z</time>
      </trkpt>
      <trkpt lat="48.01788" lon="7.01868">
        <ele>1097.48</ele>
        <time>2022-06-15T10:13:15Z</time>
      </trkpt>
      <trkpt lat="48.01787" lon="7.01873">
        <ele>1097.96</ele>
        <time>2022-06-15T10:13:28Z</time>
      </trkpt>
      <trkpt lat="48.01788" lon="7.01873">
        <ele>1097.48</ele>
        <time>2022-06-15T10:14:05Z</time>
      </trkpt>
      <trkpt lat="48.0179" lon="7.01872">
        <ele>1097</ele>
        <time>2022-06-15T10:14:25Z</time>
      </trkpt>
      <trkpt lat="48.01789" lon="7.01873">
        <ele>1097.48</ele>
        <time>2022-06-15T10:14:57Z</time>
      </trkpt>
      <trkpt lat="48.01787" lon="7.01871">
        <ele>1097</ele>
        <time>2022-06-15T10:15:04Z</time>
      </trkpt>
      <trkpt lat="48.01784" lon="7.01859">
        <ele>1095.56</ele>
        <time>2022-06-15T10:15:21Z</time>
      </trkpt>
      <trkpt lat="48.01781" lon="7.01857">
        <ele>1095.08</ele>
        <time>2022-06-15T10:15:46Z</time>
      </trkpt>
      <trkpt lat="48.01768" lon="7.01845">
        <ele>1093.64</ele>
        <time>2022-06-15T10:16:02Z</time>
      </trkpt>
      <trkpt lat="48.01768" lon="7.01843">
        <ele>1094.6</ele>
        <time>2022-06-15T10:16:16Z</time>
      </trkpt>
      <trkpt lat="48.01769" lon="7.01843">
        <ele>1093.64</ele>
        <time>2022-06-15T10:16:29Z</time>
      </trkpt>
      <trkpt lat="48.01768" lon="7.01844">
        <ele>1094.12</ele>
        <time>2022-06-15T10:16:32Z</time>
      </trkpt>
      <trkpt lat="48.01765" lon="7.0184">
        <ele>1093.64</ele>
        <time>2022-06-15T10:16:38Z</time>
      </trkpt>
      <trkpt lat="48.01755" lon="7.01831">
        <ele>1092.68</ele>
        <time>2022-06-15T10:16:53Z</time>
      </trkpt>
      <trkpt lat="48.01741" lon="7.01813">
        <ele>1091.71</ele>
        <time>2022-06-15T10:17:11Z</time>
      </trkpt>
      <trkpt lat="48.01727" lon="7.01797">
        <ele>1091.71</ele>
        <time>2022-06-15T10:17:26Z</time>
      </trkpt>
      <trkpt lat="48.01723" lon="7.01795">
        <ele>1090.27</ele>
        <time>2022-06-15T10:17:29Z</time>
      </trkpt>
      <trkpt lat="48.01702" lon="7.01783">
        <ele>1090.27</ele>
        <time>2022-06-15T10:17:45Z</time>
      </trkpt>
      <trkpt lat="48.01693" lon="7.01763">
        <ele>1090.75</ele>
        <time>2022-06-15T10:17:58Z</time>
      </trkpt>
      <trkpt lat="48.01684" lon="7.0175">
        <ele>1090.27</ele>
        <time>2022-06-15T10:18:09Z</time>
      </trkpt>
      <trkpt lat="48.01668" lon="7.0173">
        <ele>1090.27</ele>
        <time>2022-06-15T10:18:24Z</time>
      </trkpt>
      <trkpt lat="48.01658" lon="7.01717">
        <ele>1088.35</ele>
        <time>2022-06-15T10:18:38Z</time>
      </trkpt>
      <trkpt lat="48.01639" lon="7.01695">
        <ele>1087.87</ele>
        <time>2022-06-15T10:18:57Z</time>
      </trkpt>
      <trkpt lat="48.01632" lon="7.01673">
        <ele>1089.79</ele>
        <time>2022-06-15T10:19:13Z</time>
      </trkpt>
      <trkpt lat="48.01619" lon="7.01654">
        <ele>1088.83</ele>
        <time>2022-06-15T10:19:29Z</time>
      </trkpt>
      <trkpt lat="48.01606" lon="7.01641">
        <ele>1088.35</ele>
        <time>2022-06-15T10:19:44Z</time>
      </trkpt>
      <trkpt lat="48.01593" lon="7.01632">
        <ele>1086.91</ele>
        <time>2022-06-15T10:19:59Z</time>
      </trkpt>
      <trkpt lat="48.01578" lon="7.0162">
        <ele>1087.39</ele>
        <time>2022-06-15T10:20:15Z</time>
      </trkpt>
      <trkpt lat="48.01562" lon="7.01612">
        <ele>1086.91</ele>
        <time>2022-06-15T10:20:29Z</time>
      </trkpt>
      <trkpt lat="48.01545" lon="7.01606">
        <ele>1085.95</ele>
        <time>2022-06-15T10:20:44Z</time>
      </trkpt>
      <trkpt lat="48.01525" lon="7.01601">
        <ele>1085.95</ele>
        <time>2022-06-15T10:21:01Z</time>
      </trkpt>
      <trkpt lat="48.01509" lon="7.01588">
        <ele>1086.43</ele>
        <time>2022-06-15T10:21:17Z</time>
      </trkpt>
      <trkpt lat="48.01487" lon="7.01575">
        <ele>1086.43</ele>
        <time>2022-06-15T10:21:35Z</time>
      </trkpt>
      <trkpt lat="48.01474" lon="7.01571">
        <ele>1084.5</ele>
        <time>2022-06-15T10:21:47Z</time>
      </trkpt>
      <trkpt lat="48.0146" lon="7.01563">
        <ele>1085.47</ele>
        <time>2022-06-15T10:21:56Z</time>
      </trkpt>
      <trkpt lat="48.01439" lon="7.01563">
        <ele>1084.5</ele>
        <time>2022-06-15T10:22:11Z</time>
      </trkpt>
      <trkpt lat="48.01423" lon="7.01565">
        <ele>1083.54</ele>
        <time>2022-06-15T10:22:24Z</time>
      </trkpt>
      <trkpt lat="48.01422" lon="7.01566">
        <ele>1084.02</ele>
        <time>2022-06-15T10:22:25Z</time>
      </trkpt>
      <trkpt lat="48.01411" lon="7.01571">
        <ele>1083.54</ele>
        <time>2022-06-15T10:22:35Z</time>
      </trkpt>
      <trkpt lat="48.01388" lon="7.01585">
        <ele>1083.06</ele>
        <time>2022-06-15T10:22:53Z</time>
      </trkpt>
      <trkpt lat="48.0137" lon="7.01594">
        <ele>1083.54</ele>
        <time>2022-06-15T10:23:11Z</time>
      </trkpt>
      <trkpt lat="48.01358" lon="7.01603">
        <ele>1083.06</ele>
        <time>2022-06-15T10:23:29Z</time>
      </trkpt>
      <trkpt lat="48.01347" lon="7.01605">
        <ele>1084.02</ele>
        <time>2022-06-15T10:23:46Z</time>
      </trkpt>
      <trkpt lat="48.01347" lon="7.01601">
        <ele>1083.54</ele>
        <time>2022-06-15T10:24:13Z</time>
      </trkpt>
      <trkpt lat="48.01344" lon="7.01604">
        <ele>1084.02</ele>
        <time>2022-06-15T10:24:35Z</time>
      </trkpt>
      <trkpt lat="48.01344" lon="7.01608">
        <ele>1083.06</ele>
        <time>2022-06-15T10:24:48Z</time>
      </trkpt>
      <trkpt lat="48.01338" lon="7.01609">
        <ele>1084.02</ele>
        <time>2022-06-15T10:25:04Z</time>
      </trkpt>
      <trkpt lat="48.01326" lon="7.01599">
        <ele>1084.5</ele>
        <time>2022-06-15T10:25:20Z</time>
      </trkpt>
      <trkpt lat="48.01315" lon="7.01581">
        <ele>1085.95</ele>
        <time>2022-06-15T10:25:35Z</time>
      </trkpt>
      <trkpt lat="48.01296" lon="7.01564">
        <ele>1087.39</ele>
        <time>2022-06-15T10:25:54Z</time>
      </trkpt>
      <trkpt lat="48.01274" lon="7.01551">
        <ele>1088.35</ele>
        <time>2022-06-15T10:26:11Z</time>
      </trkpt>
      <trkpt lat="48.01259" lon="7.0154">
        <ele>1089.79</ele>
        <time>2022-06-15T10:26:26Z</time>
      </trkpt>
      <trkpt lat="48.01242" lon="7.01522">
        <ele>1089.79</ele>
        <time>2022-06-15T10:26:43Z</time>
      </trkpt>
      <trkpt lat="48.01227" lon="7.01495">
        <ele>1090.75</ele>
        <time>2022-06-15T10:27:00Z</time>
      </trkpt>
      <trkpt lat="48.01221" lon="7.01476">
        <ele>1091.23</ele>
        <time>2022-06-15T10:27:13Z</time>
      </trkpt>
      <trkpt lat="48.01217" lon="7.01443">
        <ele>1091.23</ele>
        <time>2022-06-15T10:27:32Z</time>
      </trkpt>
      <trkpt lat="48.01214" lon="7.01413">
        <ele>1091.23</ele>
        <time>2022-06-15T10:27:48Z</time>
      </trkpt>
      <trkpt lat="48.0121" lon="7.014">
        <ele>1090.27</ele>
        <time>2022-06-15T10:27:57Z</time>
      </trkpt>
      <trkpt lat="48.01211" lon="7.01378">
        <ele>1092.68</ele>
        <time>2022-06-15T10:28:13Z</time>
      </trkpt>
      <trkpt lat="48.01208" lon="7.0136">
        <ele>1093.64</ele>
        <time>2022-06-15T10:28:27Z</time>
      </trkpt>
      <trkpt lat="48.01211" lon="7.01339">
        <ele>1095.08</ele>
        <time>2022-06-15T10:28:42Z</time>
      </trkpt>
      <trkpt lat="48.01211" lon="7.01319">
        <ele>1096.04</ele>
        <time>2022-06-15T10:28:56Z</time>
      </trkpt>
      <trkpt lat="48.01213" lon="7.01297">
        <ele>1097</ele>
        <time>2022-06-15T10:29:11Z</time>
      </trkpt>
      <trkpt lat="48.01219" lon="7.01275">
        <ele>1097.96</ele>
        <time>2022-06-15T10:29:27Z</time>
      </trkpt>
      <trkpt lat="48.01229" lon="7.01247">
        <ele>1099.89</ele>
        <time>2022-06-15T10:29:45Z</time>
      </trkpt>
      <trkpt lat="48.01238" lon="7.01235">
        <ele>1098.92</ele>
        <time>2022-06-15T10:30:00Z</time>
      </trkpt>
      <trkpt lat="48.01242" lon="7.0122">
        <ele>1095.56</ele>
        <time>2022-06-15T10:30:13Z</time>
      </trkpt>
      <trkpt lat="48.01244" lon="7.01208">
        <ele>1093.16</ele>
        <time>2022-06-15T10:30:24Z</time>
      </trkpt>
      <trkpt lat="48.01246" lon="7.01193">
        <ele>1090.27</ele>
        <time>2022-06-15T10:30:36Z</time>
      </trkpt>
      <trkpt lat="48.01247" lon="7.01182">
        <ele>1086.43</ele>
        <time>2022-06-15T10:30:49Z</time>
      </trkpt>
      <trkpt lat="48.01243" lon="7.01177">
        <ele>1084.02</ele>
        <time>2022-06-15T10:31:04Z</time>
      </trkpt>
      <trkpt lat="48.01245" lon="7.01165">
        <ele>1080.66</ele>
        <time>2022-06-15T10:31:15Z</time>
      </trkpt>
      <trkpt lat="48.01243" lon="7.01157">
        <ele>1077.78</ele>
        <time>2022-06-15T10:31:29Z</time>
      </trkpt>
      <trkpt lat="48.01242" lon="7.01153">
        <ele>1076.81</ele>
        <time>2022-06-15T10:31:33Z</time>
      </trkpt>
      <trkpt lat="48.01241" lon="7.01154">
        <ele>1076.33</ele>
        <time>2022-06-15T10:31:37Z</time>
      </trkpt>
      <trkpt lat="48.01241" lon="7.01154">
        <ele>1076.33</ele>
        <time>2022-06-15T10:31:39Z</time>
      </trkpt>
      <trkpt lat="48.01235" lon="7.01158">
        <ele>1072.97</ele>
        <time>2022-06-15T10:31:52Z</time>
      </trkpt>
      <trkpt lat="48.01236" lon="7.01153">
        <ele>1071.53</ele>
        <time>2022-06-15T10:32:05Z</time>
      </trkpt>
      <trkpt lat="48.01243" lon="7.01146">
        <ele>1070.08</ele>
        <time>2022-06-15T10:32:21Z</time>
      </trkpt>
      <trkpt lat="48.01249" lon="7.01128">
        <ele>1068.64</ele>
        <time>2022-06-15T10:32:38Z</time>
      </trkpt>
      <trkpt lat="48.01255" lon="7.01112">
        <ele>1067.2</ele>
        <time>2022-06-15T10:32:51Z</time>
      </trkpt>
      <trkpt lat="48.01261" lon="7.01096">
        <ele>1066.24</ele>
        <time>2022-06-15T10:33:04Z</time>
      </trkpt>
      <trkpt lat="48.01271" lon="7.01085">
        <ele>1066.24</ele>
        <time>2022-06-15T10:33:20Z</time>
      </trkpt>
      <trkpt lat="48.0128" lon="7.01079">
        <ele>1065.76</ele>
        <time>2022-06-15T10:33:33Z</time>
      </trkpt>
      <trkpt lat="48.01281" lon="7.01069">
        <ele>1065.28</ele>
        <time>2022-06-15T10:33:48Z</time>
      </trkpt>
      <trkpt lat="48.01286" lon="7.0104">
        <ele>1064.8</ele>
        <time>2022-06-15T10:34:03Z</time>
      </trkpt>
      <trkpt lat="48.01284" lon="7.01028">
        <ele>1063.84</ele>
        <time>2022-06-15T10:34:20Z</time>
      </trkpt>
      <trkpt lat="48.01288" lon="7.01009">
        <ele>1061.43</ele>
        <time>2022-06-15T10:34:35Z</time>
      </trkpt>
      <trkpt lat="48.0129" lon="7.00996">
        <ele>1059.51</ele>
        <time>2022-06-15T10:34:46Z</time>
      </trkpt>
      <trkpt lat="48.01294" lon="7.00984">
        <ele>1059.03</ele>
        <time>2022-06-15T10:35:01Z</time>
      </trkpt>
      <trkpt lat="48.01297" lon="7.0097">
        <ele>1058.07</ele>
        <time>2022-06-15T10:35:19Z</time>
      </trkpt>
      <trkpt lat="48.01309" lon="7.00944">
        <ele>1056.15</ele>
        <time>2022-06-15T10:35:36Z</time>
      </trkpt>
      <trkpt lat="48.01315" lon="7.00929">
        <ele>1055.67</ele>
        <time>2022-06-15T10:35:50Z</time>
      </trkpt>
      <trkpt lat="48.01325" lon="7.00916">
        <ele>1054.22</ele>
        <time>2022-06-15T10:36:04Z</time>
      </trkpt>
      <trkpt lat="48.01337" lon="7.00898">
        <ele>1053.26</ele>
        <time>2022-06-15T10:36:19Z</time>
      </trkpt>
      <trkpt lat="48.01356" lon="7.00888">
        <ele>1050.86</ele>
        <time>2022-06-15T10:36:38Z</time>
      </trkpt>
      <trkpt lat="48.01343" lon="7.00886">
        <ele>1050.86</ele>
        <time>2022-06-15T10:36:58Z</time>
      </trkpt>
      <trkpt lat="48.01342" lon="7.00888">
        <ele>1047.97</ele>
        <time>2022-06-15T10:37:09Z</time>
      </trkpt>
      <trkpt lat="48.01345" lon="7.00879">
        <ele>1045.09</ele>
        <time>2022-06-15T10:37:29Z</time>
      </trkpt>
      <trkpt lat="48.0135" lon="7.0087">
        <ele>1044.61</ele>
        <time>2022-06-15T10:37:42Z</time>
      </trkpt>
      <trkpt lat="48.01345" lon="7.00848">
        <ele>1042.69</ele>
        <time>2022-06-15T10:38:01Z</time>
      </trkpt>
      <trkpt lat="48.01343" lon="7.0084">
        <ele>1042.21</ele>
        <time>2022-06-15T10:38:07Z</time>
      </trkpt>
      <trkpt lat="48.0134" lon="7.00826">
        <ele>1040.28</ele>
        <time>2022-06-15T10:38:22Z</time>
      </trkpt>
      <trkpt lat="48.01336" lon="7.0081">
        <ele>1037.88</ele>
        <time>2022-06-15T10:38:36Z</time>
      </trkpt>
      <trkpt lat="48.0133" lon="7.00795">
        <ele>1037.4</ele>
        <time>2022-06-15T10:38:51Z</time>
      </trkpt>
      <trkpt lat="48.01325" lon="7.00788">
        <ele>1036.92</ele>
        <time>2022-06-15T10:38:56Z</time>
      </trkpt>
      <trkpt lat="48.01315" lon="7.00764">
        <ele>1035.96</ele>
        <time>2022-06-15T10:39:12Z</time>
      </trkpt>
      <trkpt lat="48.0131" lon="7.00747">
        <ele>1035</ele>
        <time>2022-06-15T10:39:24Z</time>
      </trkpt>
      <trkpt lat="48.01306" lon="7.00729">
        <ele>1033.55</ele>
        <time>2022-06-15T10:39:36Z</time>
      </trkpt>
      <trkpt lat="48.01301" lon="7.00718">
        <ele>1032.11</ele>
        <time>2022-06-15T10:39:49Z</time>
      </trkpt>
      <trkpt lat="48.01298" lon="7.00713">
        <ele>1030.19</ele>
        <time>2022-06-15T10:39:54Z</time>
      </trkpt>
      <trkpt lat="48.01299" lon="7.00699">
        <ele>1028.27</ele>
        <time>2022-06-15T10:40:08Z</time>
      </trkpt>
      <trkpt lat="48.01292" lon="7.00678">
        <ele>1025.86</ele>
        <time>2022-06-15T10:40:24Z</time>
      </trkpt>
      <trkpt lat="48.01299" lon="7.00663">
        <ele>1022.98</ele>
        <time>2022-06-15T10:40:38Z</time>
      </trkpt>
      <trkpt lat="48.01302" lon="7.00644">
        <ele>1019.62</ele>
        <time>2022-06-15T10:40:51Z</time>
      </trkpt>
      <trkpt lat="48.01309" lon="7.00627">
        <ele>1016.25</ele>
        <time>2022-06-15T10:41:06Z</time>
      </trkpt>
      <trkpt lat="48.01315" lon="7.00607">
        <ele>1014.81</ele>
        <time>2022-06-15T10:41:20Z</time>
      </trkpt>
      <trkpt lat="48.01321" lon="7.00594">
        <ele>1011.44</ele>
        <time>2022-06-15T10:41:32Z</time>
      </trkpt>
      <trkpt lat="48.01323" lon="7.00575">
        <ele>1011.44</ele>
        <time>2022-06-15T10:41:48Z</time>
      </trkpt>
      <trkpt lat="48.01324" lon="7.00555">
        <ele>1010</ele>
        <time>2022-06-15T10:42:05Z</time>
      </trkpt>
      <trkpt lat="48.01324" lon="7.00546">
        <ele>1007.12</ele>
        <time>2022-06-15T10:42:21Z</time>
      </trkpt>
      <trkpt lat="48.01331" lon="7.00524">
        <ele>1007.6</ele>
        <time>2022-06-15T10:42:34Z</time>
      </trkpt>
      <trkpt lat="48.01331" lon="7.00508">
        <ele>1005.68</ele>
        <time>2022-06-15T10:42:49Z</time>
      </trkpt>
      <trkpt lat="48.01328" lon="7.00494">
        <ele>1004.23</ele>
        <time>2022-06-15T10:43:03Z</time>
      </trkpt>
      <trkpt lat="48.01331" lon="7.00481">
        <ele>1001.83</ele>
        <time>2022-06-15T10:43:15Z</time>
      </trkpt>
      <trkpt lat="48.01328" lon="7.00473">
        <ele>1000.39</ele>
        <time>2022-06-15T10:43:27Z</time>
      </trkpt>
      <trkpt lat="48.01335" lon="7.00455">
        <ele>1000.39</ele>
        <time>2022-06-15T10:43:41Z</time>
      </trkpt>
      <trkpt lat="48.01347" lon="7.00436">
        <ele>1002.31</ele>
        <time>2022-06-15T10:43:59Z</time>
      </trkpt>
      <trkpt lat="48.01358" lon="7.00412">
        <ele>1002.79</ele>
        <time>2022-06-15T10:44:14Z</time>
      </trkpt>
      <trkpt lat="48.01362" lon="7.00403">
        <ele>1001.83</ele>
        <time>2022-06-15T10:44:28Z</time>
      </trkpt>
      <trkpt lat="48.01364" lon="7.00383">
        <ele>1000.39</ele>
        <time>2022-06-15T10:44:43Z</time>
      </trkpt>
      <trkpt lat="48.01367" lon="7.00363">
        <ele>999.91</ele>
        <time>2022-06-15T10:44:57Z</time>
      </trkpt>
      <trkpt lat="48.01372" lon="7.0034">
        <ele>999.43</ele>
        <time>2022-06-15T10:45:12Z</time>
      </trkpt>
      <trkpt lat="48.0137" lon="7.00326">
        <ele>998.95</ele>
        <time>2022-06-15T10:45:29Z</time>
      </trkpt>
      <trkpt lat="48.01369" lon="7.00313">
        <ele>998.47</ele>
        <time>2022-06-15T10:45:43Z</time>
      </trkpt>
      <trkpt lat="48.01369" lon="7.00312">
        <ele>998.95</ele>
        <time>2022-06-15T10:45:44Z</time>
      </trkpt>
      <trkpt lat="48.01367" lon="7.003">
        <ele>998.47</ele>
        <time>2022-06-15T10:45:55Z</time>
      </trkpt>
      <trkpt lat="48.01362" lon="7.00293">
        <ele>997.02</ele>
        <time>2022-06-15T10:46:09Z</time>
      </trkpt>
      <trkpt lat="48.0136" lon="7.0028">
        <ele>997.51</ele>
        <time>2022-06-15T10:46:25Z</time>
      </trkpt>
      <trkpt lat="48.01358" lon="7.00267">
        <ele>995.58</ele>
        <time>2022-06-15T10:46:42Z</time>
      </trkpt>
      <trkpt lat="48.0135" lon="7.00263">
        <ele>993.18</ele>
        <time>2022-06-15T10:46:56Z</time>
      </trkpt>
      <trkpt lat="48.01344" lon="7.00265">
        <ele>991.74</ele>
        <time>2022-06-15T10:47:10Z</time>
      </trkpt>
      <trkpt lat="48.01339" lon="7.00261">
        <ele>989.33</ele>
        <time>2022-06-15T10:47:26Z</time>
      </trkpt>
      <trkpt lat="48.01326" lon="7.00252">
        <ele>986.93</ele>
        <time>2022-06-15T10:47:42Z</time>
      </trkpt>
      <trkpt lat="48.01316" lon="7.00246">
        <ele>985.97</ele>
        <time>2022-06-15T10:48:00Z</time>
      </trkpt>
      <trkpt lat="48.01308" lon="7.00235">
        <ele>984.05</ele>
        <time>2022-06-15T10:48:18Z</time>
      </trkpt>
      <trkpt lat="48.01295" lon="7.00241">
        <ele>982.12</ele>
        <time>2022-06-15T10:48:35Z</time>
      </trkpt>
      <trkpt lat="48.0129" lon="7.00239">
        <ele>980.2</ele>
        <time>2022-06-15T10:48:49Z</time>
      </trkpt>
      <trkpt lat="48.01282" lon="7.00227">
        <ele>980.2</ele>
        <time>2022-06-15T10:49:08Z</time>
      </trkpt>
      <trkpt lat="48.01278" lon="7.00233">
        <ele>980.2</ele>
        <time>2022-06-15T10:49:32Z</time>
      </trkpt>
      <trkpt lat="48.01274" lon="7.00223">
        <ele>979.72</ele>
        <time>2022-06-15T10:50:00Z</time>
      </trkpt>
      <trkpt lat="48.01279" lon="7.00227">
        <ele>979.72</ele>
        <time>2022-06-15T10:50:25Z</time>
      </trkpt>
      <trkpt lat="48.01278" lon="7.00218">
        <ele>979.72</ele>
        <time>2022-06-15T10:50:51Z</time>
      </trkpt>
      <trkpt lat="48.01278" lon="7.00221">
        <ele>979.72</ele>
        <time>2022-06-15T10:51:14Z</time>
      </trkpt>
      <trkpt lat="48.01269" lon="7.00219">
        <ele>979.72</ele>
        <time>2022-06-15T10:51:42Z</time>
      </trkpt>
      <trkpt lat="48.01271" lon="7.00225">
        <ele>979.24</ele>
        <time>2022-06-15T10:52:07Z</time>
      </trkpt>
      <trkpt lat="48.01272" lon="7.0022">
        <ele>979.24</ele>
        <time>2022-06-15T10:52:36Z</time>
      </trkpt>
      <trkpt lat="48.01283" lon="7.00231">
        <ele>978.76</ele>
        <time>2022-06-15T10:53:05Z</time>
      </trkpt>
      <trkpt lat="48.01277" lon="7.00239">
        <ele>979.24</ele>
        <time>2022-06-15T10:53:36Z</time>
      </trkpt>
      <trkpt lat="48.01281" lon="7.00236">
        <ele>978.76</ele>
        <time>2022-06-15T10:54:04Z</time>
      </trkpt>
      <trkpt lat="48.0128" lon="7.00228">
        <ele>978.28</ele>
        <time>2022-06-15T10:54:29Z</time>
      </trkpt>
      <trkpt lat="48.01277" lon="7.00228">
        <ele>975.88</ele>
        <time>2022-06-15T10:54:48Z</time>
      </trkpt>
      <trkpt lat="48.01273" lon="7.0023">
        <ele>975.88</ele>
        <time>2022-06-15T10:55:19Z</time>
      </trkpt>
      <trkpt lat="48.0127" lon="7.00221">
        <ele>977.32</ele>
        <time>2022-06-15T10:55:38Z</time>
      </trkpt>
      <trkpt lat="48.01268" lon="7.00217">
        <ele>977.32</ele>
        <time>2022-06-15T10:55:52Z</time>
      </trkpt>
      <trkpt lat="48.01268" lon="7.00219">
        <ele>975.88</ele>
        <time>2022-06-15T10:56:08Z</time>
      </trkpt>
      <trkpt lat="48.0126" lon="7.00223">
        <ele>976.36</ele>
        <time>2022-06-15T10:56:22Z</time>
      </trkpt>
      <trkpt lat="48.01253" lon="7.00215">
        <ele>974.43</ele>
        <time>2022-06-15T10:56:36Z</time>
      </trkpt>
      <trkpt lat="48.01242" lon="7.00208">
        <ele>972.51</ele>
        <time>2022-06-15T10:56:50Z</time>
      </trkpt>
      <trkpt lat="48.01234" lon="7.00208">
        <ele>971.55</ele>
        <time>2022-06-15T10:57:06Z</time>
      </trkpt>
      <trkpt lat="48.01223" lon="7.00209">
        <ele>969.15</ele>
        <time>2022-06-15T10:57:21Z</time>
      </trkpt>
      <trkpt lat="48.01215" lon="7.00195">
        <ele>971.07</ele>
        <time>2022-06-15T10:57:36Z</time>
      </trkpt>
      <trkpt lat="48.01208" lon="7.00183">
        <ele>971.55</ele>
        <time>2022-06-15T10:57:49Z</time>
      </trkpt>
      <trkpt lat="48.01203" lon="7.00188">
        <ele>970.11</ele>
        <time>2022-06-15T10:58:05Z</time>
      </trkpt>
      <trkpt lat="48.01203" lon="7.00189">
        <ele>970.11</ele>
        <time>2022-06-15T10:58:06Z</time>
      </trkpt>
      <trkpt lat="48.01202" lon="7.00189">
        <ele>971.55</ele>
        <time>2022-06-15T10:58:08Z</time>
      </trkpt>
      <trkpt lat="48.0119" lon="7.00192">
        <ele>972.03</ele>
        <time>2022-06-15T10:58:23Z</time>
      </trkpt>
      <trkpt lat="48.01179" lon="7.00193">
        <ele>970.59</ele>
        <time>2022-06-15T10:58:40Z</time>
      </trkpt>
      <trkpt lat="48.01173" lon="7.002">
        <ele>968.67</ele>
        <time>2022-06-15T10:58:50Z</time>
      </trkpt>
      <trkpt lat="48.0116" lon="7.00204">
        <ele>968.18</ele>
        <time>2022-06-15T10:59:06Z</time>
      </trkpt>
      <trkpt lat="48.01148" lon="7.00205">
        <ele>966.74</ele>
        <time>2022-06-15T10:59:21Z</time>
      </trkpt>
      <trkpt lat="48.01135" lon="7.00204">
        <ele>966.74</ele>
        <time>2022-06-15T10:59:36Z</time>
      </trkpt>
      <trkpt lat="48.01125" lon="7.00202">
        <ele>966.74</ele>
        <time>2022-06-15T10:59:43Z</time>
      </trkpt>
      <trkpt lat="48.01108" lon="7.00207">
        <ele>968.18</ele>
        <time>2022-06-15T10:59:58Z</time>
      </trkpt>
      <trkpt lat="48.01097" lon="7.00202">
        <ele>969.63</ele>
        <time>2022-06-15T11:00:13Z</time>
      </trkpt>
      <trkpt lat="48.01084" lon="7.00189">
        <ele>969.63</ele>
        <time>2022-06-15T11:00:29Z</time>
      </trkpt>
      <trkpt lat="48.01071" lon="7.00168">
        <ele>969.63</ele>
        <time>2022-06-15T11:00:47Z</time>
      </trkpt>
      <trkpt lat="48.01061" lon="7.00157">
        <ele>970.59</ele>
        <time>2022-06-15T11:01:02Z</time>
      </trkpt>
      <trkpt lat="48.01053" lon="7.00135">
        <ele>972.99</ele>
        <time>2022-06-15T11:01:18Z</time>
      </trkpt>
      <trkpt lat="48.01049" lon="7.00113">
        <ele>974.43</ele>
        <time>2022-06-15T11:01:35Z</time>
      </trkpt>
      <trkpt lat="48.01042" lon="7.00093">
        <ele>976.36</ele>
        <time>2022-06-15T11:01:52Z</time>
      </trkpt>
      <trkpt lat="48.01038" lon="7.00072">
        <ele>975.88</ele>
        <time>2022-06-15T11:02:08Z</time>
      </trkpt>
      <trkpt lat="48.01038" lon="7.00052">
        <ele>975.88</ele>
        <time>2022-06-15T11:02:22Z</time>
      </trkpt>
      <trkpt lat="48.01031" lon="7.00031">
        <ele>976.36</ele>
        <time>2022-06-15T11:02:35Z</time>
      </trkpt>
      <trkpt lat="48.01029" lon="7.00011">
        <ele>976.36</ele>
        <time>2022-06-15T11:02:50Z</time>
      </trkpt>
      <trkpt lat="48.01028" lon="6.99987">
        <ele>976.36</ele>
        <time>2022-06-15T11:03:06Z</time>
      </trkpt>
      <trkpt lat="48.01028" lon="6.9997">
        <ele>977.32</ele>
        <time>2022-06-15T11:03:18Z</time>
      </trkpt>
      <trkpt lat="48.01025" lon="6.99952">
        <ele>976.36</ele>
        <time>2022-06-15T11:03:33Z</time>
      </trkpt>
      <trkpt lat="48.01023" lon="6.99934">
        <ele>975.39</ele>
        <time>2022-06-15T11:03:46Z</time>
      </trkpt>
      <trkpt lat="48.01019" lon="6.99917">
        <ele>973.95</ele>
        <time>2022-06-15T11:04:01Z</time>
      </trkpt>
      <trkpt lat="48.01016" lon="6.99897">
        <ele>972.03</ele>
        <time>2022-06-15T11:04:18Z</time>
      </trkpt>
      <trkpt lat="48.01021" lon="6.99881">
        <ele>970.59</ele>
        <time>2022-06-15T11:04:32Z</time>
      </trkpt>
      <trkpt lat="48.01033" lon="6.99867">
        <ele>968.67</ele>
        <time>2022-06-15T11:04:48Z</time>
      </trkpt>
      <trkpt lat="48.01037" lon="6.99852">
        <ele>967.22</ele>
        <time>2022-06-15T11:05:02Z</time>
      </trkpt>
      <trkpt lat="48.01045" lon="6.9984">
        <ele>966.26</ele>
        <time>2022-06-15T11:05:14Z</time>
      </trkpt>
      <trkpt lat="48.01047" lon="6.99838">
        <ele>966.26</ele>
        <time>2022-06-15T11:05:17Z</time>
      </trkpt>
      <trkpt lat="48.01058" lon="6.99822">
        <ele>966.26</ele>
        <time>2022-06-15T11:05:31Z</time>
      </trkpt>
      <trkpt lat="48.01063" lon="6.99811">
        <ele>966.74</ele>
        <time>2022-06-15T11:05:45Z</time>
      </trkpt>
      <trkpt lat="48.01075" lon="6.99793">
        <ele>967.22</ele>
        <time>2022-06-15T11:06:01Z</time>
      </trkpt>
      <trkpt lat="48.01093" lon="6.99791">
        <ele>967.22</ele>
        <time>2022-06-15T11:06:16Z</time>
      </trkpt>
      <trkpt lat="48.01112" lon="6.99776">
        <ele>967.22</ele>
        <time>2022-06-15T11:06:41Z</time>
      </trkpt>
      <trkpt lat="48.0111" lon="6.99743">
        <ele>967.22</ele>
        <time>2022-06-15T11:07:16Z</time>
      </trkpt>
      <trkpt lat="48.0111" lon="6.99747">
        <ele>967.7</ele>
        <time>2022-06-15T11:07:19Z</time>
      </trkpt>
      <trkpt lat="48.01126" lon="6.99761">
        <ele>967.22</ele>
        <time>2022-06-15T11:07:34Z</time>
      </trkpt>
      <trkpt lat="48.0113" lon="6.99757">
        <ele>968.18</ele>
        <time>2022-06-15T11:07:55Z</time>
      </trkpt>
      <trkpt lat="48.01132" lon="6.99741">
        <ele>966.26</ele>
        <time>2022-06-15T11:08:13Z</time>
      </trkpt>
      <trkpt lat="48.01133" lon="6.99739">
        <ele>964.82</ele>
        <time>2022-06-15T11:08:15Z</time>
      </trkpt>
      <trkpt lat="48.01132" lon="6.99745">
        <ele>964.82</ele>
        <time>2022-06-15T11:08:31Z</time>
      </trkpt>
      <trkpt lat="48.01128" lon="6.99753">
        <ele>964.34</ele>
        <time>2022-06-15T11:08:51Z</time>
      </trkpt>
      <trkpt lat="48.01131" lon="6.99742">
        <ele>963.38</ele>
        <time>2022-06-15T11:09:08Z</time>
      </trkpt>
      <trkpt lat="48.01128" lon="6.99732">
        <ele>956.65</ele>
        <time>2022-06-15T11:09:24Z</time>
      </trkpt>
      <trkpt lat="48.01128" lon="6.99732">
        <ele>963.38</ele>
        <time>2022-06-15T11:09:25Z</time>
      </trkpt>
      <trkpt lat="48.01128" lon="6.99732">
        <ele>963.38</ele>
        <time>2022-06-15T11:09:26Z</time>
      </trkpt>
      <trkpt lat="48.01129" lon="6.99734">
        <ele>961.94</ele>
        <time>2022-06-15T11:09:36Z</time>
      </trkpt>
      <trkpt lat="48.01129" lon="6.99736">
        <ele>966.26</ele>
        <time>2022-06-15T11:09:41Z</time>
      </trkpt>
      <trkpt lat="48.01129" lon="6.99734">
        <ele>962.9</ele>
        <time>2022-06-15T11:09:43Z</time>
      </trkpt>
      <trkpt lat="48.01127" lon="6.99731">
        <ele>961.94</ele>
        <time>2022-06-15T11:09:45Z</time>
      </trkpt>
      <trkpt lat="48.01126" lon="6.99732">
        <ele>964.82</ele>
        <time>2022-06-15T11:09:50Z</time>
      </trkpt>
      <trkpt lat="48.01126" lon="6.99733">
        <ele>963.86</ele>
        <time>2022-06-15T11:09:51Z</time>
      </trkpt>
      <trkpt lat="48.01126" lon="6.99733">
        <ele>962.9</ele>
        <time>2022-06-15T11:09:53Z</time>
      </trkpt>
      <trkpt lat="48.0113" lon="6.99732">
        <ele>961.94</ele>
        <time>2022-06-15T11:10:23Z</time>
      </trkpt>
      <trkpt lat="48.01129" lon="6.99724">
        <ele>962.42</ele>
        <time>2022-06-15T11:10:51Z</time>
      </trkpt>
      <trkpt lat="48.01128" lon="6.9972">
        <ele>961.94</ele>
        <time>2022-06-15T11:11:21Z</time>
      </trkpt>
      <trkpt lat="48.01128" lon="6.99715">
        <ele>961.94</ele>
        <time>2022-06-15T11:11:56Z</time>
      </trkpt>
      <trkpt lat="48.01125" lon="6.99715">
        <ele>961.94</ele>
        <time>2022-06-15T11:12:17Z</time>
      </trkpt>
      <trkpt lat="48.01127" lon="6.99727">
        <ele>961.46</ele>
        <time>2022-06-15T11:12:45Z</time>
      </trkpt>
      <trkpt lat="48.0113" lon="6.99732">
        <ele>962.42</ele>
        <time>2022-06-15T11:13:14Z</time>
      </trkpt>
      <trkpt lat="48.0113" lon="6.99728">
        <ele>961.94</ele>
        <time>2022-06-15T11:13:40Z</time>
      </trkpt>
      <trkpt lat="48.01128" lon="6.9973">
        <ele>961.46</ele>
        <time>2022-06-15T11:14:17Z</time>
      </trkpt>
      <trkpt lat="48.01127" lon="6.99726">
        <ele>960.49</ele>
        <time>2022-06-15T11:14:53Z</time>
      </trkpt>
      <trkpt lat="48.01131" lon="6.99733">
        <ele>960.49</ele>
        <time>2022-06-15T11:15:34Z</time>
      </trkpt>
      <trkpt lat="48.01135" lon="6.99739">
        <ele>960.49</ele>
        <time>2022-06-15T11:16:09Z</time>
      </trkpt>
      <trkpt lat="48.01131" lon="6.99734">
        <ele>960.01</ele>
        <time>2022-06-15T11:16:46Z</time>
      </trkpt>
      <trkpt lat="48.01129" lon="6.99732">
        <ele>960.01</ele>
        <time>2022-06-15T11:17:21Z</time>
      </trkpt>
      <trkpt lat="48.01133" lon="6.99736">
        <ele>960.01</ele>
        <time>2022-06-15T11:17:57Z</time>
      </trkpt>
      <trkpt lat="48.01128" lon="6.99737">
        <ele>959.53</ele>
        <time>2022-06-15T11:18:34Z</time>
      </trkpt>
      <trkpt lat="48.01126" lon="6.9973">
        <ele>960.01</ele>
        <time>2022-06-15T11:19:14Z</time>
      </trkpt>
      <trkpt lat="48.01131" lon="6.99732">
        <ele>959.05</ele>
        <time>2022-06-15T11:19:42Z</time>
      </trkpt>
      <trkpt lat="48.01136" lon="6.99741">
        <ele>959.05</ele>
        <time>2022-06-15T11:20:14Z</time>
      </trkpt>
      <trkpt lat="48.01133" lon="6.99732">
        <ele>959.05</ele>
        <time>2022-06-15T11:20:51Z</time>
      </trkpt>
      <trkpt lat="48.01123" lon="6.99738">
        <ele>959.05</ele>
        <time>2022-06-15T11:21:24Z</time>
      </trkpt>
      <trkpt lat="48.0112" lon="6.99728">
        <ele>959.53</ele>
        <time>2022-06-15T11:21:54Z</time>
      </trkpt>
      <trkpt lat="48.01124" lon="6.9973">
        <ele>958.57</ele>
        <time>2022-06-15T11:22:34Z</time>
      </trkpt>
      <trkpt lat="48.01129" lon="6.99736">
        <ele>958.57</ele>
        <time>2022-06-15T11:23:06Z</time>
      </trkpt>
      <trkpt lat="48.0112" lon="6.99725">
        <ele>958.09</ele>
        <time>2022-06-15T11:23:44Z</time>
      </trkpt>
      <trkpt lat="48.01126" lon="6.99731">
        <ele>958.57</ele>
        <time>2022-06-15T11:24:25Z</time>
      </trkpt>
      <trkpt lat="48.01132" lon="6.99741">
        <ele>958.09</ele>
        <time>2022-06-15T11:25:00Z</time>
      </trkpt>
      <trkpt lat="48.01134" lon="6.99742">
        <ele>957.61</ele>
        <time>2022-06-15T11:25:35Z</time>
      </trkpt>
      <trkpt lat="48.01127" lon="6.99735">
        <ele>958.09</ele>
        <time>2022-06-15T11:26:13Z</time>
      </trkpt>
      <trkpt lat="48.01134" lon="6.99738">
        <ele>957.61</ele>
        <time>2022-06-15T11:26:47Z</time>
      </trkpt>
      <trkpt lat="48.01128" lon="6.99731">
        <ele>958.09</ele>
        <time>2022-06-15T11:27:23Z</time>
      </trkpt>
      <trkpt lat="48.01127" lon="6.99742">
        <ele>957.61</ele>
        <time>2022-06-15T11:27:58Z</time>
      </trkpt>
      <trkpt lat="48.01128" lon="6.99737">
        <ele>957.61</ele>
        <time>2022-06-15T11:28:23Z</time>
      </trkpt>
      <trkpt lat="48.01134" lon="6.99742">
        <ele>956.65</ele>
        <time>2022-06-15T11:28:52Z</time>
      </trkpt>
      <trkpt lat="48.01134" lon="6.99735">
        <ele>957.13</ele>
        <time>2022-06-15T11:29:21Z</time>
      </trkpt>
      <trkpt lat="48.01128" lon="6.99738">
        <ele>950.88</ele>
        <time>2022-06-15T11:29:54Z</time>
      </trkpt>
      <trkpt lat="48.01127" lon="6.99739">
        <ele>955.69</ele>
        <time>2022-06-15T11:29:55Z</time>
      </trkpt>
      <trkpt lat="48.01127" lon="6.9974">
        <ele>957.13</ele>
        <time>2022-06-15T11:29:57Z</time>
      </trkpt>
      <trkpt lat="48.01122" lon="6.9972">
        <ele>956.17</ele>
        <time>2022-06-15T11:30:25Z</time>
      </trkpt>
      <trkpt lat="48.01121" lon="6.99711">
        <ele>956.65</ele>
        <time>2022-06-15T11:31:00Z</time>
      </trkpt>
      <trkpt lat="48.01126" lon="6.99718">
        <ele>955.69</ele>
        <time>2022-06-15T11:31:31Z</time>
      </trkpt>
      <trkpt lat="48.01123" lon="6.99714">
        <ele>956.17</ele>
        <time>2022-06-15T11:31:59Z</time>
      </trkpt>
      <trkpt lat="48.01126" lon="6.99716">
        <ele>956.17</ele>
        <time>2022-06-15T11:32:25Z</time>
      </trkpt>
      <trkpt lat="48.01127" lon="6.99712">
        <ele>956.17</ele>
        <time>2022-06-15T11:32:52Z</time>
      </trkpt>
      <trkpt lat="48.01126" lon="6.99714">
        <ele>956.17</ele>
        <time>2022-06-15T11:33:21Z</time>
      </trkpt>
      <trkpt lat="48.01126" lon="6.99726">
        <ele>956.17</ele>
        <time>2022-06-15T11:33:48Z</time>
      </trkpt>
      <trkpt lat="48.01123" lon="6.99727">
        <ele>956.65</ele>
        <time>2022-06-15T11:34:23Z</time>
      </trkpt>
      <trkpt lat="48.0112" lon="6.99715">
        <ele>956.17</ele>
        <time>2022-06-15T11:34:51Z</time>
      </trkpt>
      <trkpt lat="48.0112" lon="6.99712">
        <ele>956.17</ele>
        <time>2022-06-15T11:35:23Z</time>
      </trkpt>
      <trkpt lat="48.0112" lon="6.99719">
        <ele>956.65</ele>
        <time>2022-06-15T11:35:57Z</time>
      </trkpt>
      <trkpt lat="48.01124" lon="6.99723">
        <ele>956.17</ele>
        <time>2022-06-15T11:36:27Z</time>
      </trkpt>
      <trkpt lat="48.01122" lon="6.99728">
        <ele>956.65</ele>
        <time>2022-06-15T11:36:55Z</time>
      </trkpt>
      <trkpt lat="48.01128" lon="6.99732">
        <ele>956.17</ele>
        <time>2022-06-15T11:37:26Z</time>
      </trkpt>
      <trkpt lat="48.01124" lon="6.99727">
        <ele>956.17</ele>
        <time>2022-06-15T11:38:05Z</time>
      </trkpt>
      <trkpt lat="48.0112" lon="6.99723">
        <ele>956.65</ele>
        <time>2022-06-15T11:38:38Z</time>
      </trkpt>
      <trkpt lat="48.01098" lon="6.9968">
        <ele>956.17</ele>
        <time>2022-06-15T11:39:11Z</time>
      </trkpt>
      <trkpt lat="48.01089" lon="6.99656">
        <ele>956.65</ele>
        <time>2022-06-15T11:39:39Z</time>
      </trkpt>
      <trkpt lat="48.011" lon="6.99678">
        <ele>956.65</ele>
        <time>2022-06-15T11:40:03Z</time>
      </trkpt>
      <trkpt lat="48.01113" lon="6.99691">
        <ele>956.65</ele>
        <time>2022-06-15T11:40:38Z</time>
      </trkpt>
      <trkpt lat="48.01114" lon="6.99696">
        <ele>957.13</ele>
        <time>2022-06-15T11:41:06Z</time>
      </trkpt>
      <trkpt lat="48.01123" lon="6.99721">
        <ele>957.61</ele>
        <time>2022-06-15T11:41:34Z</time>
      </trkpt>
      <trkpt lat="48.0112" lon="6.99722">
        <ele>956.17</ele>
        <time>2022-06-15T11:41:38Z</time>
      </trkpt>
      <trkpt lat="48.0112" lon="6.99722">
        <ele>957.61</ele>
        <time>2022-06-15T11:41:40Z</time>
      </trkpt>
      <trkpt lat="48.01121" lon="6.99725">
        <ele>957.13</ele>
        <time>2022-06-15T11:42:08Z</time>
      </trkpt>
      <trkpt lat="48.01117" lon="6.99718">
        <ele>957.13</ele>
        <time>2022-06-15T11:42:42Z</time>
      </trkpt>
      <trkpt lat="48.01123" lon="6.99719">
        <ele>957.13</ele>
        <time>2022-06-15T11:43:16Z</time>
      </trkpt>
      <trkpt lat="48.0112" lon="6.99723">
        <ele>957.13</ele>
        <time>2022-06-15T11:43:49Z</time>
      </trkpt>
      <trkpt lat="48.01123" lon="6.99722">
        <ele>957.61</ele>
        <time>2022-06-15T11:44:19Z</time>
      </trkpt>
      <trkpt lat="48.01122" lon="6.99728">
        <ele>958.09</ele>
        <time>2022-06-15T11:44:38Z</time>
      </trkpt>
      <trkpt lat="48.01124" lon="6.99741">
        <ele>958.09</ele>
        <time>2022-06-15T11:44:56Z</time>
      </trkpt>
      <trkpt lat="48.01129" lon="6.9974">
        <ele>960.49</ele>
        <time>2022-06-15T11:45:12Z</time>
      </trkpt>
      <trkpt lat="48.01133" lon="6.99742">
        <ele>960.01</ele>
        <time>2022-06-15T11:45:30Z</time>
      </trkpt>
      <trkpt lat="48.0112" lon="6.99743">
        <ele>959.53</ele>
        <time>2022-06-15T11:45:45Z</time>
      </trkpt>
      <trkpt lat="48.01109" lon="6.99732">
        <ele>959.53</ele>
        <time>2022-06-15T11:46:00Z</time>
      </trkpt>
      <trkpt lat="48.01102" lon="6.99744">
        <ele>959.53</ele>
        <time>2022-06-15T11:46:25Z</time>
      </trkpt>
      <trkpt lat="48.01101" lon="6.99745">
        <ele>959.53</ele>
        <time>2022-06-15T11:46:26Z</time>
      </trkpt>
      <trkpt lat="48.01091" lon="6.99747">
        <ele>959.05</ele>
        <time>2022-06-15T11:46:46Z</time>
      </trkpt>
      <trkpt lat="48.0109" lon="6.99749">
        <ele>959.53</ele>
        <time>2022-06-15T11:47:11Z</time>
      </trkpt>
      <trkpt lat="48.01097" lon="6.99789">
        <ele>959.05</ele>
        <time>2022-06-15T11:47:42Z</time>
      </trkpt>
      <trkpt lat="48.01095" lon="6.99794">
        <ele>959.53</ele>
        <time>2022-06-15T11:48:07Z</time>
      </trkpt>
      <trkpt lat="48.01087" lon="6.99779">
        <ele>957.61</ele>
        <time>2022-06-15T11:48:29Z</time>
      </trkpt>
      <trkpt lat="48.01094" lon="6.99776">
        <ele>955.69</ele>
        <time>2022-06-15T11:48:42Z</time>
      </trkpt>
      <trkpt lat="48.01078" lon="6.99766">
        <ele>953.28</ele>
        <time>2022-06-15T11:48:58Z</time>
      </trkpt>
      <trkpt lat="48.01073" lon="6.99778">
        <ele>950.4</ele>
        <time>2022-06-15T11:49:15Z</time>
      </trkpt>
      <trkpt lat="48.01073" lon="6.99784">
        <ele>947.52</ele>
        <time>2022-06-15T11:49:32Z</time>
      </trkpt>
      <trkpt lat="48.01067" lon="6.99798">
        <ele>944.15</ele>
        <time>2022-06-15T11:49:49Z</time>
      </trkpt>
      <trkpt lat="48.01061" lon="6.99808">
        <ele>942.23</ele>
        <time>2022-06-15T11:50:04Z</time>
      </trkpt>
      <trkpt lat="48.01022" lon="6.9981">
        <ele>938.86</ele>
        <time>2022-06-15T11:50:20Z</time>
      </trkpt>
      <trkpt lat="48.01003" lon="6.99821">
        <ele>935.98</ele>
        <time>2022-06-15T11:50:37Z</time>
      </trkpt>
      <trkpt lat="48.00999" lon="6.99825">
        <ele>934.54</ele>
        <time>2022-06-15T11:50:43Z</time>
      </trkpt>
      <trkpt lat="48.0098" lon="6.99834">
        <ele>932.62</ele>
        <time>2022-06-15T11:51:00Z</time>
      </trkpt>
      <trkpt lat="48.00968" lon="6.99845">
        <ele>929.25</ele>
        <time>2022-06-15T11:51:15Z</time>
      </trkpt>
      <trkpt lat="48.00955" lon="6.99864">
        <ele>926.37</ele>
        <time>2022-06-15T11:51:33Z</time>
      </trkpt>
      <trkpt lat="48.00943" lon="6.99882">
        <ele>923.48</ele>
        <time>2022-06-15T11:51:52Z</time>
      </trkpt>
      <trkpt lat="48.00928" lon="6.99877">
        <ele>920.6</ele>
        <time>2022-06-15T11:52:12Z</time>
      </trkpt>
      <trkpt lat="48.00911" lon="6.99888">
        <ele>918.2</ele>
        <time>2022-06-15T11:52:29Z</time>
      </trkpt>
      <trkpt lat="48.00896" lon="6.99892">
        <ele>915.31</ele>
        <time>2022-06-15T11:52:44Z</time>
      </trkpt>
      <trkpt lat="48.00887" lon="6.99907">
        <ele>912.91</ele>
        <time>2022-06-15T11:53:03Z</time>
      </trkpt>
      <trkpt lat="48.00889" lon="6.99966">
        <ele>911.47</ele>
        <time>2022-06-15T11:53:19Z</time>
      </trkpt>
      <trkpt lat="48.00884" lon="6.9997">
        <ele>909.54</ele>
        <time>2022-06-15T11:53:36Z</time>
      </trkpt>
      <trkpt lat="48.00871" lon="6.99981">
        <ele>906.66</ele>
        <time>2022-06-15T11:53:54Z</time>
      </trkpt>
      <trkpt lat="48.00868" lon="6.99981">
        <ele>904.26</ele>
        <time>2022-06-15T11:54:11Z</time>
      </trkpt>
      <trkpt lat="48.00861" lon="7.00001">
        <ele>903.3</ele>
        <time>2022-06-15T11:54:29Z</time>
      </trkpt>
      <trkpt lat="48.00829" lon="7.00028">
        <ele>900.41</ele>
        <time>2022-06-15T11:54:46Z</time>
      </trkpt>
      <trkpt lat="48.00808" lon="7.00027">
        <ele>898.49</ele>
        <time>2022-06-15T11:55:05Z</time>
      </trkpt>
      <trkpt lat="48.0078" lon="7.00024">
        <ele>896.09</ele>
        <time>2022-06-15T11:55:23Z</time>
      </trkpt>
      <trkpt lat="48.00753" lon="7.0003">
        <ele>894.64</ele>
        <time>2022-06-15T11:55:39Z</time>
      </trkpt>
      <trkpt lat="48.00736" lon="7.00029">
        <ele>892.24</ele>
        <time>2022-06-15T11:55:55Z</time>
      </trkpt>
      <trkpt lat="48.00715" lon="7.00038">
        <ele>890.32</ele>
        <time>2022-06-15T11:56:15Z</time>
      </trkpt>
      <trkpt lat="48.00695" lon="7.00035">
        <ele>888.4</ele>
        <time>2022-06-15T11:56:32Z</time>
      </trkpt>
      <trkpt lat="48.00688" lon="7.00034">
        <ele>886.47</ele>
        <time>2022-06-15T11:56:45Z</time>
      </trkpt>
      <trkpt lat="48.0068" lon="7.00047">
        <ele>885.03</ele>
        <time>2022-06-15T11:57:02Z</time>
      </trkpt>
      <trkpt lat="48.00636" lon="7.00044">
        <ele>883.59</ele>
        <time>2022-06-15T11:57:20Z</time>
      </trkpt>
      <trkpt lat="48.0062" lon="7.00048">
        <ele>881.19</ele>
        <time>2022-06-15T11:57:35Z</time>
      </trkpt>
      <trkpt lat="48.00608" lon="7.00089">
        <ele>880.22</ele>
        <time>2022-06-15T11:57:52Z</time>
      </trkpt>
      <trkpt lat="48.00594" lon="7.00061">
        <ele>880.22</ele>
        <time>2022-06-15T11:58:27Z</time>
      </trkpt>
      <trkpt lat="48.00603" lon="7.00084">
        <ele>880.22</ele>
        <time>2022-06-15T11:59:02Z</time>
      </trkpt>
      <trkpt lat="48.00603" lon="7.00092">
        <ele>878.78</ele>
        <time>2022-06-15T11:59:17Z</time>
      </trkpt>
      <trkpt lat="48.0059" lon="7.00086">
        <ele>875.9</ele>
        <time>2022-06-15T11:59:32Z</time>
      </trkpt>
      <trkpt lat="48.00572" lon="7.00081">
        <ele>872.53</ele>
        <time>2022-06-15T11:59:46Z</time>
      </trkpt>
      <trkpt lat="48.00564" lon="7.00088">
        <ele>869.17</ele>
        <time>2022-06-15T12:00:00Z</time>
      </trkpt>
      <trkpt lat="48.00552" lon="7.0009">
        <ele>866.29</ele>
        <time>2022-06-15T12:00:12Z</time>
      </trkpt>
      <trkpt lat="48.00537" lon="7.00086">
        <ele>863.4</ele>
        <time>2022-06-15T12:00:26Z</time>
      </trkpt>
      <trkpt lat="48.00526" lon="7.00077">
        <ele>861</ele>
        <time>2022-06-15T12:00:39Z</time>
      </trkpt>
      <trkpt lat="48.00512" lon="7.00059">
        <ele>859.08</ele>
        <time>2022-06-15T12:00:50Z</time>
      </trkpt>
      <trkpt lat="48.00512" lon="7.00041">
        <ele>857.15</ele>
        <time>2022-06-15T12:01:03Z</time>
      </trkpt>
      <trkpt lat="48.00517" lon="7.00037">
        <ele>853.79</ele>
        <time>2022-06-15T12:01:16Z</time>
      </trkpt>
      <trkpt lat="48.00525" lon="7.00025">
        <ele>851.87</ele>
        <time>2022-06-15T12:01:31Z</time>
      </trkpt>
      <trkpt lat="48.00517" lon="7.00031">
        <ele>848.5</ele>
        <time>2022-06-15T12:01:47Z</time>
      </trkpt>
      <trkpt lat="48.00506" lon="7.0004">
        <ele>845.14</ele>
        <time>2022-06-15T12:02:02Z</time>
      </trkpt>
      <trkpt lat="48.00502" lon="7.0004">
        <ele>842.73</ele>
        <time>2022-06-15T12:02:14Z</time>
      </trkpt>
      <trkpt lat="48.00479" lon="7.00045">
        <ele>839.85</ele>
        <time>2022-06-15T12:02:28Z</time>
      </trkpt>
      <trkpt lat="48.00458" lon="7.00043">
        <ele>836.48</ele>
        <time>2022-06-15T12:02:44Z</time>
      </trkpt>
      <trkpt lat="48.0045" lon="7.00054">
        <ele>833.6</ele>
        <time>2022-06-15T12:02:57Z</time>
      </trkpt>
      <trkpt lat="48.00438" lon="7.00054">
        <ele>831.2</ele>
        <time>2022-06-15T12:03:12Z</time>
      </trkpt>
      <trkpt lat="48.00423" lon="7.00057">
        <ele>828.31</ele>
        <time>2022-06-15T12:03:23Z</time>
      </trkpt>
      <trkpt lat="48.00416" lon="7.00063">
        <ele>824.95</ele>
        <time>2022-06-15T12:03:36Z</time>
      </trkpt>
      <trkpt lat="48.00398" lon="7.00077">
        <ele>823.03</ele>
        <time>2022-06-15T12:03:53Z</time>
      </trkpt>
      <trkpt lat="48.00393" lon="7.00073">
        <ele>821.1</ele>
        <time>2022-06-15T12:04:16Z</time>
      </trkpt>
      <trkpt lat="48.00399" lon="7.00077">
        <ele>819.66</ele>
        <time>2022-06-15T12:04:29Z</time>
      </trkpt>
      <trkpt lat="48.0041" lon="7.00085">
        <ele>819.66</ele>
        <time>2022-06-15T12:04:47Z</time>
      </trkpt>
      <trkpt lat="48.00412" lon="7.00088">
        <ele>818.7</ele>
        <time>2022-06-15T12:04:52Z</time>
      </trkpt>
      <trkpt lat="48.00402" lon="7.0011">
        <ele>817.26</ele>
        <time>2022-06-15T12:05:09Z</time>
      </trkpt>
      <trkpt lat="48.00381" lon="7.00122">
        <ele>814.37</ele>
        <time>2022-06-15T12:05:26Z</time>
      </trkpt>
      <trkpt lat="48.00354" lon="7.0013">
        <ele>811.49</ele>
        <time>2022-06-15T12:05:42Z</time>
      </trkpt>
      <trkpt lat="48.00312" lon="7.00129">
        <ele>810.05</ele>
        <time>2022-06-15T12:05:56Z</time>
      </trkpt>
      <trkpt lat="48.00303" lon="7.00131">
        <ele>809.57</ele>
        <time>2022-06-15T12:06:03Z</time>
      </trkpt>
      <trkpt lat="48.00306" lon="7.00124">
        <ele>807.64</ele>
        <time>2022-06-15T12:06:15Z</time>
      </trkpt>
      <trkpt lat="48.00296" lon="7.00128">
        <ele>808.61</ele>
        <time>2022-06-15T12:06:38Z</time>
      </trkpt>
      <trkpt lat="48.00299" lon="7.00114">
        <ele>806.68</ele>
        <time>2022-06-15T12:06:51Z</time>
      </trkpt>
      <trkpt lat="48.00295" lon="7.00097">
        <ele>803.8</ele>
        <time>2022-06-15T12:07:06Z</time>
      </trkpt>
      <trkpt lat="48.00291" lon="7.00071">
        <ele>802.36</ele>
        <time>2022-06-15T12:07:21Z</time>
      </trkpt>
      <trkpt lat="48.00292" lon="7.00046">
        <ele>800.92</ele>
        <time>2022-06-15T12:07:31Z</time>
      </trkpt>
      <trkpt lat="48.00294" lon="7.00025">
        <ele>798.51</ele>
        <time>2022-06-15T12:07:47Z</time>
      </trkpt>
      <trkpt lat="48.00304" lon="7.0002">
        <ele>796.59</ele>
        <time>2022-06-15T12:08:00Z</time>
      </trkpt>
      <trkpt lat="48.00318" lon="7.00029">
        <ele>795.63</ele>
        <time>2022-06-15T12:08:18Z</time>
      </trkpt>
      <trkpt lat="48.00306" lon="7.00027">
        <ele>792.74</ele>
        <time>2022-06-15T12:08:33Z</time>
      </trkpt>
      <trkpt lat="48.00299" lon="7.00036">
        <ele>791.3</ele>
        <time>2022-06-15T12:08:48Z</time>
      </trkpt>
      <trkpt lat="48.00293" lon="7.00041">
        <ele>789.38</ele>
        <time>2022-06-15T12:08:53Z</time>
      </trkpt>
      <trkpt lat="48.00277" lon="7.00042">
        <ele>787.94</ele>
        <time>2022-06-15T12:09:07Z</time>
      </trkpt>
      <trkpt lat="48.00268" lon="7.00055">
        <ele>784.57</ele>
        <time>2022-06-15T12:09:23Z</time>
      </trkpt>
      <trkpt lat="48.00252" lon="7.00068">
        <ele>782.17</ele>
        <time>2022-06-15T12:09:39Z</time>
      </trkpt>
      <trkpt lat="48.00243" lon="7.0008">
        <ele>778.81</ele>
        <time>2022-06-15T12:09:54Z</time>
      </trkpt>
      <trkpt lat="48.00235" lon="7.00085">
        <ele>775.92</ele>
        <time>2022-06-15T12:10:09Z</time>
      </trkpt>
      <trkpt lat="48.00216" lon="7.00083">
        <ele>773.52</ele>
        <time>2022-06-15T12:10:29Z</time>
      </trkpt>
      <trkpt lat="48.00185" lon="7.00081">
        <ele>770.63</ele>
        <time>2022-06-15T12:10:44Z</time>
      </trkpt>
      <trkpt lat="48.00163" lon="7.00102">
        <ele>767.75</ele>
        <time>2022-06-15T12:11:02Z</time>
      </trkpt>
      <trkpt lat="48.00157" lon="7.00126">
        <ele>765.35</ele>
        <time>2022-06-15T12:11:17Z</time>
      </trkpt>
      <trkpt lat="48.0016" lon="7.00156">
        <ele>762.94</ele>
        <time>2022-06-15T12:11:34Z</time>
      </trkpt>
      <trkpt lat="48.00156" lon="7.00167">
        <ele>759.58</ele>
        <time>2022-06-15T12:11:49Z</time>
      </trkpt>
      <trkpt lat="48.00158" lon="7.00198">
        <ele>756.69</ele>
        <time>2022-06-15T12:12:05Z</time>
      </trkpt>
      <trkpt lat="48.00155" lon="7.00233">
        <ele>755.25</ele>
        <time>2022-06-15T12:12:18Z</time>
      </trkpt>
      <trkpt lat="48.00154" lon="7.00238">
        <ele>754.77</ele>
        <time>2022-06-15T12:12:33Z</time>
      </trkpt>
      <trkpt lat="48.00169" lon="7.00243">
        <ele>754.29</ele>
        <time>2022-06-15T12:12:46Z</time>
      </trkpt>
      <trkpt lat="48.00176" lon="7.0026">
        <ele>755.25</ele>
        <time>2022-06-15T12:13:07Z</time>
      </trkpt>
      <trkpt lat="48.00179" lon="7.0026">
        <ele>755.25</ele>
        <time>2022-06-15T12:13:30Z</time>
      </trkpt>
      <trkpt lat="48.0018" lon="7.00238">
        <ele>756.21</ele>
        <time>2022-06-15T12:13:47Z</time>
      </trkpt>
      <trkpt lat="48.00171" lon="7.00231">
        <ele>756.69</ele>
        <time>2022-06-15T12:13:59Z</time>
      </trkpt>
      <trkpt lat="48.00169" lon="7.00216">
        <ele>757.18</ele>
        <time>2022-06-15T12:14:27Z</time>
      </trkpt>
      <trkpt lat="48.0017" lon="7.00216">
        <ele>757.66</ele>
        <time>2022-06-15T12:14:51Z</time>
      </trkpt>
      <trkpt lat="48.00149" lon="7.00197">
        <ele>758.62</ele>
        <time>2022-06-15T12:15:19Z</time>
      </trkpt>
      <trkpt lat="48.00144" lon="7.00204">
        <ele>758.14</ele>
        <time>2022-06-15T12:15:36Z</time>
      </trkpt>
      <trkpt lat="48.00148" lon="7.0022">
        <ele>758.14</ele>
        <time>2022-06-15T12:16:07Z</time>
      </trkpt>
      <trkpt lat="48.00156" lon="7.00231">
        <ele>758.14</ele>
        <time>2022-06-15T12:16:37Z</time>
      </trkpt>
      <trkpt lat="48.00151" lon="7.00222">
        <ele>758.14</ele>
        <time>2022-06-15T12:17:07Z</time>
      </trkpt>
      <trkpt lat="48.00151" lon="7.00219">
        <ele>757.66</ele>
        <time>2022-06-15T12:17:41Z</time>
      </trkpt>
      <trkpt lat="48.00124" lon="7.00227">
        <ele>758.14</ele>
        <time>2022-06-15T12:18:10Z</time>
      </trkpt>
      <trkpt lat="48.00111" lon="7.00227">
        <ele>756.69</ele>
        <time>2022-06-15T12:18:41Z</time>
      </trkpt>
      <trkpt lat="48.00115" lon="7.00239">
        <ele>756.69</ele>
        <time>2022-06-15T12:19:11Z</time>
      </trkpt>
      <trkpt lat="48.00119" lon="7.00233">
        <ele>757.18</ele>
        <time>2022-06-15T12:19:26Z</time>
      </trkpt>
      <trkpt lat="48.00119" lon="7.00236">
        <ele>756.69</ele>
        <time>2022-06-15T12:19:44Z</time>
      </trkpt>
      <trkpt lat="48.00108" lon="7.00257">
        <ele>756.21</ele>
        <time>2022-06-15T12:20:13Z</time>
      </trkpt>
      <trkpt lat="48.00118" lon="7.00236">
        <ele>755.25</ele>
        <time>2022-06-15T12:20:41Z</time>
      </trkpt>
      <trkpt lat="48.00123" lon="7.00227">
        <ele>754.77</ele>
        <time>2022-06-15T12:21:14Z</time>
      </trkpt>
      <trkpt lat="48.00124" lon="7.00213">
        <ele>754.29</ele>
        <time>2022-06-15T12:21:40Z</time>
      </trkpt>
      <trkpt lat="48.00126" lon="7.00199">
        <ele>754.29</ele>
        <time>2022-06-15T12:22:17Z</time>
      </trkpt>
      <trkpt lat="48.00145" lon="7.00215">
        <ele>753.33</ele>
        <time>2022-06-15T12:22:41Z</time>
      </trkpt>
      <trkpt lat="48.00138" lon="7.00233">
        <ele>753.33</ele>
        <time>2022-06-15T12:22:58Z</time>
      </trkpt>
      <trkpt lat="48.00134" lon="7.00222">
        <ele>754.29</ele>
        <time>2022-06-15T12:23:12Z</time>
      </trkpt>
      <trkpt lat="48.00131" lon="7.00211">
        <ele>756.21</ele>
        <time>2022-06-15T12:23:26Z</time>
      </trkpt>
      <trkpt lat="48.00116" lon="7.002">
        <ele>756.69</ele>
        <time>2022-06-15T12:23:39Z</time>
      </trkpt>
      <trkpt lat="48.00112" lon="7.00184">
        <ele>758.14</ele>
        <time>2022-06-15T12:23:53Z</time>
      </trkpt>
      <trkpt lat="48.0011" lon="7.00171">
        <ele>759.1</ele>
        <time>2022-06-15T12:24:02Z</time>
      </trkpt>
      <trkpt lat="48.001" lon="7.00159">
        <ele>760.54</ele>
        <time>2022-06-15T12:24:16Z</time>
      </trkpt>
      <trkpt lat="48.00096" lon="7.00146">
        <ele>761.98</ele>
        <time>2022-06-15T12:24:31Z</time>
      </trkpt>
      <trkpt lat="48.00085" lon="7.00124">
        <ele>763.42</ele>
        <time>2022-06-15T12:24:44Z</time>
      </trkpt>
      <trkpt lat="48.00081" lon="7.00103">
        <ele>764.87</ele>
        <time>2022-06-15T12:24:57Z</time>
      </trkpt>
      <trkpt lat="48.00084" lon="7.00104">
        <ele>765.35</ele>
        <time>2022-06-15T12:25:15Z</time>
      </trkpt>
      <trkpt lat="48.00089" lon="7.00097">
        <ele>765.35</ele>
        <time>2022-06-15T12:25:28Z</time>
      </trkpt>
      <trkpt lat="48.00093" lon="7.00094">
        <ele>766.31</ele>
        <time>2022-06-15T12:25:42Z</time>
      </trkpt>
      <trkpt lat="48.00094" lon="7.00111">
        <ele>767.75</ele>
        <time>2022-06-15T12:25:57Z</time>
      </trkpt>
      <trkpt lat="48.00093" lon="7.00127">
        <ele>767.27</ele>
        <time>2022-06-15T12:26:11Z</time>
      </trkpt>
      <trkpt lat="48.00086" lon="7.00141">
        <ele>768.23</ele>
        <time>2022-06-15T12:26:23Z</time>
      </trkpt>
      <trkpt lat="48.00072" lon="7.0016">
        <ele>768.71</ele>
        <time>2022-06-15T12:26:35Z</time>
      </trkpt>
      <trkpt lat="48.00054" lon="7.00181">
        <ele>768.71</ele>
        <time>2022-06-15T12:26:47Z</time>
      </trkpt>
      <trkpt lat="48.00049" lon="7.00203">
        <ele>768.71</ele>
        <time>2022-06-15T12:27:01Z</time>
      </trkpt>
      <trkpt lat="48.0004" lon="7.00218">
        <ele>767.27</ele>
        <time>2022-06-15T12:27:13Z</time>
      </trkpt>
      <trkpt lat="48.00038" lon="7.00235">
        <ele>766.31</ele>
        <time>2022-06-15T12:27:29Z</time>
      </trkpt>
      <trkpt lat="48.0003" lon="7.00257">
        <ele>764.87</ele>
        <time>2022-06-15T12:27:43Z</time>
      </trkpt>
      <trkpt lat="48.00016" lon="7.00277">
        <ele>764.39</ele>
        <time>2022-06-15T12:27:58Z</time>
      </trkpt>
      <trkpt lat="48.00018" lon="7.0028">
        <ele>765.83</ele>
        <time>2022-06-15T12:28:12Z</time>
      </trkpt>
      <trkpt lat="48.00013" lon="7.00288">
        <ele>767.75</ele>
        <time>2022-06-15T12:28:26Z</time>
      </trkpt>
      <trkpt lat="48.00013" lon="7.00289">
        <ele>766.31</ele>
        <time>2022-06-15T12:28:29Z</time>
      </trkpt>
      <trkpt lat="47.99997" lon="7.0029">
        <ele>769.19</ele>
        <time>2022-06-15T12:28:41Z</time>
      </trkpt>
      <trkpt lat="47.99997" lon="7.0029">
        <ele>768.71</ele>
        <time>2022-06-15T12:28:42Z</time>
      </trkpt>
      <trkpt lat="47.99985" lon="7.00298">
        <ele>771.11</ele>
        <time>2022-06-15T12:28:55Z</time>
      </trkpt>
      <trkpt lat="47.99977" lon="7.00301">
        <ele>774</ele>
        <time>2022-06-15T12:29:06Z</time>
      </trkpt>
      <trkpt lat="47.99964" lon="7.00304">
        <ele>776.4</ele>
        <time>2022-06-15T12:29:19Z</time>
      </trkpt>
      <trkpt lat="47.99946" lon="7.00304">
        <ele>779.29</ele>
        <time>2022-06-15T12:29:33Z</time>
      </trkpt>
      <trkpt lat="47.99932" lon="7.00306">
        <ele>781.69</ele>
        <time>2022-06-15T12:29:47Z</time>
      </trkpt>
      <trkpt lat="47.99924" lon="7.00303">
        <ele>783.61</ele>
        <time>2022-06-15T12:30:02Z</time>
      </trkpt>
      <trkpt lat="47.99919" lon="7.00297">
        <ele>786.5</ele>
        <time>2022-06-15T12:30:17Z</time>
      </trkpt>
      <trkpt lat="47.99911" lon="7.00296">
        <ele>788.42</ele>
        <time>2022-06-15T12:30:32Z</time>
      </trkpt>
      <trkpt lat="47.99908" lon="7.00303">
        <ele>790.34</ele>
        <time>2022-06-15T12:30:44Z</time>
      </trkpt>
      <trkpt lat="47.999" lon="7.00302">
        <ele>793.22</ele>
        <time>2022-06-15T12:30:59Z</time>
      </trkpt>
      <trkpt lat="47.99893" lon="7.00303">
        <ele>794.67</ele>
        <time>2022-06-15T12:31:09Z</time>
      </trkpt>
      <trkpt lat="47.99886" lon="7.00305">
        <ele>796.59</ele>
        <time>2022-06-15T12:31:25Z</time>
      </trkpt>
      <trkpt lat="47.99881" lon="7.00299">
        <ele>798.03</ele>
        <time>2022-06-15T12:31:37Z</time>
      </trkpt>
      <trkpt lat="47.99872" lon="7.00295">
        <ele>800.44</ele>
        <time>2022-06-15T12:31:53Z</time>
      </trkpt>
      <trkpt lat="47.99863" lon="7.00291">
        <ele>802.84</ele>
        <time>2022-06-15T12:32:07Z</time>
      </trkpt>
      <trkpt lat="47.99859" lon="7.0028">
        <ele>805.72</ele>
        <time>2022-06-15T12:32:21Z</time>
      </trkpt>
      <trkpt lat="47.99854" lon="7.00265">
        <ele>808.61</ele>
        <time>2022-06-15T12:32:37Z</time>
      </trkpt>
      <trkpt lat="47.99855" lon="7.0025">
        <ele>810.53</ele>
        <time>2022-06-15T12:32:51Z</time>
      </trkpt>
      <trkpt lat="47.99847" lon="7.00244">
        <ele>812.45</ele>
        <time>2022-06-15T12:33:06Z</time>
      </trkpt>
      <trkpt lat="47.99847" lon="7.0024">
        <ele>814.37</ele>
        <time>2022-06-15T12:33:21Z</time>
      </trkpt>
      <trkpt lat="47.99845" lon="7.00224">
        <ele>816.78</ele>
        <time>2022-06-15T12:33:34Z</time>
      </trkpt>
      <trkpt lat="47.99844" lon="7.00202">
        <ele>819.18</ele>
        <time>2022-06-15T12:33:48Z</time>
      </trkpt>
      <trkpt lat="47.99837" lon="7.00187">
        <ele>821.58</ele>
        <time>2022-06-15T12:34:03Z</time>
      </trkpt>
      <trkpt lat="47.99829" lon="7.0018">
        <ele>823.51</ele>
        <time>2022-06-15T12:34:17Z</time>
      </trkpt>
      <trkpt lat="47.99827" lon="7.00166">
        <ele>825.43</ele>
        <time>2022-06-15T12:34:31Z</time>
      </trkpt>
      <trkpt lat="47.99824" lon="7.00161">
        <ele>827.83</ele>
        <time>2022-06-15T12:34:44Z</time>
      </trkpt>
      <trkpt lat="47.9982" lon="7.00155">
        <ele>829.76</ele>
        <time>2022-06-15T12:34:58Z</time>
      </trkpt>
      <trkpt lat="47.99815" lon="7.00142">
        <ele>831.68</ele>
        <time>2022-06-15T12:35:14Z</time>
      </trkpt>
      <trkpt lat="47.9982" lon="7.00151">
        <ele>833.6</ele>
        <time>2022-06-15T12:35:27Z</time>
      </trkpt>
      <trkpt lat="47.99823" lon="7.00155">
        <ele>835.52</ele>
        <time>2022-06-15T12:35:44Z</time>
      </trkpt>
      <trkpt lat="47.99818" lon="7.00148">
        <ele>837.45</ele>
        <time>2022-06-15T12:36:01Z</time>
      </trkpt>
      <trkpt lat="47.99812" lon="7.00143">
        <ele>839.85</ele>
        <time>2022-06-15T12:36:16Z</time>
      </trkpt>
      <trkpt lat="47.99806" lon="7.00125">
        <ele>841.77</ele>
        <time>2022-06-15T12:36:35Z</time>
      </trkpt>
      <trkpt lat="47.99808" lon="7.00112">
        <ele>844.18</ele>
        <time>2022-06-15T12:36:50Z</time>
      </trkpt>
      <trkpt lat="47.99805" lon="7.00099">
        <ele>845.14</ele>
        <time>2022-06-15T12:37:07Z</time>
      </trkpt>
      <trkpt lat="47.998" lon="7.00077">
        <ele>846.58</ele>
        <time>2022-06-15T12:37:21Z</time>
      </trkpt>
      <trkpt lat="47.99796" lon="7.00069">
        <ele>848.98</ele>
        <time>2022-06-15T12:37:36Z</time>
      </trkpt>
      <trkpt lat="47.99798" lon="7.00057">
        <ele>850.42</ele>
        <time>2022-06-15T12:37:49Z</time>
      </trkpt>
      <trkpt lat="47.99796" lon="7.00039">
        <ele>852.35</ele>
        <time>2022-06-15T12:38:06Z</time>
      </trkpt>
      <trkpt lat="47.99786" lon="7.00031">
        <ele>854.75</ele>
        <time>2022-06-15T12:38:22Z</time>
      </trkpt>
      <trkpt lat="47.99779" lon="7.0002">
        <ele>856.19</ele>
        <time>2022-06-15T12:38:36Z</time>
      </trkpt>
      <trkpt lat="47.99775" lon="6.99997">
        <ele>857.15</ele>
        <time>2022-06-15T12:38:51Z</time>
      </trkpt>
      <trkpt lat="47.99772" lon="6.99988">
        <ele>858.11</ele>
        <time>2022-06-15T12:39:04Z</time>
      </trkpt>
      <trkpt lat="47.99765" lon="6.99974">
        <ele>860.52</ele>
        <time>2022-06-15T12:39:18Z</time>
      </trkpt>
      <trkpt lat="47.9976" lon="6.99958">
        <ele>862.44</ele>
        <time>2022-06-15T12:39:33Z</time>
      </trkpt>
      <trkpt lat="47.99759" lon="6.99936">
        <ele>863.4</ele>
        <time>2022-06-15T12:39:49Z</time>
      </trkpt>
      <trkpt lat="47.99764" lon="6.99923">
        <ele>864.36</ele>
        <time>2022-06-15T12:40:00Z</time>
      </trkpt>
      <trkpt lat="47.99754" lon="6.99919">
        <ele>866.29</ele>
        <time>2022-06-15T12:40:15Z</time>
      </trkpt>
      <trkpt lat="47.99746" lon="6.99902">
        <ele>867.25</ele>
        <time>2022-06-15T12:40:30Z</time>
      </trkpt>
      <trkpt lat="47.99739" lon="6.99889">
        <ele>868.69</ele>
        <time>2022-06-15T12:40:43Z</time>
      </trkpt>
      <trkpt lat="47.99731" lon="6.99875">
        <ele>870.13</ele>
        <time>2022-06-15T12:40:58Z</time>
      </trkpt>
      <trkpt lat="47.99722" lon="6.99864">
        <ele>871.09</ele>
        <time>2022-06-15T12:41:12Z</time>
      </trkpt>
      <trkpt lat="47.99715" lon="6.9986">
        <ele>872.53</ele>
        <time>2022-06-15T12:41:23Z</time>
      </trkpt>
      <trkpt lat="47.99707" lon="6.99854">
        <ele>874.46</ele>
        <time>2022-06-15T12:41:39Z</time>
      </trkpt>
      <trkpt lat="47.99706" lon="6.99853">
        <ele>874.94</ele>
        <time>2022-06-15T12:41:41Z</time>
      </trkpt>
      <trkpt lat="47.99712" lon="6.99824">
        <ele>875.42</ele>
        <time>2022-06-15T12:41:53Z</time>
      </trkpt>
      <trkpt lat="47.99711" lon="6.99803">
        <ele>876.86</ele>
        <time>2022-06-15T12:42:06Z</time>
      </trkpt>
      <trkpt lat="47.99698" lon="6.998">
        <ele>878.78</ele>
        <time>2022-06-15T12:42:21Z</time>
      </trkpt>
      <trkpt lat="47.99693" lon="6.99799">
        <ele>878.78</ele>
        <time>2022-06-15T12:42:24Z</time>
      </trkpt>
      <trkpt lat="47.99684" lon="6.99789">
        <ele>880.71</ele>
        <time>2022-06-15T12:42:36Z</time>
      </trkpt>
      <trkpt lat="47.99675" lon="6.99762">
        <ele>882.15</ele>
        <time>2022-06-15T12:42:52Z</time>
      </trkpt>
      <trkpt lat="47.99674" lon="6.99754">
        <ele>884.07</ele>
        <time>2022-06-15T12:43:07Z</time>
      </trkpt>
      <trkpt lat="47.99667" lon="6.99752">
        <ele>884.55</ele>
        <time>2022-06-15T12:43:23Z</time>
      </trkpt>
      <trkpt lat="47.99673" lon="6.99734">
        <ele>885.03</ele>
        <time>2022-06-15T12:43:54Z</time>
      </trkpt>
      <trkpt lat="47.99678" lon="6.99755">
        <ele>885.03</ele>
        <time>2022-06-15T12:44:16Z</time>
      </trkpt>
      <trkpt lat="47.99664" lon="6.99749">
        <ele>885.99</ele>
        <time>2022-06-15T12:44:29Z</time>
      </trkpt>
      <trkpt lat="47.99658" lon="6.99734">
        <ele>887.43</ele>
        <time>2022-06-15T12:44:44Z</time>
      </trkpt>
      <trkpt lat="47.99653" lon="6.9971">
        <ele>888.4</ele>
        <time>2022-06-15T12:44:58Z</time>
      </trkpt>
      <trkpt lat="47.99646" lon="6.99697">
        <ele>888.88</ele>
        <time>2022-06-15T12:45:11Z</time>
      </trkpt>
      <trkpt lat="47.99647" lon="6.99692">
        <ele>890.32</ele>
        <time>2022-06-15T12:45:12Z</time>
      </trkpt>
      <trkpt lat="47.99646" lon="6.99674">
        <ele>890.8</ele>
        <time>2022-06-15T12:45:25Z</time>
      </trkpt>
      <trkpt lat="47.99638" lon="6.99657">
        <ele>892.24</ele>
        <time>2022-06-15T12:45:42Z</time>
      </trkpt>
      <trkpt lat="47.99633" lon="6.99634">
        <ele>893.68</ele>
        <time>2022-06-15T12:45:57Z</time>
      </trkpt>
      <trkpt lat="47.99626" lon="6.99627">
        <ele>894.64</ele>
        <time>2022-06-15T12:46:09Z</time>
      </trkpt>
      <trkpt lat="47.99619" lon="6.99616">
        <ele>895.61</ele>
        <time>2022-06-15T12:46:23Z</time>
      </trkpt>
      <trkpt lat="47.99614" lon="6.99595">
        <ele>896.09</ele>
        <time>2022-06-15T12:46:36Z</time>
      </trkpt>
      <trkpt lat="47.99613" lon="6.99572">
        <ele>898.01</ele>
        <time>2022-06-15T12:46:49Z</time>
      </trkpt>
      <trkpt lat="47.99603" lon="6.9954">
        <ele>899.45</ele>
        <time>2022-06-15T12:47:05Z</time>
      </trkpt>
      <trkpt lat="47.99607" lon="6.99541">
        <ele>900.89</ele>
        <time>2022-06-15T12:47:20Z</time>
      </trkpt>
      <trkpt lat="47.9962" lon="6.99537">
        <ele>902.33</ele>
        <time>2022-06-15T12:47:36Z</time>
      </trkpt>
      <trkpt lat="47.9963" lon="6.99545">
        <ele>904.26</ele>
        <time>2022-06-15T12:47:53Z</time>
      </trkpt>
      <trkpt lat="47.9964" lon="6.99556">
        <ele>906.18</ele>
        <time>2022-06-15T12:48:11Z</time>
      </trkpt>
      <trkpt lat="47.99652" lon="6.9957">
        <ele>908.1</ele>
        <time>2022-06-15T12:48:29Z</time>
      </trkpt>
      <trkpt lat="47.99664" lon="6.99572">
        <ele>909.54</ele>
        <time>2022-06-15T12:48:45Z</time>
      </trkpt>
      <trkpt lat="47.99676" lon="6.99576">
        <ele>911.47</ele>
        <time>2022-06-15T12:49:02Z</time>
      </trkpt>
      <trkpt lat="47.99688" lon="6.99584">
        <ele>914.35</ele>
        <time>2022-06-15T12:49:17Z</time>
      </trkpt>
      <trkpt lat="47.99703" lon="6.99597">
        <ele>916.27</ele>
        <time>2022-06-15T12:49:36Z</time>
      </trkpt>
      <trkpt lat="47.99709" lon="6.99602">
        <ele>918.2</ele>
        <time>2022-06-15T12:49:51Z</time>
      </trkpt>
      <trkpt lat="47.99722" lon="6.99616">
        <ele>920.12</ele>
        <time>2022-06-15T12:50:08Z</time>
      </trkpt>
      <trkpt lat="47.99731" lon="6.99629">
        <ele>922.04</ele>
        <time>2022-06-15T12:50:25Z</time>
      </trkpt>
      <trkpt lat="47.99741" lon="6.99643">
        <ele>923.96</ele>
        <time>2022-06-15T12:50:41Z</time>
      </trkpt>
      <trkpt lat="47.99754" lon="6.99654">
        <ele>926.37</ele>
        <time>2022-06-15T12:50:58Z</time>
      </trkpt>
      <trkpt lat="47.99763" lon="6.99663">
        <ele>928.29</ele>
        <time>2022-06-15T12:51:15Z</time>
      </trkpt>
      <trkpt lat="47.99772" lon="6.99677">
        <ele>929.73</ele>
        <time>2022-06-15T12:51:34Z</time>
      </trkpt>
      <trkpt lat="47.99788" lon="6.99695">
        <ele>932.62</ele>
        <time>2022-06-15T12:51:53Z</time>
      </trkpt>
      <trkpt lat="47.99791" lon="6.99706">
        <ele>933.58</ele>
        <time>2022-06-15T12:52:05Z</time>
      </trkpt>
      <trkpt lat="47.99805" lon="6.99722">
        <ele>936.46</ele>
        <time>2022-06-15T12:52:23Z</time>
      </trkpt>
      <trkpt lat="47.99806" lon="6.99721">
        <ele>936.46</ele>
        <time>2022-06-15T12:52:25Z</time>
      </trkpt>
      <trkpt lat="47.99808" lon="6.9971">
        <ele>937.9</ele>
        <time>2022-06-15T12:52:39Z</time>
      </trkpt>
      <trkpt lat="47.99808" lon="6.997">
        <ele>939.35</ele>
        <time>2022-06-15T12:52:52Z</time>
      </trkpt>
      <trkpt lat="47.99806" lon="6.99683">
        <ele>940.31</ele>
        <time>2022-06-15T12:53:05Z</time>
      </trkpt>
      <trkpt lat="47.99805" lon="6.99669">
        <ele>941.75</ele>
        <time>2022-06-15T12:53:17Z</time>
      </trkpt>
      <trkpt lat="47.99802" lon="6.99654">
        <ele>943.67</ele>
        <time>2022-06-15T12:53:31Z</time>
      </trkpt>
      <trkpt lat="47.99801" lon="6.99637">
        <ele>944.63</ele>
        <time>2022-06-15T12:53:44Z</time>
      </trkpt>
      <trkpt lat="47.99798" lon="6.99617">
        <ele>946.56</ele>
        <time>2022-06-15T12:53:58Z</time>
      </trkpt>
      <trkpt lat="47.99795" lon="6.99603">
        <ele>948</ele>
        <time>2022-06-15T12:54:12Z</time>
      </trkpt>
      <trkpt lat="47.99794" lon="6.99588">
        <ele>948.48</ele>
        <time>2022-06-15T12:54:26Z</time>
      </trkpt>
      <trkpt lat="47.99787" lon="6.99548">
        <ele>948.96</ele>
        <time>2022-06-15T12:54:54Z</time>
      </trkpt>
      <trkpt lat="47.99783" lon="6.99559">
        <ele>948.48</ele>
        <time>2022-06-15T12:55:23Z</time>
      </trkpt>
      <trkpt lat="47.99796" lon="6.99553">
        <ele>948</ele>
        <time>2022-06-15T12:56:04Z</time>
      </trkpt>
      <trkpt lat="47.99802" lon="6.99556">
        <ele>948</ele>
        <time>2022-06-15T12:56:44Z</time>
      </trkpt>
      <trkpt lat="47.99796" lon="6.99562">
        <ele>948</ele>
        <time>2022-06-15T12:57:11Z</time>
      </trkpt>
      <trkpt lat="47.99792" lon="6.9958">
        <ele>947.04</ele>
        <time>2022-06-15T12:57:35Z</time>
      </trkpt>
      <trkpt lat="47.99777" lon="6.99577">
        <ele>947.52</ele>
        <time>2022-06-15T12:57:59Z</time>
      </trkpt>
      <trkpt lat="47.99773" lon="6.9956">
        <ele>949.44</ele>
        <time>2022-06-15T12:58:15Z</time>
      </trkpt>
      <trkpt lat="47.99766" lon="6.99553">
        <ele>951.36</ele>
        <time>2022-06-15T12:58:30Z</time>
      </trkpt>
      <trkpt lat="47.99757" lon="6.99541">
        <ele>952.32</ele>
        <time>2022-06-15T12:58:45Z</time>
      </trkpt>
      <trkpt lat="47.99749" lon="6.99519">
        <ele>953.77</ele>
        <time>2022-06-15T12:58:59Z</time>
      </trkpt>
      <trkpt lat="47.99743" lon="6.99501">
        <ele>955.69</ele>
        <time>2022-06-15T12:59:14Z</time>
      </trkpt>
      <trkpt lat="47.99738" lon="6.99486">
        <ele>956.65</ele>
        <time>2022-06-15T12:59:28Z</time>
      </trkpt>
      <trkpt lat="47.99727" lon="6.99475">
        <ele>958.09</ele>
        <time>2022-06-15T12:59:44Z</time>
      </trkpt>
      <trkpt lat="47.99725" lon="6.99463">
        <ele>958.57</ele>
        <time>2022-06-15T12:59:53Z</time>
      </trkpt>
      <trkpt lat="47.99717" lon="6.99451">
        <ele>960.98</ele>
        <time>2022-06-15T13:00:09Z</time>
      </trkpt>
      <trkpt lat="47.99715" lon="6.99448">
        <ele>960.98</ele>
        <time>2022-06-15T13:00:14Z</time>
      </trkpt>
      <trkpt lat="47.99707" lon="6.99436">
        <ele>962.42</ele>
        <time>2022-06-15T13:00:25Z</time>
      </trkpt>
      <trkpt lat="47.99699" lon="6.99412">
        <ele>963.86</ele>
        <time>2022-06-15T13:00:39Z</time>
      </trkpt>
      <trkpt lat="47.9969" lon="6.99397">
        <ele>965.78</ele>
        <time>2022-06-15T13:00:57Z</time>
      </trkpt>
      <trkpt lat="47.99682" lon="6.99381">
        <ele>966.74</ele>
        <time>2022-06-15T13:01:09Z</time>
      </trkpt>
      <trkpt lat="47.99677" lon="6.99366">
        <ele>968.18</ele>
        <time>2022-06-15T13:01:21Z</time>
      </trkpt>
      <trkpt lat="47.99672" lon="6.99353">
        <ele>969.63</ele>
        <time>2022-06-15T13:01:34Z</time>
      </trkpt>
      <trkpt lat="47.99668" lon="6.99339">
        <ele>971.07</ele>
        <time>2022-06-15T13:01:49Z</time>
      </trkpt>
      <trkpt lat="47.99663" lon="6.99325">
        <ele>972.03</ele>
        <time>2022-06-15T13:02:02Z</time>
      </trkpt>
      <trkpt lat="47.9965" lon="6.99311">
        <ele>973.47</ele>
        <time>2022-06-15T13:02:18Z</time>
      </trkpt>
      <trkpt lat="47.99633" lon="6.99298">
        <ele>975.39</ele>
        <time>2022-06-15T13:02:33Z</time>
      </trkpt>
      <trkpt lat="47.99625" lon="6.99302">
        <ele>975.39</ele>
        <time>2022-06-15T13:02:51Z</time>
      </trkpt>
      <trkpt lat="47.99617" lon="6.99281">
        <ele>976.36</ele>
        <time>2022-06-15T13:03:10Z</time>
      </trkpt>
      <trkpt lat="47.99612" lon="6.99273">
        <ele>977.32</ele>
        <time>2022-06-15T13:03:24Z</time>
      </trkpt>
      <trkpt lat="47.99606" lon="6.99262">
        <ele>979.24</ele>
        <time>2022-06-15T13:03:37Z</time>
      </trkpt>
      <trkpt lat="47.99598" lon="6.99254">
        <ele>980.2</ele>
        <time>2022-06-15T13:03:49Z</time>
      </trkpt>
      <trkpt lat="47.99588" lon="6.9924">
        <ele>982.6</ele>
        <time>2022-06-15T13:04:05Z</time>
      </trkpt>
      <trkpt lat="47.99588" lon="6.99228">
        <ele>985.49</ele>
        <time>2022-06-15T13:04:18Z</time>
      </trkpt>
      <trkpt lat="47.99591" lon="6.9923">
        <ele>985.97</ele>
        <time>2022-06-15T13:04:35Z</time>
      </trkpt>
      <trkpt lat="47.99608" lon="6.99234">
        <ele>986.45</ele>
        <time>2022-06-15T13:04:55Z</time>
      </trkpt>
      <trkpt lat="47.99613" lon="6.99236">
        <ele>988.37</ele>
        <time>2022-06-15T13:05:01Z</time>
      </trkpt>
      <trkpt lat="47.99629" lon="6.99239">
        <ele>990.3</ele>
        <time>2022-06-15T13:05:18Z</time>
      </trkpt>
      <trkpt lat="47.99641" lon="6.99241">
        <ele>991.26</ele>
        <time>2022-06-15T13:05:35Z</time>
      </trkpt>
      <trkpt lat="47.99648" lon="6.99241">
        <ele>992.7</ele>
        <time>2022-06-15T13:05:49Z</time>
      </trkpt>
      <trkpt lat="47.99661" lon="6.99245">
        <ele>994.14</ele>
        <time>2022-06-15T13:06:05Z</time>
      </trkpt>
      <trkpt lat="47.99668" lon="6.99244">
        <ele>997.51</ele>
        <time>2022-06-15T13:06:25Z</time>
      </trkpt>
      <trkpt lat="47.99683" lon="6.99266">
        <ele>999.91</ele>
        <time>2022-06-15T13:06:40Z</time>
      </trkpt>
      <trkpt lat="47.99681" lon="6.99262">
        <ele>1000.87</ele>
        <time>2022-06-15T13:06:55Z</time>
      </trkpt>
      <trkpt lat="47.99676" lon="6.99255">
        <ele>1001.83</ele>
        <time>2022-06-15T13:07:08Z</time>
      </trkpt>
      <trkpt lat="47.99667" lon="6.99242">
        <ele>1003.75</ele>
        <time>2022-06-15T13:07:23Z</time>
      </trkpt>
      <trkpt lat="47.99664" lon="6.9924">
        <ele>1004.72</ele>
        <time>2022-06-15T13:07:31Z</time>
      </trkpt>
      <trkpt lat="47.99662" lon="6.99214">
        <ele>1006.16</ele>
        <time>2022-06-15T13:07:49Z</time>
      </trkpt>
      <trkpt lat="47.99674" lon="6.99213">
        <ele>1008.08</ele>
        <time>2022-06-15T13:08:09Z</time>
      </trkpt>
      <trkpt lat="47.99686" lon="6.99214">
        <ele>1009.52</ele>
        <time>2022-06-15T13:08:26Z</time>
      </trkpt>
      <trkpt lat="47.99692" lon="6.99215">
        <ele>1011.44</ele>
        <time>2022-06-15T13:08:43Z</time>
      </trkpt>
      <trkpt lat="47.99708" lon="6.99224">
        <ele>1013.85</ele>
        <time>2022-06-15T13:09:04Z</time>
      </trkpt>
      <trkpt lat="47.99721" lon="6.99228">
        <ele>1014.33</ele>
        <time>2022-06-15T13:09:17Z</time>
      </trkpt>
      <trkpt lat="47.99734" lon="6.99228">
        <ele>1016.25</ele>
        <time>2022-06-15T13:09:35Z</time>
      </trkpt>
      <trkpt lat="47.99743" lon="6.99236">
        <ele>1018.17</ele>
        <time>2022-06-15T13:09:55Z</time>
      </trkpt>
      <trkpt lat="47.99745" lon="6.99236">
        <ele>1019.62</ele>
        <time>2022-06-15T13:09:57Z</time>
      </trkpt>
      <trkpt lat="47.99758" lon="6.99244">
        <ele>1020.58</ele>
        <time>2022-06-15T13:10:11Z</time>
      </trkpt>
      <trkpt lat="47.99776" lon="6.99259">
        <ele>1022.02</ele>
        <time>2022-06-15T13:10:29Z</time>
      </trkpt>
      <trkpt lat="47.9978" lon="6.99262">
        <ele>1023.46</ele>
        <time>2022-06-15T13:10:34Z</time>
      </trkpt>
      <trkpt lat="47.99796" lon="6.99275">
        <ele>1024.9</ele>
        <time>2022-06-15T13:10:49Z</time>
      </trkpt>
      <trkpt lat="47.99809" lon="6.99273">
        <ele>1027.31</ele>
        <time>2022-06-15T13:11:02Z</time>
      </trkpt>
      <trkpt lat="47.9981" lon="6.9926">
        <ele>1030.19</ele>
        <time>2022-06-15T13:11:17Z</time>
      </trkpt>
      <trkpt lat="47.99811" lon="6.99255">
        <ele>1030.67</ele>
        <time>2022-06-15T13:11:26Z</time>
      </trkpt>
      <trkpt lat="47.99818" lon="6.99262">
        <ele>1033.07</ele>
        <time>2022-06-15T13:11:40Z</time>
      </trkpt>
      <trkpt lat="47.9982" lon="6.99255">
        <ele>1034.52</ele>
        <time>2022-06-15T13:11:53Z</time>
      </trkpt>
      <trkpt lat="47.99825" lon="6.99241">
        <ele>1035.96</ele>
        <time>2022-06-15T13:12:09Z</time>
      </trkpt>
      <trkpt lat="47.99832" lon="6.99224">
        <ele>1038.84</ele>
        <time>2022-06-15T13:12:25Z</time>
      </trkpt>
      <trkpt lat="47.99829" lon="6.99214">
        <ele>1040.76</ele>
        <time>2022-06-15T13:12:39Z</time>
      </trkpt>
      <trkpt lat="47.99828" lon="6.99198">
        <ele>1041.73</ele>
        <time>2022-06-15T13:12:52Z</time>
      </trkpt>
      <trkpt lat="47.99821" lon="6.99183">
        <ele>1043.65</ele>
        <time>2022-06-15T13:13:10Z</time>
      </trkpt>
      <trkpt lat="47.99812" lon="6.99177">
        <ele>1044.61</ele>
        <time>2022-06-15T13:13:25Z</time>
      </trkpt>
      <trkpt lat="47.99809" lon="6.99168">
        <ele>1044.61</ele>
        <time>2022-06-15T13:13:39Z</time>
      </trkpt>
      <trkpt lat="47.99819" lon="6.99162">
        <ele>1045.09</ele>
        <time>2022-06-15T13:14:10Z</time>
      </trkpt>
      <trkpt lat="47.99819" lon="6.99163">
        <ele>1043.65</ele>
        <time>2022-06-15T13:14:15Z</time>
      </trkpt>
      <trkpt lat="47.99807" lon="6.99175">
        <ele>1044.61</ele>
        <time>2022-06-15T13:14:39Z</time>
      </trkpt>
      <trkpt lat="47.99801" lon="6.99171">
        <ele>1046.05</ele>
        <time>2022-06-15T13:14:44Z</time>
      </trkpt>
      <trkpt lat="47.99794" lon="6.99151">
        <ele>1048.45</ele>
        <time>2022-06-15T13:14:58Z</time>
      </trkpt>
      <trkpt lat="47.9979" lon="6.99137">
        <ele>1051.34</ele>
        <time>2022-06-15T13:15:11Z</time>
      </trkpt>
      <trkpt lat="47.99785" lon="6.9913">
        <ele>1053.26</ele>
        <time>2022-06-15T13:15:26Z</time>
      </trkpt>
      <trkpt lat="47.99779" lon="6.99118">
        <ele>1054.7</ele>
        <time>2022-06-15T13:15:43Z</time>
      </trkpt>
      <trkpt lat="47.99776" lon="6.99101">
        <ele>1057.59</ele>
        <time>2022-06-15T13:15:59Z</time>
      </trkpt>
      <trkpt lat="47.99776" lon="6.991">
        <ele>1058.07</ele>
        <time>2022-06-15T13:16:00Z</time>
      </trkpt>
      <trkpt lat="47.99774" lon="6.99091">
        <ele>1058.55</ele>
        <time>2022-06-15T13:16:14Z</time>
      </trkpt>
      <trkpt lat="47.99773" lon="6.99083">
        <ele>1060.95</ele>
        <time>2022-06-15T13:16:28Z</time>
      </trkpt>
      <trkpt lat="47.99773" lon="6.99076">
        <ele>1062.87</ele>
        <time>2022-06-15T13:16:44Z</time>
      </trkpt>
      <trkpt lat="47.99771" lon="6.99069">
        <ele>1066.24</ele>
        <time>2022-06-15T13:17:00Z</time>
      </trkpt>
      <trkpt lat="47.99768" lon="6.99066">
        <ele>1067.2</ele>
        <time>2022-06-15T13:17:15Z</time>
      </trkpt>
      <trkpt lat="47.99765" lon="6.99059">
        <ele>1069.6</ele>
        <time>2022-06-15T13:17:30Z</time>
      </trkpt>
      <trkpt lat="47.99761" lon="6.99053">
        <ele>1072.01</ele>
        <time>2022-06-15T13:17:44Z</time>
      </trkpt>
      <trkpt lat="47.99757" lon="6.99036">
        <ele>1073.93</ele>
        <time>2022-06-15T13:17:58Z</time>
      </trkpt>
      <trkpt lat="47.99754" lon="6.99029">
        <ele>1075.37</ele>
        <time>2022-06-15T13:18:13Z</time>
      </trkpt>
      <trkpt lat="47.99749" lon="6.99022">
        <ele>1078.26</ele>
        <time>2022-06-15T13:18:28Z</time>
      </trkpt>
      <trkpt lat="47.99747" lon="6.99016">
        <ele>1079.22</ele>
        <time>2022-06-15T13:18:43Z</time>
      </trkpt>
      <trkpt lat="47.9974" lon="6.99">
        <ele>1080.66</ele>
        <time>2022-06-15T13:18:59Z</time>
      </trkpt>
      <trkpt lat="47.99739" lon="6.99001">
        <ele>1080.18</ele>
        <time>2022-06-15T13:19:19Z</time>
      </trkpt>
      <trkpt lat="47.99745" lon="6.98979">
        <ele>1080.18</ele>
        <time>2022-06-15T13:19:48Z</time>
      </trkpt>
      <trkpt lat="47.99745" lon="6.98979">
        <ele>1079.22</ele>
        <time>2022-06-15T13:20:25Z</time>
      </trkpt>
      <trkpt lat="47.99734" lon="6.98989">
        <ele>1081.14</ele>
        <time>2022-06-15T13:20:45Z</time>
      </trkpt>
      <trkpt lat="47.99726" lon="6.98986">
        <ele>1082.58</ele>
        <time>2022-06-15T13:21:02Z</time>
      </trkpt>
      <trkpt lat="47.99717" lon="6.98973">
        <ele>1084.99</ele>
        <time>2022-06-15T13:21:19Z</time>
      </trkpt>
      <trkpt lat="47.99708" lon="6.98966">
        <ele>1087.39</ele>
        <time>2022-06-15T13:21:37Z</time>
      </trkpt>
      <trkpt lat="47.99695" lon="6.98969">
        <ele>1089.31</ele>
        <time>2022-06-15T13:21:56Z</time>
      </trkpt>
      <trkpt lat="47.99694" lon="6.98969">
        <ele>1089.31</ele>
        <time>2022-06-15T13:21:57Z</time>
      </trkpt>
      <trkpt lat="47.99683" lon="6.98961">
        <ele>1091.23</ele>
        <time>2022-06-15T13:22:14Z</time>
      </trkpt>
      <trkpt lat="47.99679" lon="6.98942">
        <ele>1092.68</ele>
        <time>2022-06-15T13:22:32Z</time>
      </trkpt>
      <trkpt lat="47.99675" lon="6.98935">
        <ele>1094.12</ele>
        <time>2022-06-15T13:22:38Z</time>
      </trkpt>
      <trkpt lat="47.99667" lon="6.98928">
        <ele>1093.64</ele>
        <time>2022-06-15T13:22:51Z</time>
      </trkpt>
      <trkpt lat="47.99659" lon="6.98917">
        <ele>1095.56</ele>
        <time>2022-06-15T13:23:06Z</time>
      </trkpt>
      <trkpt lat="47.99653" lon="6.98906">
        <ele>1096.52</ele>
        <time>2022-06-15T13:23:22Z</time>
      </trkpt>
      <trkpt lat="47.99646" lon="6.98901">
        <ele>1098.44</ele>
        <time>2022-06-15T13:23:35Z</time>
      </trkpt>
      <trkpt lat="47.99638" lon="6.98891">
        <ele>1099.4</ele>
        <time>2022-06-15T13:23:49Z</time>
      </trkpt>
      <trkpt lat="47.99633" lon="6.98884">
        <ele>1099.4</ele>
        <time>2022-06-15T13:23:58Z</time>
      </trkpt>
      <trkpt lat="47.99622" lon="6.98874">
        <ele>1101.33</ele>
        <time>2022-06-15T13:24:14Z</time>
      </trkpt>
      <trkpt lat="47.99613" lon="6.98864">
        <ele>1103.25</ele>
        <time>2022-06-15T13:24:31Z</time>
      </trkpt>
      <trkpt lat="47.9961" lon="6.9886">
        <ele>1104.69</ele>
        <time>2022-06-15T13:24:38Z</time>
      </trkpt>
      <trkpt lat="47.99607" lon="6.98859">
        <ele>1105.17</ele>
        <time>2022-06-15T13:24:43Z</time>
      </trkpt>
      <trkpt lat="47.99599" lon="6.98848">
        <ele>1106.61</ele>
        <time>2022-06-15T13:24:56Z</time>
      </trkpt>
      <trkpt lat="47.99594" lon="6.98843">
        <ele>1108.06</ele>
        <time>2022-06-15T13:25:06Z</time>
      </trkpt>
      <trkpt lat="47.99587" lon="6.98836">
        <ele>1109.98</ele>
        <time>2022-06-15T13:25:23Z</time>
      </trkpt>
      <trkpt lat="47.99587" lon="6.98836">
        <ele>1109.98</ele>
        <time>2022-06-15T13:25:24Z</time>
      </trkpt>
      <trkpt lat="47.9958" lon="6.98821">
        <ele>1111.42</ele>
        <time>2022-06-15T13:25:39Z</time>
      </trkpt>
      <trkpt lat="47.99575" lon="6.98809">
        <ele>1112.86</ele>
        <time>2022-06-15T13:25:56Z</time>
      </trkpt>
      <trkpt lat="47.9957" lon="6.98797">
        <ele>1114.79</ele>
        <time>2022-06-15T13:26:09Z</time>
      </trkpt>
      <trkpt lat="47.99566" lon="6.98789">
        <ele>1115.75</ele>
        <time>2022-06-15T13:26:21Z</time>
      </trkpt>
      <trkpt lat="47.99562" lon="6.98784">
        <ele>1117.19</ele>
        <time>2022-06-15T13:26:35Z</time>
      </trkpt>
      <trkpt lat="47.99557" lon="6.98778">
        <ele>1120.55</ele>
        <time>2022-06-15T13:26:50Z</time>
      </trkpt>
      <trkpt lat="47.99551" lon="6.98768">
        <ele>1122</ele>
        <time>2022-06-15T13:27:05Z</time>
      </trkpt>
      <trkpt lat="47.99546" lon="6.98759">
        <ele>1124.4</ele>
        <time>2022-06-15T13:27:18Z</time>
      </trkpt>
      <trkpt lat="47.99545" lon="6.98751">
        <ele>1124.4</ele>
        <time>2022-06-15T13:27:30Z</time>
      </trkpt>
      <trkpt lat="47.99543" lon="6.98742">
        <ele>1126.8</ele>
        <time>2022-06-15T13:27:44Z</time>
      </trkpt>
      <trkpt lat="47.99541" lon="6.98732">
        <ele>1126.8</ele>
        <time>2022-06-15T13:27:57Z</time>
      </trkpt>
      <trkpt lat="47.9954" lon="6.98726">
        <ele>1128.24</ele>
        <time>2022-06-15T13:28:12Z</time>
      </trkpt>
      <trkpt lat="47.99541" lon="6.98727">
        <ele>1128.24</ele>
        <time>2022-06-15T13:28:37Z</time>
      </trkpt>
      <trkpt lat="47.99539" lon="6.98728">
        <ele>1128.24</ele>
        <time>2022-06-15T13:28:56Z</time>
      </trkpt>
      <trkpt lat="47.99544" lon="6.98728">
        <ele>1127.28</ele>
        <time>2022-06-15T13:29:15Z</time>
      </trkpt>
      <trkpt lat="47.99546" lon="6.98718">
        <ele>1127.76</ele>
        <time>2022-06-15T13:29:33Z</time>
      </trkpt>
      <trkpt lat="47.99542" lon="6.98709">
        <ele>1126.8</ele>
        <time>2022-06-15T13:29:56Z</time>
      </trkpt>
      <trkpt lat="47.99538" lon="6.98715">
        <ele>1127.76</ele>
        <time>2022-06-15T13:30:09Z</time>
      </trkpt>
      <trkpt lat="47.99533" lon="6.9871">
        <ele>1129.69</ele>
        <time>2022-06-15T13:30:26Z</time>
      </trkpt>
      <trkpt lat="47.99528" lon="6.98698">
        <ele>1132.09</ele>
        <time>2022-06-15T13:30:42Z</time>
      </trkpt>
      <trkpt lat="47.99525" lon="6.9869">
        <ele>1134.49</ele>
        <time>2022-06-15T13:30:57Z</time>
      </trkpt>
      <trkpt lat="47.99517" lon="6.98682">
        <ele>1137.38</ele>
        <time>2022-06-15T13:31:15Z</time>
      </trkpt>
      <trkpt lat="47.99513" lon="6.98678">
        <ele>1139.3</ele>
        <time>2022-06-15T13:31:29Z</time>
      </trkpt>
      <trkpt lat="47.9951" lon="6.9867">
        <ele>1140.26</ele>
        <time>2022-06-15T13:31:43Z</time>
      </trkpt>
      <trkpt lat="47.99502" lon="6.98663">
        <ele>1142.66</ele>
        <time>2022-06-15T13:31:58Z</time>
      </trkpt>
      <trkpt lat="47.99492" lon="6.98654">
        <ele>1144.11</ele>
        <time>2022-06-15T13:32:13Z</time>
      </trkpt>
      <trkpt lat="47.99482" lon="6.98647">
        <ele>1145.07</ele>
        <time>2022-06-15T13:32:28Z</time>
      </trkpt>
      <trkpt lat="47.99476" lon="6.98637">
        <ele>1145.55</ele>
        <time>2022-06-15T13:32:42Z</time>
      </trkpt>
      <trkpt lat="47.99469" lon="6.98628">
        <ele>1146.51</ele>
        <time>2022-06-15T13:32:53Z</time>
      </trkpt>
      <trkpt lat="47.99457" lon="6.98621">
        <ele>1147.47</ele>
        <time>2022-06-15T13:33:08Z</time>
      </trkpt>
      <trkpt lat="47.9945" lon="6.98619">
        <ele>1147.47</ele>
        <time>2022-06-15T13:33:15Z</time>
      </trkpt>
      <trkpt lat="47.99438" lon="6.98611">
        <ele>1148.43</ele>
        <time>2022-06-15T13:33:29Z</time>
      </trkpt>
      <trkpt lat="47.99427" lon="6.98599">
        <ele>1149.87</ele>
        <time>2022-06-15T13:33:45Z</time>
      </trkpt>
      <trkpt lat="47.99419" lon="6.98592">
        <ele>1152.28</ele>
        <time>2022-06-15T13:34:03Z</time>
      </trkpt>
      <trkpt lat="47.99415" lon="6.98587">
        <ele>1152.28</ele>
        <time>2022-06-15T13:34:08Z</time>
      </trkpt>
      <trkpt lat="47.99411" lon="6.98581">
        <ele>1151.8</ele>
        <time>2022-06-15T13:34:24Z</time>
      </trkpt>
      <trkpt lat="47.99411" lon="6.98579">
        <ele>1151.32</ele>
        <time>2022-06-15T13:34:50Z</time>
      </trkpt>
      <trkpt lat="47.9941" lon="6.98584">
        <ele>1150.84</ele>
        <time>2022-06-15T13:35:08Z</time>
      </trkpt>
      <trkpt lat="47.9941" lon="6.98581">
        <ele>1149.87</ele>
        <time>2022-06-15T13:35:27Z</time>
      </trkpt>
      <trkpt lat="47.9941" lon="6.9858">
        <ele>1149.87</ele>
        <time>2022-06-15T13:36:09Z</time>
      </trkpt>
      <trkpt lat="47.99409" lon="6.9858">
        <ele>1148.91</ele>
        <time>2022-06-15T13:36:48Z</time>
      </trkpt>
      <trkpt lat="47.99411" lon="6.98576">
        <ele>1149.39</ele>
        <time>2022-06-15T13:37:25Z</time>
      </trkpt>
      <trkpt lat="47.99412" lon="6.98573">
        <ele>1148.91</ele>
        <time>2022-06-15T13:37:59Z</time>
      </trkpt>
      <trkpt lat="47.99411" lon="6.98571">
        <ele>1148.43</ele>
        <time>2022-06-15T13:38:30Z</time>
      </trkpt>
      <trkpt lat="47.99407" lon="6.98572">
        <ele>1147.95</ele>
        <time>2022-06-15T13:39:06Z</time>
      </trkpt>
      <trkpt lat="47.99409" lon="6.98577">
        <ele>1147.47</ele>
        <time>2022-06-15T13:39:44Z</time>
      </trkpt>
      <trkpt lat="47.99412" lon="6.98582">
        <ele>1146.99</ele>
        <time>2022-06-15T13:40:22Z</time>
      </trkpt>
      <trkpt lat="47.99411" lon="6.98575">
        <ele>1146.51</ele>
        <time>2022-06-15T13:40:55Z</time>
      </trkpt>
      <trkpt lat="47.99409" lon="6.9858">
        <ele>1146.03</ele>
        <time>2022-06-15T13:41:36Z</time>
      </trkpt>
      <trkpt lat="47.99407" lon="6.98578">
        <ele>1145.55</ele>
        <time>2022-06-15T13:42:12Z</time>
      </trkpt>
      <trkpt lat="47.99407" lon="6.98576">
        <ele>1145.07</ele>
        <time>2022-06-15T13:42:48Z</time>
      </trkpt>
      <trkpt lat="47.99406" lon="6.98574">
        <ele>1145.07</ele>
        <time>2022-06-15T13:43:21Z</time>
      </trkpt>
      <trkpt lat="47.99408" lon="6.98572">
        <ele>1144.59</ele>
        <time>2022-06-15T13:44:01Z</time>
      </trkpt>
      <trkpt lat="47.99413" lon="6.98577">
        <ele>1144.11</ele>
        <time>2022-06-15T13:44:38Z</time>
      </trkpt>
      <trkpt lat="47.99411" lon="6.98576">
        <ele>1144.11</ele>
        <time>2022-06-15T13:45:08Z</time>
      </trkpt>
      <trkpt lat="47.9941" lon="6.98577">
        <ele>1142.66</ele>
        <time>2022-06-15T13:45:44Z</time>
      </trkpt>
      <trkpt lat="47.9941" lon="6.98576">
        <ele>1142.18</ele>
        <time>2022-06-15T13:46:16Z</time>
      </trkpt>
      <trkpt lat="47.99411" lon="6.98578">
        <ele>1142.18</ele>
        <time>2022-06-15T13:46:52Z</time>
      </trkpt>
      <trkpt lat="47.99411" lon="6.98576">
        <ele>1142.66</ele>
        <time>2022-06-15T13:47:21Z</time>
      </trkpt>
      <trkpt lat="47.99408" lon="6.98579">
        <ele>1141.7</ele>
        <time>2022-06-15T13:47:46Z</time>
      </trkpt>
      <trkpt lat="47.99407" lon="6.98579">
        <ele>1141.7</ele>
        <time>2022-06-15T13:48:15Z</time>
      </trkpt>
      <trkpt lat="47.99408" lon="6.98582">
        <ele>1140.74</ele>
        <time>2022-06-15T13:48:52Z</time>
      </trkpt>
      <trkpt lat="47.99405" lon="6.98579">
        <ele>1141.7</ele>
        <time>2022-06-15T13:49:22Z</time>
      </trkpt>
      <trkpt lat="47.99406" lon="6.98581">
        <ele>1137.86</ele>
        <time>2022-06-15T13:49:29Z</time>
      </trkpt>
      <trkpt lat="47.99406" lon="6.98581">
        <ele>1143.63</ele>
        <time>2022-06-15T13:49:30Z</time>
      </trkpt>
      <trkpt lat="47.99406" lon="6.98581">
        <ele>1143.14</ele>
        <time>2022-06-15T13:49:35Z</time>
      </trkpt>
      <trkpt lat="47.99406" lon="6.98582">
        <ele>1141.7</ele>
        <time>2022-06-15T13:49:38Z</time>
      </trkpt>
      <trkpt lat="47.99406" lon="6.98582">
        <ele>1141.7</ele>
        <time>2022-06-15T13:49:43Z</time>
      </trkpt>
      <trkpt lat="47.99408" lon="6.98581">
        <ele>1140.74</ele>
        <time>2022-06-15T13:50:14Z</time>
      </trkpt>
      <trkpt lat="47.99408" lon="6.98582">
        <ele>1141.22</ele>
        <time>2022-06-15T13:50:54Z</time>
      </trkpt>
      <trkpt lat="47.99407" lon="6.98584">
        <ele>1141.22</ele>
        <time>2022-06-15T13:51:27Z</time>
      </trkpt>
      <trkpt lat="47.99406" lon="6.98584">
        <ele>1141.22</ele>
        <time>2022-06-15T13:52:00Z</time>
      </trkpt>
      <trkpt lat="47.99407" lon="6.98586">
        <ele>1141.22</ele>
        <time>2022-06-15T13:52:36Z</time>
      </trkpt>
      <trkpt lat="47.99407" lon="6.98586">
        <ele>1141.7</ele>
        <time>2022-06-15T13:53:11Z</time>
      </trkpt>
      <trkpt lat="47.99406" lon="6.98587">
        <ele>1141.22</ele>
        <time>2022-06-15T13:53:53Z</time>
      </trkpt>
      <trkpt lat="47.99407" lon="6.98588">
        <ele>1141.7</ele>
        <time>2022-06-15T13:54:25Z</time>
      </trkpt>
      <trkpt lat="47.99407" lon="6.98589">
        <ele>1141.7</ele>
        <time>2022-06-15T13:55:06Z</time>
      </trkpt>
      <trkpt lat="47.99406" lon="6.9859">
        <ele>1141.7</ele>
        <time>2022-06-15T13:55:41Z</time>
      </trkpt>
      <trkpt lat="47.99405" lon="6.9859">
        <ele>1142.18</ele>
        <time>2022-06-15T13:56:17Z</time>
      </trkpt>
      <trkpt lat="47.99405" lon="6.98593">
        <ele>1141.7</ele>
        <time>2022-06-15T13:56:51Z</time>
      </trkpt>
      <trkpt lat="47.99405" lon="6.98592">
        <ele>1142.18</ele>
        <time>2022-06-15T13:57:24Z</time>
      </trkpt>
      <trkpt lat="47.99406" lon="6.98594">
        <ele>1142.66</ele>
        <time>2022-06-15T13:57:58Z</time>
      </trkpt>
      <trkpt lat="47.99407" lon="6.98593">
        <ele>1142.66</ele>
        <time>2022-06-15T13:58:25Z</time>
      </trkpt>
      <trkpt lat="47.99406" lon="6.98592">
        <ele>1143.14</ele>
        <time>2022-06-15T13:58:58Z</time>
      </trkpt>
      <trkpt lat="47.99406" lon="6.98595">
        <ele>1143.63</ele>
        <time>2022-06-15T13:59:35Z</time>
      </trkpt>
      <trkpt lat="47.99405" lon="6.98592">
        <ele>1143.14</ele>
        <time>2022-06-15T14:00:03Z</time>
      </trkpt>
      <trkpt lat="47.99406" lon="6.98591">
        <ele>1143.63</ele>
        <time>2022-06-15T14:00:27Z</time>
      </trkpt>
      <trkpt lat="47.99405" lon="6.98588">
        <ele>1143.63</ele>
        <time>2022-06-15T14:00:42Z</time>
      </trkpt>
      <trkpt lat="47.99406" lon="6.98588">
        <ele>1146.99</ele>
        <time>2022-06-15T14:00:44Z</time>
      </trkpt>
      <trkpt lat="47.99406" lon="6.98587">
        <ele>1143.63</ele>
        <time>2022-06-15T14:00:48Z</time>
      </trkpt>
      <trkpt lat="47.99406" lon="6.98589">
        <ele>1144.11</ele>
        <time>2022-06-15T14:01:18Z</time>
      </trkpt>
      <trkpt lat="47.99406" lon="6.98591">
        <ele>1144.59</ele>
        <time>2022-06-15T14:01:52Z</time>
      </trkpt>
      <trkpt lat="47.99406" lon="6.98591">
        <ele>1144.59</ele>
        <time>2022-06-15T14:02:17Z</time>
      </trkpt>
      <trkpt lat="47.99405" lon="6.98592">
        <ele>1144.59</ele>
        <time>2022-06-15T14:02:29Z</time>
      </trkpt>
      <trkpt lat="47.99406" lon="6.9859">
        <ele>1144.59</ele>
        <time>2022-06-15T14:02:45Z</time>
      </trkpt>
      <trkpt lat="47.99406" lon="6.98588">
        <ele>1144.59</ele>
        <time>2022-06-15T14:03:03Z</time>
      </trkpt>
      <trkpt lat="47.99408" lon="6.9859">
        <ele>1144.59</ele>
        <time>2022-06-15T14:03:18Z</time>
      </trkpt>
      <trkpt lat="47.99414" lon="6.9859">
        <ele>1144.11</ele>
        <time>2022-06-15T14:03:33Z</time>
      </trkpt>
      <trkpt lat="47.99418" lon="6.98588">
        <ele>1145.55</ele>
        <time>2022-06-15T14:03:52Z</time>
      </trkpt>
      <trkpt lat="47.99422" lon="6.98587">
        <ele>1145.55</ele>
        <time>2022-06-15T14:04:04Z</time>
      </trkpt>
      <trkpt lat="47.99422" lon="6.98584">
        <ele>1145.07</ele>
        <time>2022-06-15T14:04:24Z</time>
      </trkpt>
      <trkpt lat="47.99425" lon="6.98575">
        <ele>1148.43</ele>
        <time>2022-06-15T14:04:37Z</time>
      </trkpt>
      <trkpt lat="47.99425" lon="6.98574">
        <ele>1147.95</ele>
        <time>2022-06-15T14:04:40Z</time>
      </trkpt>
      <trkpt lat="47.99428" lon="6.98561">
        <ele>1149.87</ele>
        <time>2022-06-15T14:04:55Z</time>
      </trkpt>
      <trkpt lat="47.99426" lon="6.98559">
        <ele>1150.84</ele>
        <time>2022-06-15T14:04:59Z</time>
      </trkpt>
      <trkpt lat="47.9942" lon="6.98549">
        <ele>1151.32</ele>
        <time>2022-06-15T14:05:13Z</time>
      </trkpt>
      <trkpt lat="47.99424" lon="6.98549">
        <ele>1151.8</ele>
        <time>2022-06-15T14:05:27Z</time>
      </trkpt>
      <trkpt lat="47.99425" lon="6.98547">
        <ele>1151.8</ele>
        <time>2022-06-15T14:05:47Z</time>
      </trkpt>
      <trkpt lat="47.99427" lon="6.98546">
        <ele>1152.28</ele>
        <time>2022-06-15T14:05:49Z</time>
      </trkpt>
      <trkpt lat="47.9943" lon="6.98546">
        <ele>1152.76</ele>
        <time>2022-06-15T14:05:52Z</time>
      </trkpt>
      <trkpt lat="47.9944" lon="6.98542">
        <ele>1155.16</ele>
        <time>2022-06-15T14:06:05Z</time>
      </trkpt>
      <trkpt lat="47.99451" lon="6.98537">
        <ele>1157.08</ele>
        <time>2022-06-15T14:06:19Z</time>
      </trkpt>
      <trkpt lat="47.99457" lon="6.98536">
        <ele>1158.53</ele>
        <time>2022-06-15T14:06:26Z</time>
      </trkpt>
      <trkpt lat="47.99467" lon="6.98534">
        <ele>1159.97</ele>
        <time>2022-06-15T14:06:39Z</time>
      </trkpt>
      <trkpt lat="47.9948" lon="6.98533">
        <ele>1160.93</ele>
        <time>2022-06-15T14:06:53Z</time>
      </trkpt>
      <trkpt lat="47.9949" lon="6.98531">
        <ele>1163.33</ele>
        <time>2022-06-15T14:07:07Z</time>
      </trkpt>
      <trkpt lat="47.99495" lon="6.9853">
        <ele>1164.77</ele>
        <time>2022-06-15T14:07:21Z</time>
      </trkpt>
      <trkpt lat="47.995" lon="6.98531">
        <ele>1165.74</ele>
        <time>2022-06-15T14:07:29Z</time>
      </trkpt>
      <trkpt lat="47.99511" lon="6.98532">
        <ele>1168.62</ele>
        <time>2022-06-15T14:07:46Z</time>
      </trkpt>
      <trkpt lat="47.99519" lon="6.9853">
        <ele>1170.54</ele>
        <time>2022-06-15T14:08:00Z</time>
      </trkpt>
      <trkpt lat="47.99527" lon="6.98525">
        <ele>1172.47</ele>
        <time>2022-06-15T14:08:13Z</time>
      </trkpt>
      <trkpt lat="47.99538" lon="6.98521">
        <ele>1173.91</ele>
        <time>2022-06-15T14:08:27Z</time>
      </trkpt>
      <trkpt lat="47.99547" lon="6.98515">
        <ele>1175.35</ele>
        <time>2022-06-15T14:08:40Z</time>
      </trkpt>
      <trkpt lat="47.99558" lon="6.98512">
        <ele>1176.31</ele>
        <time>2022-06-15T14:08:54Z</time>
      </trkpt>
      <trkpt lat="47.99569" lon="6.98515">
        <ele>1177.75</ele>
        <time>2022-06-15T14:09:08Z</time>
      </trkpt>
      <trkpt lat="47.99582" lon="6.98516">
        <ele>1179.19</ele>
        <time>2022-06-15T14:09:24Z</time>
      </trkpt>
      <trkpt lat="47.99594" lon="6.98517">
        <ele>1181.6</ele>
        <time>2022-06-15T14:09:38Z</time>
      </trkpt>
      <trkpt lat="47.99603" lon="6.98518">
        <ele>1183.04</ele>
        <time>2022-06-15T14:09:52Z</time>
      </trkpt>
      <trkpt lat="47.99611" lon="6.98519">
        <ele>1184.96</ele>
        <time>2022-06-15T14:10:06Z</time>
      </trkpt>
      <trkpt lat="47.99617" lon="6.98519">
        <ele>1186.88</ele>
        <time>2022-06-15T14:10:18Z</time>
      </trkpt>
      <trkpt lat="47.99625" lon="6.98517">
        <ele>1187.37</ele>
        <time>2022-06-15T14:10:29Z</time>
      </trkpt>
      <trkpt lat="47.99632" lon="6.98519">
        <ele>1190.25</ele>
        <time>2022-06-15T14:10:39Z</time>
      </trkpt>
      <trkpt lat="47.99633" lon="6.98519">
        <ele>1190.25</ele>
        <time>2022-06-15T14:10:43Z</time>
      </trkpt>
      <trkpt lat="47.99642" lon="6.9852">
        <ele>1192.65</ele>
        <time>2022-06-15T14:10:57Z</time>
      </trkpt>
      <trkpt lat="47.9965" lon="6.98524">
        <ele>1194.09</ele>
        <time>2022-06-15T14:11:09Z</time>
      </trkpt>
      <trkpt lat="47.9966" lon="6.98529">
        <ele>1196.5</ele>
        <time>2022-06-15T14:11:25Z</time>
      </trkpt>
      <trkpt lat="47.99664" lon="6.98532">
        <ele>1196.98</ele>
        <time>2022-06-15T14:11:30Z</time>
      </trkpt>
      <trkpt lat="47.99673" lon="6.98538">
        <ele>1199.38</ele>
        <time>2022-06-15T14:11:44Z</time>
      </trkpt>
      <trkpt lat="47.99674" lon="6.9854">
        <ele>1198.42</ele>
        <time>2022-06-15T14:11:48Z</time>
      </trkpt>
      <trkpt lat="47.99678" lon="6.98543">
        <ele>1200.82</ele>
        <time>2022-06-15T14:11:55Z</time>
      </trkpt>
      <trkpt lat="47.99687" lon="6.98548">
        <ele>1202.27</ele>
        <time>2022-06-15T14:12:14Z</time>
      </trkpt>
      <trkpt lat="47.99693" lon="6.98555">
        <ele>1206.11</ele>
        <time>2022-06-15T14:12:32Z</time>
      </trkpt>
      <trkpt lat="47.99704" lon="6.98574">
        <ele>1208.03</ele>
        <time>2022-06-15T14:12:44Z</time>
      </trkpt>
      <trkpt lat="47.99714" lon="6.98585">
        <ele>1209.48</ele>
        <time>2022-06-15T14:12:55Z</time>
      </trkpt>
      <trkpt lat="47.99719" lon="6.98591">
        <ele>1209.96</ele>
        <time>2022-06-15T14:13:09Z</time>
      </trkpt>
      <trkpt lat="47.99726" lon="6.98592">
        <ele>1212.84</ele>
        <time>2022-06-15T14:13:18Z</time>
      </trkpt>
      <trkpt lat="47.99736" lon="6.98592">
        <ele>1215.24</ele>
        <time>2022-06-15T14:13:32Z</time>
      </trkpt>
      <trkpt lat="47.99741" lon="6.98587">
        <ele>1216.69</ele>
        <time>2022-06-15T14:13:45Z</time>
      </trkpt>
      <trkpt lat="47.99748" lon="6.98578">
        <ele>1218.61</ele>
        <time>2022-06-15T14:13:59Z</time>
      </trkpt>
      <trkpt lat="47.99754" lon="6.9857">
        <ele>1221.97</ele>
        <time>2022-06-15T14:14:13Z</time>
      </trkpt>
      <trkpt lat="47.99761" lon="6.98561">
        <ele>1223.9</ele>
        <time>2022-06-15T14:14:25Z</time>
      </trkpt>
      <trkpt lat="47.99766" lon="6.98554">
        <ele>1225.82</ele>
        <time>2022-06-15T14:14:37Z</time>
      </trkpt>
      <trkpt lat="47.99767" lon="6.98552">
        <ele>1225.82</ele>
        <time>2022-06-15T14:14:41Z</time>
      </trkpt>
      <trkpt lat="47.99771" lon="6.98548">
        <ele>1227.74</ele>
        <time>2022-06-15T14:14:51Z</time>
      </trkpt>
      <trkpt lat="47.99779" lon="6.98539">
        <ele>1230.14</ele>
        <time>2022-06-15T14:15:07Z</time>
      </trkpt>
      <trkpt lat="47.99782" lon="6.98531">
        <ele>1231.11</ele>
        <time>2022-06-15T14:15:20Z</time>
      </trkpt>
      <trkpt lat="47.99782" lon="6.9853">
        <ele>1231.11</ele>
        <time>2022-06-15T14:15:21Z</time>
      </trkpt>
      <trkpt lat="47.99785" lon="6.9852">
        <ele>1232.55</ele>
        <time>2022-06-15T14:15:33Z</time>
      </trkpt>
      <trkpt lat="47.99786" lon="6.98517">
        <ele>1234.47</ele>
        <time>2022-06-15T14:15:35Z</time>
      </trkpt>
      <trkpt lat="47.9979" lon="6.98502">
        <ele>1236.39</ele>
        <time>2022-06-15T14:15:48Z</time>
      </trkpt>
      <trkpt lat="47.99794" lon="6.98491">
        <ele>1237.83</ele>
        <time>2022-06-15T14:16:01Z</time>
      </trkpt>
      <trkpt lat="47.99795" lon="6.98478">
        <ele>1238.32</ele>
        <time>2022-06-15T14:16:15Z</time>
      </trkpt>
      <trkpt lat="47.99796" lon="6.98465">
        <ele>1240.24</ele>
        <time>2022-06-15T14:16:27Z</time>
      </trkpt>
      <trkpt lat="47.99795" lon="6.98455">
        <ele>1241.68</ele>
        <time>2022-06-15T14:16:40Z</time>
      </trkpt>
      <trkpt lat="47.99795" lon="6.98451">
        <ele>1243.12</ele>
        <time>2022-06-15T14:16:44Z</time>
      </trkpt>
      <trkpt lat="47.99796" lon="6.98442">
        <ele>1244.56</ele>
        <time>2022-06-15T14:16:59Z</time>
      </trkpt>
      <trkpt lat="47.99799" lon="6.98431">
        <ele>1246.49</ele>
        <time>2022-06-15T14:17:11Z</time>
      </trkpt>
      <trkpt lat="47.998" lon="6.98425">
        <ele>1247.93</ele>
        <time>2022-06-15T14:17:22Z</time>
      </trkpt>
      <trkpt lat="47.99798" lon="6.98419">
        <ele>1248.41</ele>
        <time>2022-06-15T14:17:35Z</time>
      </trkpt>
      <trkpt lat="47.99798" lon="6.98417">
        <ele>1247.93</ele>
        <time>2022-06-15T14:18:00Z</time>
      </trkpt>
      <trkpt lat="47.99798" lon="6.98418">
        <ele>1248.41</ele>
        <time>2022-06-15T14:18:21Z</time>
      </trkpt>
      <trkpt lat="47.998" lon="6.98417">
        <ele>1248.89</ele>
        <time>2022-06-15T14:18:33Z</time>
      </trkpt>
      <trkpt lat="47.99802" lon="6.98404">
        <ele>1251.77</ele>
        <time>2022-06-15T14:18:48Z</time>
      </trkpt>
      <trkpt lat="47.99804" lon="6.9839">
        <ele>1252.25</ele>
        <time>2022-06-15T14:19:01Z</time>
      </trkpt>
      <trkpt lat="47.99805" lon="6.98384">
        <ele>1255.62</ele>
        <time>2022-06-15T14:19:12Z</time>
      </trkpt>
      <trkpt lat="47.99804" lon="6.98374">
        <ele>1256.58</ele>
        <time>2022-06-15T14:19:26Z</time>
      </trkpt>
      <trkpt lat="47.99805" lon="6.98364">
        <ele>1258.98</ele>
        <time>2022-06-15T14:19:40Z</time>
      </trkpt>
      <trkpt lat="47.99805" lon="6.98357">
        <ele>1261.39</ele>
        <time>2022-06-15T14:19:52Z</time>
      </trkpt>
      <trkpt lat="47.99807" lon="6.98348">
        <ele>1262.83</ele>
        <time>2022-06-15T14:20:05Z</time>
      </trkpt>
      <trkpt lat="47.9981" lon="6.98339">
        <ele>1263.31</ele>
        <time>2022-06-15T14:20:17Z</time>
      </trkpt>
      <trkpt lat="47.99812" lon="6.98332">
        <ele>1267.16</ele>
        <time>2022-06-15T14:20:30Z</time>
      </trkpt>
      <trkpt lat="47.99814" lon="6.98324">
        <ele>1266.67</ele>
        <time>2022-06-15T14:20:42Z</time>
      </trkpt>
      <trkpt lat="47.99818" lon="6.98317">
        <ele>1267.64</ele>
        <time>2022-06-15T14:20:54Z</time>
      </trkpt>
      <trkpt lat="47.99822" lon="6.98307">
        <ele>1270.04</ele>
        <time>2022-06-15T14:21:07Z</time>
      </trkpt>
      <trkpt lat="47.99829" lon="6.98295">
        <ele>1271.96</ele>
        <time>2022-06-15T14:21:27Z</time>
      </trkpt>
      <trkpt lat="47.99838" lon="6.98283">
        <ele>1274.36</ele>
        <time>2022-06-15T14:21:41Z</time>
      </trkpt>
      <trkpt lat="47.99846" lon="6.9827">
        <ele>1275.81</ele>
        <time>2022-06-15T14:21:56Z</time>
      </trkpt>
      <trkpt lat="47.99851" lon="6.98261">
        <ele>1276.77</ele>
        <time>2022-06-15T14:22:06Z</time>
      </trkpt>
      <trkpt lat="47.99855" lon="6.98246">
        <ele>1278.69</ele>
        <time>2022-06-15T14:22:21Z</time>
      </trkpt>
      <trkpt lat="47.9986" lon="6.98234">
        <ele>1279.17</ele>
        <time>2022-06-15T14:22:32Z</time>
      </trkpt>
      <trkpt lat="47.99868" lon="6.98223">
        <ele>1281.57</ele>
        <time>2022-06-15T14:22:46Z</time>
      </trkpt>
      <trkpt lat="47.99868" lon="6.98222">
        <ele>1282.06</ele>
        <time>2022-06-15T14:22:47Z</time>
      </trkpt>
      <trkpt lat="47.99875" lon="6.98212">
        <ele>1282.54</ele>
        <time>2022-06-15T14:22:59Z</time>
      </trkpt>
      <trkpt lat="47.99883" lon="6.982">
        <ele>1282.54</ele>
        <time>2022-06-15T14:23:14Z</time>
      </trkpt>
      <trkpt lat="47.99884" lon="6.98198">
        <ele>1284.94</ele>
        <time>2022-06-15T14:23:16Z</time>
      </trkpt>
      <trkpt lat="47.99891" lon="6.98186">
        <ele>1287.82</ele>
        <time>2022-06-15T14:23:32Z</time>
      </trkpt>
      <trkpt lat="47.99896" lon="6.98177">
        <ele>1290.23</ele>
        <time>2022-06-15T14:23:46Z</time>
      </trkpt>
      <trkpt lat="47.99901" lon="6.98172">
        <ele>1288.78</ele>
        <time>2022-06-15T14:23:53Z</time>
      </trkpt>
      <trkpt lat="47.99905" lon="6.98168">
        <ele>1287.34</ele>
        <time>2022-06-15T14:23:59Z</time>
      </trkpt>
      <trkpt lat="47.99915" lon="6.98157">
        <ele>1288.78</ele>
        <time>2022-06-15T14:24:13Z</time>
      </trkpt>
      <trkpt lat="47.99923" lon="6.98149">
        <ele>1291.19</ele>
        <time>2022-06-15T14:24:27Z</time>
      </trkpt>
      <trkpt lat="47.99929" lon="6.98146">
        <ele>1291.67</ele>
        <time>2022-06-15T14:24:35Z</time>
      </trkpt>
      <trkpt lat="47.99941" lon="6.98142">
        <ele>1294.55</ele>
        <time>2022-06-15T14:24:50Z</time>
      </trkpt>
      <trkpt lat="47.99949" lon="6.98134">
        <ele>1295.03</ele>
        <time>2022-06-15T14:25:04Z</time>
      </trkpt>
      <trkpt lat="47.99957" lon="6.98131">
        <ele>1298.4</ele>
        <time>2022-06-15T14:25:16Z</time>
      </trkpt>
      <trkpt lat="47.99958" lon="6.9813">
        <ele>1295.99</ele>
        <time>2022-06-15T14:25:18Z</time>
      </trkpt>
      <trkpt lat="47.9997" lon="6.98127">
        <ele>1296.96</ele>
        <time>2022-06-15T14:25:33Z</time>
      </trkpt>
      <trkpt lat="47.99979" lon="6.98122">
        <ele>1300.8</ele>
        <time>2022-06-15T14:25:46Z</time>
      </trkpt>
      <trkpt lat="47.99992" lon="6.98117">
        <ele>1301.28</ele>
        <time>2022-06-15T14:26:02Z</time>
      </trkpt>
      <trkpt lat="48.00003" lon="6.98112">
        <ele>1303.69</ele>
        <time>2022-06-15T14:26:17Z</time>
      </trkpt>
      <trkpt lat="48.00015" lon="6.98107">
        <ele>1304.17</ele>
        <time>2022-06-15T14:26:33Z</time>
      </trkpt>
      <trkpt lat="48.00017" lon="6.98107">
        <ele>1307.05</ele>
        <time>2022-06-15T14:26:37Z</time>
      </trkpt>
      <trkpt lat="48.00025" lon="6.98108">
        <ele>1306.09</ele>
        <time>2022-06-15T14:26:53Z</time>
      </trkpt>
      <trkpt lat="48.00032" lon="6.98109">
        <ele>1308.97</ele>
        <time>2022-06-15T14:27:06Z</time>
      </trkpt>
      <trkpt lat="48.00041" lon="6.9811">
        <ele>1310.41</ele>
        <time>2022-06-15T14:27:22Z</time>
      </trkpt>
      <trkpt lat="48.00048" lon="6.98109">
        <ele>1311.38</ele>
        <time>2022-06-15T14:27:36Z</time>
      </trkpt>
      <trkpt lat="48.00053" lon="6.98111">
        <ele>1313.3</ele>
        <time>2022-06-15T14:27:48Z</time>
      </trkpt>
      <trkpt lat="48.00058" lon="6.98109">
        <ele>1314.74</ele>
        <time>2022-06-15T14:28:01Z</time>
      </trkpt>
      <trkpt lat="48.00063" lon="6.98107">
        <ele>1317.14</ele>
        <time>2022-06-15T14:28:13Z</time>
      </trkpt>
      <trkpt lat="48.00064" lon="6.98106">
        <ele>1315.7</ele>
        <time>2022-06-15T14:28:16Z</time>
      </trkpt>
      <trkpt lat="48.00067" lon="6.98106">
        <ele>1318.1</ele>
        <time>2022-06-15T14:28:29Z</time>
      </trkpt>
      <trkpt lat="48.00069" lon="6.98104">
        <ele>1319.55</ele>
        <time>2022-06-15T14:28:36Z</time>
      </trkpt>
      <trkpt lat="48.00073" lon="6.98102">
        <ele>1319.55</ele>
        <time>2022-06-15T14:28:47Z</time>
      </trkpt>
      <trkpt lat="48.00073" lon="6.98102">
        <ele>1320.99</ele>
        <time>2022-06-15T14:28:49Z</time>
      </trkpt>
      <trkpt lat="48.00075" lon="6.98103">
        <ele>1320.99</ele>
        <time>2022-06-15T14:29:12Z</time>
      </trkpt>
      <trkpt lat="48.00076" lon="6.98104">
        <ele>1319.07</ele>
        <time>2022-06-15T14:29:14Z</time>
      </trkpt>
      <trkpt lat="48.00075" lon="6.98105">
        <ele>1319.07</ele>
        <time>2022-06-15T14:29:34Z</time>
      </trkpt>
      <trkpt lat="48.00076" lon="6.98104">
        <ele>1319.07</ele>
        <time>2022-06-15T14:29:39Z</time>
      </trkpt>
      <trkpt lat="48.00076" lon="6.98104">
        <ele>1320.51</ele>
        <time>2022-06-15T14:29:43Z</time>
      </trkpt>
      <trkpt lat="48.00076" lon="6.98105">
        <ele>1319.07</ele>
        <time>2022-06-15T14:29:45Z</time>
      </trkpt>
      <trkpt lat="48.00078" lon="6.98101">
        <ele>1321.95</ele>
        <time>2022-06-15T14:30:02Z</time>
      </trkpt>
      <trkpt lat="48.00078" lon="6.981">
        <ele>1320.03</ele>
        <time>2022-06-15T14:30:11Z</time>
      </trkpt>
      <trkpt lat="48.00078" lon="6.98099">
        <ele>1321.95</ele>
        <time>2022-06-15T14:30:15Z</time>
      </trkpt>
      <trkpt lat="48.00079" lon="6.981">
        <ele>1319.55</ele>
        <time>2022-06-15T14:30:36Z</time>
      </trkpt>
      <trkpt lat="48.0008" lon="6.98101">
        <ele>1321.47</ele>
        <time>2022-06-15T14:30:46Z</time>
      </trkpt>
      <trkpt lat="48.0008" lon="6.981">
        <ele>1320.51</ele>
        <time>2022-06-15T14:31:12Z</time>
      </trkpt>
      <trkpt lat="48.00081" lon="6.98102">
        <ele>1320.51</ele>
        <time>2022-06-15T14:31:30Z</time>
      </trkpt>
      <trkpt lat="48.00083" lon="6.98103">
        <ele>1320.51</ele>
        <time>2022-06-15T14:31:48Z</time>
      </trkpt>
      <trkpt lat="48.0008" lon="6.98101">
        <ele>1320.03</ele>
        <time>2022-06-15T14:32:13Z</time>
      </trkpt>
      <trkpt lat="48.00081" lon="6.98101">
        <ele>1319.55</ele>
        <time>2022-06-15T14:32:31Z</time>
      </trkpt>
      <trkpt lat="48.00078" lon="6.981">
        <ele>1319.55</ele>
        <time>2022-06-15T14:33:05Z</time>
      </trkpt>
      <trkpt lat="48.00073" lon="6.98099">
        <ele>1320.03</ele>
        <time>2022-06-15T14:33:21Z</time>
      </trkpt>
      <trkpt lat="48.00076" lon="6.98102">
        <ele>1320.51</ele>
        <time>2022-06-15T14:33:38Z</time>
      </trkpt>
      <trkpt lat="48.00079" lon="6.98105">
        <ele>1319.07</ele>
        <time>2022-06-15T14:34:04Z</time>
      </trkpt>
      <trkpt lat="48.00085" lon="6.98104">
        <ele>1318.59</ele>
        <time>2022-06-15T14:34:15Z</time>
      </trkpt>
      <trkpt lat="48.00086" lon="6.98104">
        <ele>1317.62</ele>
        <time>2022-06-15T14:34:20Z</time>
      </trkpt>
      <trkpt lat="48.00087" lon="6.98099">
        <ele>1318.1</ele>
        <time>2022-06-15T14:34:36Z</time>
      </trkpt>
      <trkpt lat="48.00088" lon="6.98101">
        <ele>1316.18</ele>
        <time>2022-06-15T14:35:04Z</time>
      </trkpt>
      <trkpt lat="48.00087" lon="6.981">
        <ele>1318.1</ele>
        <time>2022-06-15T14:35:16Z</time>
      </trkpt>
      <trkpt lat="48.00088" lon="6.98099">
        <ele>1318.59</ele>
        <time>2022-06-15T14:35:44Z</time>
      </trkpt>
      <trkpt lat="48.00087" lon="6.981">
        <ele>1317.62</ele>
        <time>2022-06-15T14:36:16Z</time>
      </trkpt>
      <trkpt lat="48.00087" lon="6.981">
        <ele>1318.1</ele>
        <time>2022-06-15T14:36:36Z</time>
      </trkpt>
      <trkpt lat="48.00087" lon="6.98099">
        <ele>1318.59</ele>
        <time>2022-06-15T14:37:00Z</time>
      </trkpt>
      <trkpt lat="48.00091" lon="6.98098">
        <ele>1317.14</ele>
        <time>2022-06-15T14:37:18Z</time>
      </trkpt>
      <trkpt lat="48.00097" lon="6.98095">
        <ele>1316.18</ele>
        <time>2022-06-15T14:37:32Z</time>
      </trkpt>
      <trkpt lat="48.00102" lon="6.98093">
        <ele>1313.3</ele>
        <time>2022-06-15T14:37:41Z</time>
      </trkpt>
      <trkpt lat="48.00106" lon="6.98091">
        <ele>1312.34</ele>
        <time>2022-06-15T14:37:54Z</time>
      </trkpt>
      <trkpt lat="48.00109" lon="6.98089">
        <ele>1311.86</ele>
        <time>2022-06-15T14:37:59Z</time>
      </trkpt>
      <trkpt lat="48.0011" lon="6.98085">
        <ele>1310.41</ele>
        <time>2022-06-15T14:38:03Z</time>
      </trkpt>
      <trkpt lat="48.00114" lon="6.98074">
        <ele>1308.49</ele>
        <time>2022-06-15T14:38:16Z</time>
      </trkpt>
      <trkpt lat="48.00117" lon="6.98066">
        <ele>1306.57</ele>
        <time>2022-06-15T14:38:29Z</time>
      </trkpt>
      <trkpt lat="48.00119" lon="6.98063">
        <ele>1304.65</ele>
        <time>2022-06-15T14:38:35Z</time>
      </trkpt>
      <trkpt lat="48.00122" lon="6.98064">
        <ele>1304.65</ele>
        <time>2022-06-15T14:38:40Z</time>
      </trkpt>
      <trkpt lat="48.00125" lon="6.98066">
        <ele>1303.2</ele>
        <time>2022-06-15T14:38:56Z</time>
      </trkpt>
      <trkpt lat="48.00127" lon="6.98071">
        <ele>1302.72</ele>
        <time>2022-06-15T14:39:24Z</time>
      </trkpt>
      <trkpt lat="48.00127" lon="6.98072">
        <ele>1302.24</ele>
        <time>2022-06-15T14:39:26Z</time>
      </trkpt>
      <trkpt lat="48.0013" lon="6.98073">
        <ele>1303.2</ele>
        <time>2022-06-15T14:39:39Z</time>
      </trkpt>
      <trkpt lat="48.00128" lon="6.98067">
        <ele>1299.84</ele>
        <time>2022-06-15T14:39:47Z</time>
      </trkpt>
      <trkpt lat="48.00131" lon="6.98059">
        <ele>1298.4</ele>
        <time>2022-06-15T14:40:01Z</time>
      </trkpt>
      <trkpt lat="48.00134" lon="6.9805">
        <ele>1295.03</ele>
        <time>2022-06-15T14:40:13Z</time>
      </trkpt>
      <trkpt lat="48.0014" lon="6.98039">
        <ele>1293.11</ele>
        <time>2022-06-15T14:40:27Z</time>
      </trkpt>
      <trkpt lat="48.00143" lon="6.98036">
        <ele>1291.19</ele>
        <time>2022-06-15T14:40:32Z</time>
      </trkpt>
      <trkpt lat="48.00153" lon="6.98029">
        <ele>1289.75</ele>
        <time>2022-06-15T14:40:47Z</time>
      </trkpt>
      <trkpt lat="48.00156" lon="6.98027">
        <ele>1288.3</ele>
        <time>2022-06-15T14:40:51Z</time>
      </trkpt>
      <trkpt lat="48.00166" lon="6.98022">
        <ele>1286.86</ele>
        <time>2022-06-15T14:41:06Z</time>
      </trkpt>
      <trkpt lat="48.00175" lon="6.9802">
        <ele>1283.98</ele>
        <time>2022-06-15T14:41:17Z</time>
      </trkpt>
      <trkpt lat="48.00182" lon="6.98017">
        <ele>1283.02</ele>
        <time>2022-06-15T14:41:25Z</time>
      </trkpt>
      <trkpt lat="48.00184" lon="6.98016">
        <ele>1282.54</ele>
        <time>2022-06-15T14:41:28Z</time>
      </trkpt>
      <trkpt lat="48.00197" lon="6.98011">
        <ele>1278.69</ele>
        <time>2022-06-15T14:41:43Z</time>
      </trkpt>
      <trkpt lat="48.00211" lon="6.98008">
        <ele>1276.29</ele>
        <time>2022-06-15T14:41:59Z</time>
      </trkpt>
      <trkpt lat="48.00217" lon="6.98007">
        <ele>1274.36</ele>
        <time>2022-06-15T14:42:06Z</time>
      </trkpt>
      <trkpt lat="48.00229" lon="6.9801">
        <ele>1271</ele>
        <time>2022-06-15T14:42:22Z</time>
      </trkpt>
      <trkpt lat="48.00241" lon="6.98006">
        <ele>1269.56</ele>
        <time>2022-06-15T14:42:36Z</time>
      </trkpt>
      <trkpt lat="48.00254" lon="6.98006">
        <ele>1266.19</ele>
        <time>2022-06-15T14:42:48Z</time>
      </trkpt>
      <trkpt lat="48.00262" lon="6.98005">
        <ele>1265.71</ele>
        <time>2022-06-15T14:42:56Z</time>
      </trkpt>
      <trkpt lat="48.00276" lon="6.97998">
        <ele>1263.79</ele>
        <time>2022-06-15T14:43:10Z</time>
      </trkpt>
      <trkpt lat="48.00295" lon="6.97995">
        <ele>1260.91</ele>
        <time>2022-06-15T14:43:28Z</time>
      </trkpt>
      <trkpt lat="48.00299" lon="6.97994">
        <ele>1258.5</ele>
        <time>2022-06-15T14:43:32Z</time>
      </trkpt>
      <trkpt lat="48.00305" lon="6.97992">
        <ele>1258.5</ele>
        <time>2022-06-15T14:43:46Z</time>
      </trkpt>
      <trkpt lat="48.00306" lon="6.97989">
        <ele>1258.98</ele>
        <time>2022-06-15T14:43:58Z</time>
      </trkpt>
      <trkpt lat="48.0031" lon="6.97987">
        <ele>1258.98</ele>
        <time>2022-06-15T14:44:03Z</time>
      </trkpt>
      <trkpt lat="48.00312" lon="6.97985">
        <ele>1256.58</ele>
        <time>2022-06-15T14:44:07Z</time>
      </trkpt>
      <trkpt lat="48.00325" lon="6.97985">
        <ele>1253.7</ele>
        <time>2022-06-15T14:44:21Z</time>
      </trkpt>
      <trkpt lat="48.00334" lon="6.97989">
        <ele>1251.29</ele>
        <time>2022-06-15T14:44:34Z</time>
      </trkpt>
      <trkpt lat="48.00345" lon="6.9799">
        <ele>1249.37</ele>
        <time>2022-06-15T14:44:47Z</time>
      </trkpt>
      <trkpt lat="48.00356" lon="6.9799">
        <ele>1246.01</ele>
        <time>2022-06-15T14:44:59Z</time>
      </trkpt>
      <trkpt lat="48.00364" lon="6.97991">
        <ele>1242.64</ele>
        <time>2022-06-15T14:45:08Z</time>
      </trkpt>
      <trkpt lat="48.00373" lon="6.97991">
        <ele>1241.2</ele>
        <time>2022-06-15T14:45:22Z</time>
      </trkpt>
      <trkpt lat="48.00378" lon="6.97992">
        <ele>1239.76</ele>
        <time>2022-06-15T14:45:30Z</time>
      </trkpt>
      <trkpt lat="48.00382" lon="6.97995">
        <ele>1239.28</ele>
        <time>2022-06-15T14:45:34Z</time>
      </trkpt>
      <trkpt lat="48.00388" lon="6.97996">
        <ele>1238.32</ele>
        <time>2022-06-15T14:45:42Z</time>
      </trkpt>
      <trkpt lat="48.00396" lon="6.97996">
        <ele>1235.43</ele>
        <time>2022-06-15T14:45:50Z</time>
      </trkpt>
      <trkpt lat="48.00402" lon="6.97995">
        <ele>1233.99</ele>
        <time>2022-06-15T14:45:57Z</time>
      </trkpt>
      <trkpt lat="48.00404" lon="6.97995">
        <ele>1233.51</ele>
        <time>2022-06-15T14:46:00Z</time>
      </trkpt>
      <trkpt lat="48.00408" lon="6.97996">
        <ele>1232.55</ele>
        <time>2022-06-15T14:46:04Z</time>
      </trkpt>
      <trkpt lat="48.00423" lon="6.97997">
        <ele>1229.18</ele>
        <time>2022-06-15T14:46:19Z</time>
      </trkpt>
      <trkpt lat="48.00435" lon="6.97998">
        <ele>1227.26</ele>
        <time>2022-06-15T14:46:32Z</time>
      </trkpt>
      <trkpt lat="48.00444" lon="6.97999">
        <ele>1225.82</ele>
        <time>2022-06-15T14:46:42Z</time>
      </trkpt>
      <trkpt lat="48.00458" lon="6.98">
        <ele>1223.42</ele>
        <time>2022-06-15T14:46:57Z</time>
      </trkpt>
      <trkpt lat="48.00475" lon="6.98004">
        <ele>1222.45</ele>
        <time>2022-06-15T14:47:12Z</time>
      </trkpt>
      <trkpt lat="48.00489" lon="6.98003">
        <ele>1219.09</ele>
        <time>2022-06-15T14:47:25Z</time>
      </trkpt>
      <trkpt lat="48.00505" lon="6.98001">
        <ele>1217.17</ele>
        <time>2022-06-15T14:47:39Z</time>
      </trkpt>
      <trkpt lat="48.00524" lon="6.97999">
        <ele>1215.72</ele>
        <time>2022-06-15T14:47:56Z</time>
      </trkpt>
      <trkpt lat="48.00543" lon="6.98">
        <ele>1214.28</ele>
        <time>2022-06-15T14:48:14Z</time>
      </trkpt>
      <trkpt lat="48.00545" lon="6.98001">
        <ele>1214.76</ele>
        <time>2022-06-15T14:48:32Z</time>
      </trkpt>
      <trkpt lat="48.00548" lon="6.97998">
        <ele>1214.76</ele>
        <time>2022-06-15T14:48:47Z</time>
      </trkpt>
      <trkpt lat="48.00551" lon="6.97996">
        <ele>1214.28</ele>
        <time>2022-06-15T14:49:09Z</time>
      </trkpt>
      <trkpt lat="48.00555" lon="6.97996">
        <ele>1215.24</ele>
        <time>2022-06-15T14:49:24Z</time>
      </trkpt>
      <trkpt lat="48.0057" lon="6.97994">
        <ele>1216.69</ele>
        <time>2022-06-15T14:49:40Z</time>
      </trkpt>
      <trkpt lat="48.00575" lon="6.97994">
        <ele>1216.69</ele>
        <time>2022-06-15T14:49:44Z</time>
      </trkpt>
      <trkpt lat="48.00591" lon="6.97988">
        <ele>1218.13</ele>
        <time>2022-06-15T14:50:00Z</time>
      </trkpt>
      <trkpt lat="48.00606" lon="6.97978">
        <ele>1219.57</ele>
        <time>2022-06-15T14:50:16Z</time>
      </trkpt>
      <trkpt lat="48.00611" lon="6.97974">
        <ele>1220.05</ele>
        <time>2022-06-15T14:50:22Z</time>
      </trkpt>
      <trkpt lat="48.00613" lon="6.97972">
        <ele>1220.05</ele>
        <time>2022-06-15T14:50:24Z</time>
      </trkpt>
      <trkpt lat="48.00626" lon="6.9796">
        <ele>1220.53</ele>
        <time>2022-06-15T14:50:40Z</time>
      </trkpt>
      <trkpt lat="48.00637" lon="6.97949">
        <ele>1221.49</ele>
        <time>2022-06-15T14:50:54Z</time>
      </trkpt>
      <trkpt lat="48.00647" lon="6.97935">
        <ele>1223.42</ele>
        <time>2022-06-15T14:51:08Z</time>
      </trkpt>
      <trkpt lat="48.0065" lon="6.97931">
        <ele>1223.42</ele>
        <time>2022-06-15T14:51:12Z</time>
      </trkpt>
      <trkpt lat="48.00665" lon="6.97915">
        <ele>1224.38</ele>
        <time>2022-06-15T14:51:29Z</time>
      </trkpt>
      <trkpt lat="48.00673" lon="6.97904">
        <ele>1225.34</ele>
        <time>2022-06-15T14:51:41Z</time>
      </trkpt>
      <trkpt lat="48.00684" lon="6.9789">
        <ele>1225.82</ele>
        <time>2022-06-15T14:51:56Z</time>
      </trkpt>
      <trkpt lat="48.00694" lon="6.97875">
        <ele>1227.74</ele>
        <time>2022-06-15T14:52:11Z</time>
      </trkpt>
      <trkpt lat="48.00705" lon="6.97858">
        <ele>1228.22</ele>
        <time>2022-06-15T14:52:27Z</time>
      </trkpt>
      <trkpt lat="48.0071" lon="6.97847">
        <ele>1229.18</ele>
        <time>2022-06-15T14:52:37Z</time>
      </trkpt>
      <trkpt lat="48.00714" lon="6.97837">
        <ele>1229.18</ele>
        <time>2022-06-15T14:52:45Z</time>
      </trkpt>
      <trkpt lat="48.00724" lon="6.97817">
        <ele>1230.14</ele>
        <time>2022-06-15T14:53:01Z</time>
      </trkpt>
      <trkpt lat="48.00734" lon="6.97795">
        <ele>1231.11</ele>
        <time>2022-06-15T14:53:18Z</time>
      </trkpt>
      <trkpt lat="48.00743" lon="6.97776">
        <ele>1232.55</ele>
        <time>2022-06-15T14:53:34Z</time>
      </trkpt>
      <trkpt lat="48.00754" lon="6.97748">
        <ele>1233.51</ele>
        <time>2022-06-15T14:53:53Z</time>
      </trkpt>
      <trkpt lat="48.00756" lon="6.97743">
        <ele>1234.47</ele>
        <time>2022-06-15T14:53:57Z</time>
      </trkpt>
      <trkpt lat="48.00766" lon="6.97721">
        <ele>1234.95</ele>
        <time>2022-06-15T14:54:14Z</time>
      </trkpt>
      <trkpt lat="48.00771" lon="6.97714">
        <ele>1234.95</ele>
        <time>2022-06-15T14:54:21Z</time>
      </trkpt>
      <trkpt lat="48.00773" lon="6.9771">
        <ele>1235.43</ele>
        <time>2022-06-15T14:54:25Z</time>
      </trkpt>
      <trkpt lat="48.00785" lon="6.97691">
        <ele>1236.87</ele>
        <time>2022-06-15T14:54:40Z</time>
      </trkpt>
      <trkpt lat="48.00788" lon="6.97686">
        <ele>1237.83</ele>
        <time>2022-06-15T14:54:44Z</time>
      </trkpt>
      <trkpt lat="48.008" lon="6.97671">
        <ele>1238.32</ele>
        <time>2022-06-15T14:54:59Z</time>
      </trkpt>
      <trkpt lat="48.00809" lon="6.9766">
        <ele>1240.24</ele>
        <time>2022-06-15T14:55:12Z</time>
      </trkpt>
      <trkpt lat="48.00813" lon="6.97653">
        <ele>1239.28</ele>
        <time>2022-06-15T14:55:20Z</time>
      </trkpt>
      <trkpt lat="48.00822" lon="6.97637">
        <ele>1240.24</ele>
        <time>2022-06-15T14:55:36Z</time>
      </trkpt>
      <trkpt lat="48.00835" lon="6.97625">
        <ele>1240.24</ele>
        <time>2022-06-15T14:55:51Z</time>
      </trkpt>
      <trkpt lat="48.00841" lon="6.97618">
        <ele>1240.72</ele>
        <time>2022-06-15T14:55:57Z</time>
      </trkpt>
      <trkpt lat="48.00856" lon="6.97604">
        <ele>1242.16</ele>
        <time>2022-06-15T14:56:11Z</time>
      </trkpt>
      <trkpt lat="48.0086" lon="6.976">
        <ele>1243.12</ele>
        <time>2022-06-15T14:56:15Z</time>
      </trkpt>
      <trkpt lat="48.00861" lon="6.97599">
        <ele>1243.12</ele>
        <time>2022-06-15T14:56:16Z</time>
      </trkpt>
      <trkpt lat="48.00875" lon="6.97588">
        <ele>1244.08</ele>
        <time>2022-06-15T14:56:31Z</time>
      </trkpt>
      <trkpt lat="48.0089" lon="6.97587">
        <ele>1246.01</ele>
        <time>2022-06-15T14:56:45Z</time>
      </trkpt>
      <trkpt lat="48.00891" lon="6.97587">
        <ele>1246.49</ele>
        <time>2022-06-15T14:56:46Z</time>
      </trkpt>
      <trkpt lat="48.00906" lon="6.976">
        <ele>1247.93</ele>
        <time>2022-06-15T14:57:00Z</time>
      </trkpt>
      <trkpt lat="48.0091" lon="6.97604">
        <ele>1248.89</ele>
        <time>2022-06-15T14:57:07Z</time>
      </trkpt>
      <trkpt lat="48.00924" lon="6.97618">
        <ele>1248.41</ele>
        <time>2022-06-15T14:57:21Z</time>
      </trkpt>
      <trkpt lat="48.00926" lon="6.97616">
        <ele>1248.89</ele>
        <time>2022-06-15T14:57:37Z</time>
      </trkpt>
      <trkpt lat="48.00931" lon="6.9763">
        <ele>1249.85</ele>
        <time>2022-06-15T14:57:53Z</time>
      </trkpt>
      <trkpt lat="48.00929" lon="6.97632">
        <ele>1250.33</ele>
        <time>2022-06-15T14:58:17Z</time>
      </trkpt>
      <trkpt lat="48.00932" lon="6.97623">
        <ele>1250.81</ele>
        <time>2022-06-15T14:58:39Z</time>
      </trkpt>
      <trkpt lat="48.00944" lon="6.97633">
        <ele>1249.85</ele>
        <time>2022-06-15T14:58:54Z</time>
      </trkpt>
      <trkpt lat="48.00951" lon="6.97643">
        <ele>1251.29</ele>
        <time>2022-06-15T14:59:05Z</time>
      </trkpt>
      <trkpt lat="48.00959" lon="6.97656">
        <ele>1250.33</ele>
        <time>2022-06-15T14:59:22Z</time>
      </trkpt>
      <trkpt lat="48.00956" lon="6.97666">
        <ele>1251.29</ele>
        <time>2022-06-15T14:59:48Z</time>
      </trkpt>
      <trkpt lat="48.00955" lon="6.97669">
        <ele>1251.77</ele>
        <time>2022-06-15T15:00:15Z</time>
      </trkpt>
      <trkpt lat="48.00956" lon="6.97669">
        <ele>1251.77</ele>
        <time>2022-06-15T15:00:39Z</time>
      </trkpt>
      <trkpt lat="48.00963" lon="6.9768">
        <ele>1252.74</ele>
        <time>2022-06-15T15:00:50Z</time>
      </trkpt>
      <trkpt lat="48.00965" lon="6.97685">
        <ele>1252.25</ele>
        <time>2022-06-15T15:00:54Z</time>
      </trkpt>
      <trkpt lat="48.00973" lon="6.97707">
        <ele>1251.77</ele>
        <time>2022-06-15T15:01:11Z</time>
      </trkpt>
      <trkpt lat="48.0098" lon="6.97724">
        <ele>1251.29</ele>
        <time>2022-06-15T15:01:25Z</time>
      </trkpt>
      <trkpt lat="48.00986" lon="6.97734">
        <ele>1252.25</ele>
        <time>2022-06-15T15:01:35Z</time>
      </trkpt>
      <trkpt lat="48.00991" lon="6.97749">
        <ele>1252.25</ele>
        <time>2022-06-15T15:01:44Z</time>
      </trkpt>
      <trkpt lat="48.01001" lon="6.9778">
        <ele>1252.74</ele>
        <time>2022-06-15T15:02:02Z</time>
      </trkpt>
      <trkpt lat="48.01007" lon="6.97796">
        <ele>1253.7</ele>
        <time>2022-06-15T15:02:11Z</time>
      </trkpt>
      <trkpt lat="48.01008" lon="6.97799">
        <ele>1252.74</ele>
        <time>2022-06-15T15:02:13Z</time>
      </trkpt>
      <trkpt lat="48.01012" lon="6.9781">
        <ele>1253.22</ele>
        <time>2022-06-15T15:02:20Z</time>
      </trkpt>
      <trkpt lat="48.01019" lon="6.97826">
        <ele>1253.22</ele>
        <time>2022-06-15T15:02:30Z</time>
      </trkpt>
      <trkpt lat="48.01026" lon="6.97851">
        <ele>1252.74</ele>
        <time>2022-06-15T15:02:46Z</time>
      </trkpt>
      <trkpt lat="48.01029" lon="6.97859">
        <ele>1255.14</ele>
        <time>2022-06-15T15:02:52Z</time>
      </trkpt>
      <trkpt lat="48.01035" lon="6.97876">
        <ele>1255.14</ele>
        <time>2022-06-15T15:03:06Z</time>
      </trkpt>
      <trkpt lat="48.01038" lon="6.97888">
        <ele>1256.58</ele>
        <time>2022-06-15T15:03:14Z</time>
      </trkpt>
      <trkpt lat="48.01038" lon="6.97893">
        <ele>1258.02</ele>
        <time>2022-06-15T15:03:17Z</time>
      </trkpt>
      <trkpt lat="48.01042" lon="6.97903">
        <ele>1255.14</ele>
        <time>2022-06-15T15:03:29Z</time>
      </trkpt>
      <trkpt lat="48.01042" lon="6.97904">
        <ele>1255.14</ele>
        <time>2022-06-15T15:03:30Z</time>
      </trkpt>
      <trkpt lat="48.01044" lon="6.97922">
        <ele>1255.62</ele>
        <time>2022-06-15T15:03:51Z</time>
      </trkpt>
      <trkpt lat="48.01047" lon="6.97936">
        <ele>1255.14</ele>
        <time>2022-06-15T15:04:04Z</time>
      </trkpt>
      <trkpt lat="48.01054" lon="6.97947">
        <ele>1256.58</ele>
        <time>2022-06-15T15:04:18Z</time>
      </trkpt>
      <trkpt lat="48.01068" lon="6.97958">
        <ele>1256.1</ele>
        <time>2022-06-15T15:04:33Z</time>
      </trkpt>
      <trkpt lat="48.01078" lon="6.97972">
        <ele>1257.06</ele>
        <time>2022-06-15T15:04:45Z</time>
      </trkpt>
      <trkpt lat="48.01082" lon="6.97975">
        <ele>1255.62</ele>
        <time>2022-06-15T15:04:49Z</time>
      </trkpt>
      <trkpt lat="48.01088" lon="6.97986">
        <ele>1254.66</ele>
        <time>2022-06-15T15:04:57Z</time>
      </trkpt>
      <trkpt lat="48.01091" lon="6.97987">
        <ele>1255.14</ele>
        <time>2022-06-15T15:04:59Z</time>
      </trkpt>
      <trkpt lat="48.01108" lon="6.98014">
        <ele>1253.7</ele>
        <time>2022-06-15T15:05:17Z</time>
      </trkpt>
      <trkpt lat="48.01111" lon="6.98023">
        <ele>1254.66</ele>
        <time>2022-06-15T15:05:23Z</time>
      </trkpt>
      <trkpt lat="48.01114" lon="6.9803">
        <ele>1253.7</ele>
        <time>2022-06-15T15:05:28Z</time>
      </trkpt>
      <trkpt lat="48.01115" lon="6.98031">
        <ele>1254.18</ele>
        <time>2022-06-15T15:05:29Z</time>
      </trkpt>
      <trkpt lat="48.0112" lon="6.98047">
        <ele>1251.77</ele>
        <time>2022-06-15T15:05:42Z</time>
      </trkpt>
      <trkpt lat="48.01127" lon="6.98059">
        <ele>1252.74</ele>
        <time>2022-06-15T15:05:53Z</time>
      </trkpt>
      <trkpt lat="48.01132" lon="6.98072">
        <ele>1251.77</ele>
        <time>2022-06-15T15:06:02Z</time>
      </trkpt>
      <trkpt lat="48.01141" lon="6.98088">
        <ele>1249.37</ele>
        <time>2022-06-15T15:06:14Z</time>
      </trkpt>
      <trkpt lat="48.01144" lon="6.98097">
        <ele>1248.89</ele>
        <time>2022-06-15T15:06:19Z</time>
      </trkpt>
      <trkpt lat="48.0115" lon="6.98114">
        <ele>1248.41</ele>
        <time>2022-06-15T15:06:29Z</time>
      </trkpt>
      <trkpt lat="48.0116" lon="6.98135">
        <ele>1245.53</ele>
        <time>2022-06-15T15:06:44Z</time>
      </trkpt>
      <trkpt lat="48.0117" lon="6.98152">
        <ele>1245.04</ele>
        <time>2022-06-15T15:06:59Z</time>
      </trkpt>
      <trkpt lat="48.01171" lon="6.98155">
        <ele>1245.04</ele>
        <time>2022-06-15T15:07:01Z</time>
      </trkpt>
      <trkpt lat="48.01178" lon="6.9817">
        <ele>1243.6</ele>
        <time>2022-06-15T15:07:10Z</time>
      </trkpt>
      <trkpt lat="48.01185" lon="6.9818">
        <ele>1244.08</ele>
        <time>2022-06-15T15:07:18Z</time>
      </trkpt>
      <trkpt lat="48.01198" lon="6.98195">
        <ele>1240.72</ele>
        <time>2022-06-15T15:07:34Z</time>
      </trkpt>
      <trkpt lat="48.01202" lon="6.98205">
        <ele>1240.72</ele>
        <time>2022-06-15T15:07:41Z</time>
      </trkpt>
      <trkpt lat="48.01205" lon="6.98213">
        <ele>1240.72</ele>
        <time>2022-06-15T15:07:47Z</time>
      </trkpt>
      <trkpt lat="48.0121" lon="6.98228">
        <ele>1239.28</ele>
        <time>2022-06-15T15:07:56Z</time>
      </trkpt>
      <trkpt lat="48.01225" lon="6.9826">
        <ele>1237.35</ele>
        <time>2022-06-15T15:08:15Z</time>
      </trkpt>
      <trkpt lat="48.01234" lon="6.98285">
        <ele>1236.87</ele>
        <time>2022-06-15T15:08:31Z</time>
      </trkpt>
      <trkpt lat="48.01236" lon="6.98289">
        <ele>1236.87</ele>
        <time>2022-06-15T15:08:34Z</time>
      </trkpt>
      <trkpt lat="48.01238" lon="6.98295">
        <ele>1236.87</ele>
        <time>2022-06-15T15:08:37Z</time>
      </trkpt>
      <trkpt lat="48.01249" lon="6.98318">
        <ele>1234.95</ele>
        <time>2022-06-15T15:08:52Z</time>
      </trkpt>
      <trkpt lat="48.01263" lon="6.98336">
        <ele>1233.99</ele>
        <time>2022-06-15T15:09:07Z</time>
      </trkpt>
      <trkpt lat="48.01271" lon="6.98345">
        <ele>1232.07</ele>
        <time>2022-06-15T15:09:17Z</time>
      </trkpt>
      <trkpt lat="48.01276" lon="6.98353">
        <ele>1233.51</ele>
        <time>2022-06-15T15:09:22Z</time>
      </trkpt>
      <trkpt lat="48.01277" lon="6.98354">
        <ele>1231.59</ele>
        <time>2022-06-15T15:09:23Z</time>
      </trkpt>
      <trkpt lat="48.01285" lon="6.98363">
        <ele>1229.66</ele>
        <time>2022-06-15T15:09:33Z</time>
      </trkpt>
      <trkpt lat="48.01299" lon="6.98377">
        <ele>1229.66</ele>
        <time>2022-06-15T15:09:46Z</time>
      </trkpt>
      <trkpt lat="48.01303" lon="6.98384">
        <ele>1230.14</ele>
        <time>2022-06-15T15:09:51Z</time>
      </trkpt>
      <trkpt lat="48.01304" lon="6.98386">
        <ele>1227.74</ele>
        <time>2022-06-15T15:09:53Z</time>
      </trkpt>
      <trkpt lat="48.01307" lon="6.98388">
        <ele>1228.7</ele>
        <time>2022-06-15T15:09:56Z</time>
      </trkpt>
      <trkpt lat="48.0132" lon="6.984">
        <ele>1226.3</ele>
        <time>2022-06-15T15:10:11Z</time>
      </trkpt>
      <trkpt lat="48.01322" lon="6.98401">
        <ele>1226.3</ele>
        <time>2022-06-15T15:10:13Z</time>
      </trkpt>
      <trkpt lat="48.01333" lon="6.98417">
        <ele>1225.82</ele>
        <time>2022-06-15T15:10:26Z</time>
      </trkpt>
      <trkpt lat="48.01347" lon="6.98433">
        <ele>1224.38</ele>
        <time>2022-06-15T15:10:41Z</time>
      </trkpt>
      <trkpt lat="48.01359" lon="6.98451">
        <ele>1222.93</ele>
        <time>2022-06-15T15:10:57Z</time>
      </trkpt>
      <trkpt lat="48.01366" lon="6.98459">
        <ele>1221.97</ele>
        <time>2022-06-15T15:11:05Z</time>
      </trkpt>
      <trkpt lat="48.01367" lon="6.98461">
        <ele>1221.97</ele>
        <time>2022-06-15T15:11:07Z</time>
      </trkpt>
      <trkpt lat="48.01383" lon="6.98478">
        <ele>1220.53</ele>
        <time>2022-06-15T15:11:25Z</time>
      </trkpt>
      <trkpt lat="48.01393" lon="6.98485">
        <ele>1218.61</ele>
        <time>2022-06-15T15:11:38Z</time>
      </trkpt>
      <trkpt lat="48.01406" lon="6.98497">
        <ele>1217.17</ele>
        <time>2022-06-15T15:11:54Z</time>
      </trkpt>
      <trkpt lat="48.0142" lon="6.98506">
        <ele>1216.21</ele>
        <time>2022-06-15T15:12:08Z</time>
      </trkpt>
      <trkpt lat="48.01421" lon="6.98506">
        <ele>1215.72</ele>
        <time>2022-06-15T15:12:09Z</time>
      </trkpt>
      <trkpt lat="48.01427" lon="6.98507">
        <ele>1215.72</ele>
        <time>2022-06-15T15:12:18Z</time>
      </trkpt>
      <trkpt lat="48.01429" lon="6.9851">
        <ele>1214.28</ele>
        <time>2022-06-15T15:12:20Z</time>
      </trkpt>
      <trkpt lat="48.01444" lon="6.9853">
        <ele>1214.76</ele>
        <time>2022-06-15T15:12:36Z</time>
      </trkpt>
      <trkpt lat="48.01462" lon="6.98545">
        <ele>1213.32</ele>
        <time>2022-06-15T15:12:53Z</time>
      </trkpt>
      <trkpt lat="48.01484" lon="6.98557">
        <ele>1213.32</ele>
        <time>2022-06-15T15:13:12Z</time>
      </trkpt>
      <trkpt lat="48.01487" lon="6.98557">
        <ele>1212.84</ele>
        <time>2022-06-15T15:13:36Z</time>
      </trkpt>
      <trkpt lat="48.01486" lon="6.98557">
        <ele>1213.32</ele>
        <time>2022-06-15T15:14:06Z</time>
      </trkpt>
      <trkpt lat="48.01492" lon="6.98557">
        <ele>1213.32</ele>
        <time>2022-06-15T15:14:40Z</time>
      </trkpt>
      <trkpt lat="48.01497" lon="6.98553">
        <ele>1213.32</ele>
        <time>2022-06-15T15:14:45Z</time>
      </trkpt>
      <trkpt lat="48.0152" lon="6.98559">
        <ele>1213.32</ele>
        <time>2022-06-15T15:15:04Z</time>
      </trkpt>
      <trkpt lat="48.01541" lon="6.98569">
        <ele>1213.8</ele>
        <time>2022-06-15T15:15:22Z</time>
      </trkpt>
      <trkpt lat="48.01561" lon="6.98578">
        <ele>1216.69</ele>
        <time>2022-06-15T15:15:39Z</time>
      </trkpt>
      <trkpt lat="48.01568" lon="6.98582">
        <ele>1218.13</ele>
        <time>2022-06-15T15:15:47Z</time>
      </trkpt>
      <trkpt lat="48.01578" lon="6.98592">
        <ele>1220.05</ele>
        <time>2022-06-15T15:16:02Z</time>
      </trkpt>
      <trkpt lat="48.01581" lon="6.98594">
        <ele>1219.57</ele>
        <time>2022-06-15T15:16:07Z</time>
      </trkpt>
      <trkpt lat="48.01591" lon="6.98608">
        <ele>1221.49</ele>
        <time>2022-06-15T15:16:22Z</time>
      </trkpt>
      <trkpt lat="48.016" lon="6.9862">
        <ele>1223.42</ele>
        <time>2022-06-15T15:16:37Z</time>
      </trkpt>
      <trkpt lat="48.01606" lon="6.98628">
        <ele>1223.42</ele>
        <time>2022-06-15T15:16:49Z</time>
      </trkpt>
      <trkpt lat="48.01613" lon="6.98641">
        <ele>1224.86</ele>
        <time>2022-06-15T15:17:02Z</time>
      </trkpt>
      <trkpt lat="48.01615" lon="6.9865">
        <ele>1224.86</ele>
        <time>2022-06-15T15:17:10Z</time>
      </trkpt>
      <trkpt lat="48.01616" lon="6.98653">
        <ele>1225.82</ele>
        <time>2022-06-15T15:17:12Z</time>
      </trkpt>
      <trkpt lat="48.01617" lon="6.98656">
        <ele>1226.3</ele>
        <time>2022-06-15T15:17:15Z</time>
      </trkpt>
      <trkpt lat="48.01625" lon="6.98672">
        <ele>1228.7</ele>
        <time>2022-06-15T15:17:29Z</time>
      </trkpt>
      <trkpt lat="48.01629" lon="6.98681">
        <ele>1226.3</ele>
        <time>2022-06-15T15:17:37Z</time>
      </trkpt>
      <trkpt lat="48.01644" lon="6.98703">
        <ele>1228.22</ele>
        <time>2022-06-15T15:17:56Z</time>
      </trkpt>
      <trkpt lat="48.01653" lon="6.98718">
        <ele>1228.7</ele>
        <time>2022-06-15T15:18:11Z</time>
      </trkpt>
      <trkpt lat="48.01661" lon="6.98736">
        <ele>1230.62</ele>
        <time>2022-06-15T15:18:25Z</time>
      </trkpt>
      <trkpt lat="48.01662" lon="6.98737">
        <ele>1230.14</ele>
        <time>2022-06-15T15:18:26Z</time>
      </trkpt>
      <trkpt lat="48.01664" lon="6.98741">
        <ele>1230.62</ele>
        <time>2022-06-15T15:18:30Z</time>
      </trkpt>
      <trkpt lat="48.01674" lon="6.98758">
        <ele>1232.07</ele>
        <time>2022-06-15T15:18:45Z</time>
      </trkpt>
      <trkpt lat="48.01679" lon="6.98765">
        <ele>1233.03</ele>
        <time>2022-06-15T15:18:53Z</time>
      </trkpt>
      <trkpt lat="48.01691" lon="6.98779">
        <ele>1234.47</ele>
        <time>2022-06-15T15:19:10Z</time>
      </trkpt>
      <trkpt lat="48.0169" lon="6.9878">
        <ele>1233.03</ele>
        <time>2022-06-15T15:19:26Z</time>
      </trkpt>
      <trkpt lat="48.01693" lon="6.98782">
        <ele>1234.47</ele>
        <time>2022-06-15T15:19:47Z</time>
      </trkpt>
      <trkpt lat="48.01702" lon="6.98795">
        <ele>1234.95</ele>
        <time>2022-06-15T15:20:00Z</time>
      </trkpt>
      <trkpt lat="48.01712" lon="6.98813">
        <ele>1236.87</ele>
        <time>2022-06-15T15:20:15Z</time>
      </trkpt>
      <trkpt lat="48.01723" lon="6.98826">
        <ele>1236.87</ele>
        <time>2022-06-15T15:20:28Z</time>
      </trkpt>
      <trkpt lat="48.01724" lon="6.98826">
        <ele>1237.35</ele>
        <time>2022-06-15T15:20:29Z</time>
      </trkpt>
      <trkpt lat="48.01734" lon="6.98836">
        <ele>1239.28</ele>
        <time>2022-06-15T15:20:43Z</time>
      </trkpt>
      <trkpt lat="48.01745" lon="6.98846">
        <ele>1240.24</ele>
        <time>2022-06-15T15:20:58Z</time>
      </trkpt>
      <trkpt lat="48.01752" lon="6.98853">
        <ele>1242.16</ele>
        <time>2022-06-15T15:21:11Z</time>
      </trkpt>
      <trkpt lat="48.01761" lon="6.98861">
        <ele>1243.6</ele>
        <time>2022-06-15T15:21:24Z</time>
      </trkpt>
      <trkpt lat="48.0177" lon="6.98867">
        <ele>1245.53</ele>
        <time>2022-06-15T15:21:38Z</time>
      </trkpt>
      <trkpt lat="48.01777" lon="6.98876">
        <ele>1246.49</ele>
        <time>2022-06-15T15:21:52Z</time>
      </trkpt>
      <trkpt lat="48.01778" lon="6.98876">
        <ele>1247.45</ele>
        <time>2022-06-15T15:21:54Z</time>
      </trkpt>
      <trkpt lat="48.01787" lon="6.98885">
        <ele>1248.41</ele>
        <time>2022-06-15T15:22:08Z</time>
      </trkpt>
      <trkpt lat="48.01792" lon="6.98891">
        <ele>1249.37</ele>
        <time>2022-06-15T15:22:17Z</time>
      </trkpt>
      <trkpt lat="48.01795" lon="6.98893">
        <ele>1249.37</ele>
        <time>2022-06-15T15:22:22Z</time>
      </trkpt>
      <trkpt lat="48.01805" lon="6.98901">
        <ele>1250.33</ele>
        <time>2022-06-15T15:22:36Z</time>
      </trkpt>
      <trkpt lat="48.01806" lon="6.98903">
        <ele>1251.77</ele>
        <time>2022-06-15T15:22:39Z</time>
      </trkpt>
      <trkpt lat="48.01814" lon="6.9891">
        <ele>1253.22</ele>
        <time>2022-06-15T15:22:52Z</time>
      </trkpt>
      <trkpt lat="48.01822" lon="6.98918">
        <ele>1255.62</ele>
        <time>2022-06-15T15:23:05Z</time>
      </trkpt>
      <trkpt lat="48.01822" lon="6.98919">
        <ele>1255.14</ele>
        <time>2022-06-15T15:23:06Z</time>
      </trkpt>
      <trkpt lat="48.01831" lon="6.98928">
        <ele>1257.06</ele>
        <time>2022-06-15T15:23:22Z</time>
      </trkpt>
      <trkpt lat="48.01839" lon="6.98936">
        <ele>1258.02</ele>
        <time>2022-06-15T15:23:35Z</time>
      </trkpt>
      <trkpt lat="48.01847" lon="6.98943">
        <ele>1258.98</ele>
        <time>2022-06-15T15:23:48Z</time>
      </trkpt>
      <trkpt lat="48.01855" lon="6.98953">
        <ele>1260.91</ele>
        <time>2022-06-15T15:24:02Z</time>
      </trkpt>
      <trkpt lat="48.01858" lon="6.98955">
        <ele>1261.87</ele>
        <time>2022-06-15T15:24:07Z</time>
      </trkpt>
      <trkpt lat="48.01862" lon="6.9896">
        <ele>1261.87</ele>
        <time>2022-06-15T15:24:14Z</time>
      </trkpt>
      <trkpt lat="48.01866" lon="6.98962">
        <ele>1262.83</ele>
        <time>2022-06-15T15:24:19Z</time>
      </trkpt>
      <trkpt lat="48.01874" lon="6.98965">
        <ele>1264.27</ele>
        <time>2022-06-15T15:24:29Z</time>
      </trkpt>
      <trkpt lat="48.01886" lon="6.98973">
        <ele>1265.23</ele>
        <time>2022-06-15T15:24:44Z</time>
      </trkpt>
      <trkpt lat="48.01897" lon="6.98977">
        <ele>1267.16</ele>
        <time>2022-06-15T15:24:58Z</time>
      </trkpt>
      <trkpt lat="48.01909" lon="6.98985">
        <ele>1267.64</ele>
        <time>2022-06-15T15:25:12Z</time>
      </trkpt>
      <trkpt lat="48.01914" lon="6.9899">
        <ele>1268.12</ele>
        <time>2022-06-15T15:25:20Z</time>
      </trkpt>
      <trkpt lat="48.01916" lon="6.98994">
        <ele>1268.12</ele>
        <time>2022-06-15T15:25:24Z</time>
      </trkpt>
      <trkpt lat="48.01924" lon="6.99002">
        <ele>1269.56</ele>
        <time>2022-06-15T15:25:38Z</time>
      </trkpt>
      <trkpt lat="48.01929" lon="6.9901">
        <ele>1272.92</ele>
        <time>2022-06-15T15:25:51Z</time>
      </trkpt>
      <trkpt lat="48.0193" lon="6.99012">
        <ele>1273.4</ele>
        <time>2022-06-15T15:25:53Z</time>
      </trkpt>
      <trkpt lat="48.01931" lon="6.99013">
        <ele>1273.4</ele>
        <time>2022-06-15T15:26:05Z</time>
      </trkpt>
      <trkpt lat="48.01934" lon="6.99013">
        <ele>1274.36</ele>
        <time>2022-06-15T15:26:22Z</time>
      </trkpt>
      <trkpt lat="48.01939" lon="6.99017">
        <ele>1276.29</ele>
        <time>2022-06-15T15:26:32Z</time>
      </trkpt>
      <trkpt lat="48.01945" lon="6.99026">
        <ele>1277.73</ele>
        <time>2022-06-15T15:26:46Z</time>
      </trkpt>
      <trkpt lat="48.01951" lon="6.99034">
        <ele>1280.13</ele>
        <time>2022-06-15T15:27:00Z</time>
      </trkpt>
      <trkpt lat="48.01958" lon="6.99041">
        <ele>1281.57</ele>
        <time>2022-06-15T15:27:14Z</time>
      </trkpt>
      <trkpt lat="48.01962" lon="6.99047">
        <ele>1283.02</ele>
        <time>2022-06-15T15:27:26Z</time>
      </trkpt>
      <trkpt lat="48.01965" lon="6.99047">
        <ele>1282.54</ele>
        <time>2022-06-15T15:27:44Z</time>
      </trkpt>
      <trkpt lat="48.01965" lon="6.99048">
        <ele>1283.5</ele>
        <time>2022-06-15T15:28:09Z</time>
      </trkpt>
      <trkpt lat="48.01968" lon="6.99062">
        <ele>1285.9</ele>
        <time>2022-06-15T15:28:26Z</time>
      </trkpt>
      <trkpt lat="48.0197" lon="6.99072">
        <ele>1286.86</ele>
        <time>2022-06-15T15:28:42Z</time>
      </trkpt>
      <trkpt lat="48.01974" lon="6.99083">
        <ele>1288.78</ele>
        <time>2022-06-15T15:28:54Z</time>
      </trkpt>
      <trkpt lat="48.01977" lon="6.99094">
        <ele>1290.23</ele>
        <time>2022-06-15T15:29:06Z</time>
      </trkpt>
      <trkpt lat="48.0198" lon="6.99106">
        <ele>1290.71</ele>
        <time>2022-06-15T15:29:20Z</time>
      </trkpt>
      <trkpt lat="48.01981" lon="6.99113">
        <ele>1292.15</ele>
        <time>2022-06-15T15:29:33Z</time>
      </trkpt>
      <trkpt lat="48.01985" lon="6.99128">
        <ele>1293.11</ele>
        <time>2022-06-15T15:29:48Z</time>
      </trkpt>
      <trkpt lat="48.01988" lon="6.99146">
        <ele>1293.59</ele>
        <time>2022-06-15T15:30:02Z</time>
      </trkpt>
      <trkpt lat="48.01994" lon="6.99167">
        <ele>1295.03</ele>
        <time>2022-06-15T15:30:17Z</time>
      </trkpt>
      <trkpt lat="48.01995" lon="6.99168">
        <ele>1293.59</ele>
        <time>2022-06-15T15:30:18Z</time>
      </trkpt>
      <trkpt lat="48.02003" lon="6.99187">
        <ele>1294.55</ele>
        <time>2022-06-15T15:30:33Z</time>
      </trkpt>
      <trkpt lat="48.02013" lon="6.99213">
        <ele>1293.59</ele>
        <time>2022-06-15T15:30:50Z</time>
      </trkpt>
      <trkpt lat="48.02023" lon="6.99236">
        <ele>1293.59</ele>
        <time>2022-06-15T15:31:08Z</time>
      </trkpt>
      <trkpt lat="48.02027" lon="6.99244">
        <ele>1294.55</ele>
        <time>2022-06-15T15:31:15Z</time>
      </trkpt>
      <trkpt lat="48.02039" lon="6.9926">
        <ele>1294.55</ele>
        <time>2022-06-15T15:31:27Z</time>
      </trkpt>
      <trkpt lat="48.02046" lon="6.99284">
        <ele>1294.55</ele>
        <time>2022-06-15T15:31:42Z</time>
      </trkpt>
      <trkpt lat="48.02052" lon="6.99314">
        <ele>1295.51</ele>
        <time>2022-06-15T15:31:59Z</time>
      </trkpt>
      <trkpt lat="48.02067" lon="6.99327">
        <ele>1295.51</ele>
        <time>2022-06-15T15:32:13Z</time>
      </trkpt>
      <trkpt lat="48.02075" lon="6.99337">
        <ele>1295.99</ele>
        <time>2022-06-15T15:32:26Z</time>
      </trkpt>
      <trkpt lat="48.02093" lon="6.99351">
        <ele>1297.44</ele>
        <time>2022-06-15T15:32:44Z</time>
      </trkpt>
      <trkpt lat="48.02107" lon="6.99365">
        <ele>1297.92</ele>
        <time>2022-06-15T15:32:59Z</time>
      </trkpt>
      <trkpt lat="48.02121" lon="6.99378">
        <ele>1299.36</ele>
        <time>2022-06-15T15:33:14Z</time>
      </trkpt>
      <trkpt lat="48.0214" lon="6.99393">
        <ele>1301.76</ele>
        <time>2022-06-15T15:33:30Z</time>
      </trkpt>
      <trkpt lat="48.02149" lon="6.99406">
        <ele>1302.24</ele>
        <time>2022-06-15T15:33:44Z</time>
      </trkpt>
      <trkpt lat="48.02159" lon="6.9942">
        <ele>1304.17</ele>
        <time>2022-06-15T15:33:58Z</time>
      </trkpt>
      <trkpt lat="48.02165" lon="6.99428">
        <ele>1304.65</ele>
        <time>2022-06-15T15:34:05Z</time>
      </trkpt>
      <trkpt lat="48.02167" lon="6.99429">
        <ele>1303.69</ele>
        <time>2022-06-15T15:34:07Z</time>
      </trkpt>
      <trkpt lat="48.02185" lon="6.99443">
        <ele>1305.13</ele>
        <time>2022-06-15T15:34:24Z</time>
      </trkpt>
      <trkpt lat="48.02201" lon="6.99457">
        <ele>1305.61</ele>
        <time>2022-06-15T15:34:40Z</time>
      </trkpt>
      <trkpt lat="48.02214" lon="6.99467">
        <ele>1307.05</ele>
        <time>2022-06-15T15:34:53Z</time>
      </trkpt>
      <trkpt lat="48.02232" lon="6.99486">
        <ele>1307.53</ele>
        <time>2022-06-15T15:35:09Z</time>
      </trkpt>
      <trkpt lat="48.02248" lon="6.99506">
        <ele>1308.97</ele>
        <time>2022-06-15T15:35:26Z</time>
      </trkpt>
      <trkpt lat="48.02268" lon="6.99528">
        <ele>1310.41</ele>
        <time>2022-06-15T15:35:44Z</time>
      </trkpt>
      <trkpt lat="48.02285" lon="6.99551">
        <ele>1310.41</ele>
        <time>2022-06-15T15:36:02Z</time>
      </trkpt>
      <trkpt lat="48.02302" lon="6.99575">
        <ele>1310.9</ele>
        <time>2022-06-15T15:36:20Z</time>
      </trkpt>
      <trkpt lat="48.02317" lon="6.99601">
        <ele>1311.38</ele>
        <time>2022-06-15T15:36:38Z</time>
      </trkpt>
      <trkpt lat="48.02333" lon="6.99629">
        <ele>1312.34</ele>
        <time>2022-06-15T15:36:58Z</time>
      </trkpt>
      <trkpt lat="48.02338" lon="6.99637">
        <ele>1312.82</ele>
        <time>2022-06-15T15:37:14Z</time>
      </trkpt>
      <trkpt lat="48.02345" lon="6.9965">
        <ele>1313.3</ele>
        <time>2022-06-15T15:37:30Z</time>
      </trkpt>
      <trkpt lat="48.02344" lon="6.9965">
        <ele>1312.82</ele>
        <time>2022-06-15T15:37:49Z</time>
      </trkpt>
      <trkpt lat="48.02344" lon="6.99648">
        <ele>1312.34</ele>
        <time>2022-06-15T15:38:14Z</time>
      </trkpt>
      <trkpt lat="48.02348" lon="6.99652">
        <ele>1313.3</ele>
        <time>2022-06-15T15:38:31Z</time>
      </trkpt>
      <trkpt lat="48.02349" lon="6.99655">
        <ele>1312.82</ele>
        <time>2022-06-15T15:38:56Z</time>
      </trkpt>
      <trkpt lat="48.0235" lon="6.99656">
        <ele>1312.34</ele>
        <time>2022-06-15T15:39:16Z</time>
      </trkpt>
      <trkpt lat="48.02349" lon="6.99655">
        <ele>1312.82</ele>
        <time>2022-06-15T15:39:42Z</time>
      </trkpt>
      <trkpt lat="48.02348" lon="6.99657">
        <ele>1312.34</ele>
        <time>2022-06-15T15:40:12Z</time>
      </trkpt>
      <trkpt lat="48.02348" lon="6.99655">
        <ele>1312.34</ele>
        <time>2022-06-15T15:40:44Z</time>
      </trkpt>
      <trkpt lat="48.02348" lon="6.99656">
        <ele>1311.86</ele>
        <time>2022-06-15T15:41:16Z</time>
      </trkpt>
      <trkpt lat="48.02348" lon="6.99654">
        <ele>1312.34</ele>
        <time>2022-06-15T15:41:43Z</time>
      </trkpt>
      <trkpt lat="48.02355" lon="6.99671">
        <ele>1313.3</ele>
        <time>2022-06-15T15:41:58Z</time>
      </trkpt>
      <trkpt lat="48.02365" lon="6.99691">
        <ele>1313.78</ele>
        <time>2022-06-15T15:42:15Z</time>
      </trkpt>
      <trkpt lat="48.02377" lon="6.99718">
        <ele>1313.78</ele>
        <time>2022-06-15T15:42:34Z</time>
      </trkpt>
      <trkpt lat="48.02382" lon="6.99738">
        <ele>1314.26</ele>
        <time>2022-06-15T15:42:48Z</time>
      </trkpt>
      <trkpt lat="48.0239" lon="6.99765">
        <ele>1314.26</ele>
        <time>2022-06-15T15:43:06Z</time>
      </trkpt>
      <trkpt lat="48.02394" lon="6.9978">
        <ele>1314.74</ele>
        <time>2022-06-15T15:43:22Z</time>
      </trkpt>
      <trkpt lat="48.02394" lon="6.9978">
        <ele>1314.74</ele>
        <time>2022-06-15T15:43:30Z</time>
      </trkpt>
      <trkpt lat="48.02398" lon="6.99787">
        <ele>1313.78</ele>
        <time>2022-06-15T15:43:36Z</time>
      </trkpt>
      <trkpt lat="48.02401" lon="6.99794">
        <ele>1314.26</ele>
        <time>2022-06-15T15:43:52Z</time>
      </trkpt>
      <trkpt lat="48.02412" lon="6.99813">
        <ele>1313.3</ele>
        <time>2022-06-15T15:44:08Z</time>
      </trkpt>
      <trkpt lat="48.02425" lon="6.99837">
        <ele>1313.3</ele>
        <time>2022-06-15T15:44:26Z</time>
      </trkpt>
      <trkpt lat="48.02439" lon="6.99858">
        <ele>1312.34</ele>
        <time>2022-06-15T15:44:43Z</time>
      </trkpt>
      <trkpt lat="48.02452" lon="6.99882">
        <ele>1311.86</ele>
        <time>2022-06-15T15:45:00Z</time>
      </trkpt>
      <trkpt lat="48.02465" lon="6.99904">
        <ele>1312.34</ele>
        <time>2022-06-15T15:45:17Z</time>
      </trkpt>
      <trkpt lat="48.0247" lon="6.99916">
        <ele>1312.82</ele>
        <time>2022-06-15T15:45:25Z</time>
      </trkpt>
      <trkpt lat="48.02485" lon="6.99936">
        <ele>1313.3</ele>
        <time>2022-06-15T15:45:42Z</time>
      </trkpt>
      <trkpt lat="48.02502" lon="6.99957">
        <ele>1313.78</ele>
        <time>2022-06-15T15:46:00Z</time>
      </trkpt>
      <trkpt lat="48.02521" lon="6.99968">
        <ele>1313.78</ele>
        <time>2022-06-15T15:46:16Z</time>
      </trkpt>
      <trkpt lat="48.02542" lon="6.99984">
        <ele>1313.3</ele>
        <time>2022-06-15T15:46:35Z</time>
      </trkpt>
      <trkpt lat="48.0256" lon="6.99999">
        <ele>1313.3</ele>
        <time>2022-06-15T15:46:52Z</time>
      </trkpt>
      <trkpt lat="48.0258" lon="7.00019">
        <ele>1312.82</ele>
        <time>2022-06-15T15:47:11Z</time>
      </trkpt>
      <trkpt lat="48.026" lon="7.00043">
        <ele>1313.3</ele>
        <time>2022-06-15T15:47:31Z</time>
      </trkpt>
      <trkpt lat="48.02618" lon="7.0007">
        <ele>1313.3</ele>
        <time>2022-06-15T15:47:50Z</time>
      </trkpt>
      <trkpt lat="48.02635" lon="7.00101">
        <ele>1313.3</ele>
        <time>2022-06-15T15:48:11Z</time>
      </trkpt>
      <trkpt lat="48.02647" lon="7.00129">
        <ele>1312.34</ele>
        <time>2022-06-15T15:48:29Z</time>
      </trkpt>
      <trkpt lat="48.02659" lon="7.00166">
        <ele>1312.82</ele>
        <time>2022-06-15T15:48:51Z</time>
      </trkpt>
      <trkpt lat="48.02668" lon="7.00198">
        <ele>1311.86</ele>
        <time>2022-06-15T15:49:10Z</time>
      </trkpt>
      <trkpt lat="48.02676" lon="7.00232">
        <ele>1311.38</ele>
        <time>2022-06-15T15:49:30Z</time>
      </trkpt>
      <trkpt lat="48.02681" lon="7.00262">
        <ele>1311.38</ele>
        <time>2022-06-15T15:49:47Z</time>
      </trkpt>
      <trkpt lat="48.02687" lon="7.00297">
        <ele>1310.9</ele>
        <time>2022-06-15T15:50:08Z</time>
      </trkpt>
      <trkpt lat="48.02693" lon="7.00333">
        <ele>1310.9</ele>
        <time>2022-06-15T15:50:28Z</time>
      </trkpt>
      <trkpt lat="48.02697" lon="7.00366">
        <ele>1309.45</ele>
        <time>2022-06-15T15:50:46Z</time>
      </trkpt>
      <trkpt lat="48.02705" lon="7.00403">
        <ele>1308.97</ele>
        <time>2022-06-15T15:51:07Z</time>
      </trkpt>
      <trkpt lat="48.02715" lon="7.00437">
        <ele>1308.49</ele>
        <time>2022-06-15T15:51:27Z</time>
      </trkpt>
      <trkpt lat="48.02727" lon="7.00473">
        <ele>1306.57</ele>
        <time>2022-06-15T15:51:49Z</time>
      </trkpt>
      <trkpt lat="48.02738" lon="7.00505">
        <ele>1305.13</ele>
        <time>2022-06-15T15:52:08Z</time>
      </trkpt>
      <trkpt lat="48.0275" lon="7.00533">
        <ele>1304.17</ele>
        <time>2022-06-15T15:52:26Z</time>
      </trkpt>
      <trkpt lat="48.02763" lon="7.00562">
        <ele>1303.69</ele>
        <time>2022-06-15T15:52:46Z</time>
      </trkpt>
      <trkpt lat="48.02767" lon="7.00567">
        <ele>1302.72</ele>
        <time>2022-06-15T15:52:50Z</time>
      </trkpt>
      <trkpt lat="48.0278" lon="7.0059">
        <ele>1302.24</ele>
        <time>2022-06-15T15:53:07Z</time>
      </trkpt>
      <trkpt lat="48.02786" lon="7.00602">
        <ele>1300.32</ele>
        <time>2022-06-15T15:53:16Z</time>
      </trkpt>
      <trkpt lat="48.02791" lon="7.00606">
        <ele>1301.76</ele>
        <time>2022-06-15T15:53:21Z</time>
      </trkpt>
      <trkpt lat="48.02798" lon="7.00613">
        <ele>1300.32</ele>
        <time>2022-06-15T15:53:28Z</time>
      </trkpt>
      <trkpt lat="48.02801" lon="7.00615">
        <ele>1299.84</ele>
        <time>2022-06-15T15:53:30Z</time>
      </trkpt>
      <trkpt lat="48.02809" lon="7.00623">
        <ele>1300.32</ele>
        <time>2022-06-15T15:53:37Z</time>
      </trkpt>
      <trkpt lat="48.02825" lon="7.00639">
        <ele>1299.36</ele>
        <time>2022-06-15T15:53:53Z</time>
      </trkpt>
      <trkpt lat="48.02843" lon="7.00655">
        <ele>1298.4</ele>
        <time>2022-06-15T15:54:09Z</time>
      </trkpt>
      <trkpt lat="48.02865" lon="7.00676">
        <ele>1297.44</ele>
        <time>2022-06-15T15:54:29Z</time>
      </trkpt>
      <trkpt lat="48.02885" lon="7.00693">
        <ele>1297.44</ele>
        <time>2022-06-15T15:54:47Z</time>
      </trkpt>
      <trkpt lat="48.02904" lon="7.00712">
        <ele>1296.96</ele>
        <time>2022-06-15T15:55:05Z</time>
      </trkpt>
      <trkpt lat="48.02927" lon="7.00733">
        <ele>1296.96</ele>
        <time>2022-06-15T15:55:26Z</time>
      </trkpt>
      <trkpt lat="48.02932" lon="7.00738">
        <ele>1296.48</ele>
        <time>2022-06-15T15:55:31Z</time>
      </trkpt>
      <trkpt lat="48.02951" lon="7.00754">
        <ele>1297.92</ele>
        <time>2022-06-15T15:55:48Z</time>
      </trkpt>
      <trkpt lat="48.02973" lon="7.00773">
        <ele>1297.92</ele>
        <time>2022-06-15T15:56:09Z</time>
      </trkpt>
      <trkpt lat="48.02993" lon="7.00787">
        <ele>1299.36</ele>
        <time>2022-06-15T15:56:27Z</time>
      </trkpt>
      <trkpt lat="48.03015" lon="7.00796">
        <ele>1298.88</ele>
        <time>2022-06-15T15:56:47Z</time>
      </trkpt>
      <trkpt lat="48.03032" lon="7.00805">
        <ele>1300.32</ele>
        <time>2022-06-15T15:57:02Z</time>
      </trkpt>
      <trkpt lat="48.03048" lon="7.00813">
        <ele>1300.8</ele>
        <time>2022-06-15T15:57:17Z</time>
      </trkpt>
      <trkpt lat="48.03055" lon="7.00816">
        <ele>1300.8</ele>
        <time>2022-06-15T15:57:23Z</time>
      </trkpt>
      <trkpt lat="48.03079" lon="7.00827">
        <ele>1300.8</ele>
        <time>2022-06-15T15:57:43Z</time>
      </trkpt>
      <trkpt lat="48.03102" lon="7.00837">
        <ele>1301.28</ele>
        <time>2022-06-15T15:58:03Z</time>
      </trkpt>
      <trkpt lat="48.03123" lon="7.00846">
        <ele>1301.76</ele>
        <time>2022-06-15T15:58:21Z</time>
      </trkpt>
      <trkpt lat="48.03137" lon="7.00851">
        <ele>1302.72</ele>
        <time>2022-06-15T15:58:34Z</time>
      </trkpt>
      <trkpt lat="48.03152" lon="7.00857">
        <ele>1305.13</ele>
        <time>2022-06-15T15:58:48Z</time>
      </trkpt>
      <trkpt lat="48.03166" lon="7.00865">
        <ele>1307.05</ele>
        <time>2022-06-15T15:59:03Z</time>
      </trkpt>
      <trkpt lat="48.03181" lon="7.0087">
        <ele>1307.53</ele>
        <time>2022-06-15T15:59:18Z</time>
      </trkpt>
      <trkpt lat="48.03182" lon="7.0087">
        <ele>1308.01</ele>
        <time>2022-06-15T15:59:19Z</time>
      </trkpt>
      <trkpt lat="48.03184" lon="7.0087">
        <ele>1308.49</ele>
        <time>2022-06-15T15:59:21Z</time>
      </trkpt>
      <trkpt lat="48.03199" lon="7.00875">
        <ele>1309.93</ele>
        <time>2022-06-15T15:59:36Z</time>
      </trkpt>
      <trkpt lat="48.03199" lon="7.00875">
        <ele>1309.93</ele>
        <time>2022-06-15T15:59:37Z</time>
      </trkpt>
      <trkpt lat="48.03201" lon="7.00876">
        <ele>1309.93</ele>
        <time>2022-06-15T15:59:39Z</time>
      </trkpt>
      <trkpt lat="48.03216" lon="7.00882">
        <ele>1311.86</ele>
        <time>2022-06-15T15:59:54Z</time>
      </trkpt>
      <trkpt lat="48.03227" lon="7.00885">
        <ele>1313.3</ele>
        <time>2022-06-15T16:00:05Z</time>
      </trkpt>
      <trkpt lat="48.03247" lon="7.00893">
        <ele>1314.26</ele>
        <time>2022-06-15T16:00:23Z</time>
      </trkpt>
      <trkpt lat="48.03263" lon="7.00898">
        <ele>1315.7</ele>
        <time>2022-06-15T16:00:39Z</time>
      </trkpt>
      <trkpt lat="48.0328" lon="7.00905">
        <ele>1315.7</ele>
        <time>2022-06-15T16:00:55Z</time>
      </trkpt>
      <trkpt lat="48.03295" lon="7.00915">
        <ele>1316.18</ele>
        <time>2022-06-15T16:01:11Z</time>
      </trkpt>
      <trkpt lat="48.03311" lon="7.00929">
        <ele>1316.18</ele>
        <time>2022-06-15T16:01:27Z</time>
      </trkpt>
      <trkpt lat="48.03327" lon="7.00942">
        <ele>1313.78</ele>
        <time>2022-06-15T16:01:44Z</time>
      </trkpt>
      <trkpt lat="48.03348" lon="7.00957">
        <ele>1310.9</ele>
        <time>2022-06-15T16:02:01Z</time>
      </trkpt>
      <trkpt lat="48.03365" lon="7.00972">
        <ele>1309.45</ele>
        <time>2022-06-15T16:02:17Z</time>
      </trkpt>
      <trkpt lat="48.03384" lon="7.0099">
        <ele>1306.09</ele>
        <time>2022-06-15T16:02:34Z</time>
      </trkpt>
      <trkpt lat="48.0339" lon="7.00995">
        <ele>1305.61</ele>
        <time>2022-06-15T16:02:39Z</time>
      </trkpt>
      <trkpt lat="48.03395" lon="7.00998">
        <ele>1305.13</ele>
        <time>2022-06-15T16:02:44Z</time>
      </trkpt>
      <trkpt lat="48.03406" lon="7.01006">
        <ele>1303.69</ele>
        <time>2022-06-15T16:02:57Z</time>
      </trkpt>
      <trkpt lat="48.03411" lon="7.01015">
        <ele>1302.72</ele>
        <time>2022-06-15T16:03:04Z</time>
      </trkpt>
      <trkpt lat="48.03418" lon="7.01019">
        <ele>1301.28</ele>
        <time>2022-06-15T16:03:18Z</time>
      </trkpt>
      <trkpt lat="48.03418" lon="7.0102">
        <ele>1300.8</ele>
        <time>2022-06-15T16:03:31Z</time>
      </trkpt>
      <trkpt lat="48.03426" lon="7.01025">
        <ele>1298.4</ele>
        <time>2022-06-15T16:03:43Z</time>
      </trkpt>
      <trkpt lat="48.03438" lon="7.01034">
        <ele>1295.03</ele>
        <time>2022-06-15T16:03:56Z</time>
      </trkpt>
      <trkpt lat="48.03445" lon="7.01037">
        <ele>1293.59</ele>
        <time>2022-06-15T16:04:03Z</time>
      </trkpt>
      <trkpt lat="48.03461" lon="7.01046">
        <ele>1291.19</ele>
        <time>2022-06-15T16:04:18Z</time>
      </trkpt>
      <trkpt lat="48.03481" lon="7.01053">
        <ele>1289.27</ele>
        <time>2022-06-15T16:04:36Z</time>
      </trkpt>
      <trkpt lat="48.03487" lon="7.01051">
        <ele>1290.23</ele>
        <time>2022-06-15T16:04:46Z</time>
      </trkpt>
      <trkpt lat="48.03501" lon="7.01034">
        <ele>1287.82</ele>
        <time>2022-06-15T16:05:03Z</time>
      </trkpt>
      <trkpt lat="48.03505" lon="7.01029">
        <ele>1286.38</ele>
        <time>2022-06-15T16:05:08Z</time>
      </trkpt>
      <trkpt lat="48.03519" lon="7.01002">
        <ele>1283.98</ele>
        <time>2022-06-15T16:05:27Z</time>
      </trkpt>
      <trkpt lat="48.03531" lon="7.00981">
        <ele>1281.57</ele>
        <time>2022-06-15T16:05:43Z</time>
      </trkpt>
      <trkpt lat="48.03535" lon="7.00975">
        <ele>1280.61</ele>
        <time>2022-06-15T16:05:48Z</time>
      </trkpt>
      <trkpt lat="48.03541" lon="7.00963">
        <ele>1279.65</ele>
        <time>2022-06-15T16:05:57Z</time>
      </trkpt>
      <trkpt lat="48.03552" lon="7.00941">
        <ele>1276.29</ele>
        <time>2022-06-15T16:06:14Z</time>
      </trkpt>
      <trkpt lat="48.03564" lon="7.00923">
        <ele>1273.88</ele>
        <time>2022-06-15T16:06:30Z</time>
      </trkpt>
      <trkpt lat="48.03576" lon="7.00914">
        <ele>1272.92</ele>
        <time>2022-06-15T16:06:44Z</time>
      </trkpt>
      <trkpt lat="48.03594" lon="7.00894">
        <ele>1270.04</ele>
        <time>2022-06-15T16:07:05Z</time>
      </trkpt>
      <trkpt lat="48.03605" lon="7.00885">
        <ele>1268.12</ele>
        <time>2022-06-15T16:07:18Z</time>
      </trkpt>
      <trkpt lat="48.03602" lon="7.00871">
        <ele>1266.19</ele>
        <time>2022-06-15T16:07:29Z</time>
      </trkpt>
      <trkpt lat="48.03625" lon="7.00862">
        <ele>1265.71</ele>
        <time>2022-06-15T16:07:50Z</time>
      </trkpt>
      <trkpt lat="48.03627" lon="7.00861">
        <ele>1264.75</ele>
        <time>2022-06-15T16:07:54Z</time>
      </trkpt>
      <trkpt lat="48.0363" lon="7.0086">
        <ele>1264.27</ele>
        <time>2022-06-15T16:07:57Z</time>
      </trkpt>
      <trkpt lat="48.03624" lon="7.0085">
        <ele>1262.83</ele>
        <time>2022-06-15T16:08:07Z</time>
      </trkpt>
      <trkpt lat="48.03624" lon="7.00843">
        <ele>1262.35</ele>
        <time>2022-06-15T16:08:11Z</time>
      </trkpt>
      <trkpt lat="48.03625" lon="7.00839">
        <ele>1261.87</ele>
        <time>2022-06-15T16:08:14Z</time>
      </trkpt>
      <trkpt lat="48.03625" lon="7.00836">
        <ele>1261.87</ele>
        <time>2022-06-15T16:08:16Z</time>
      </trkpt>
      <trkpt lat="48.03625" lon="7.00833">
        <ele>1261.39</ele>
        <time>2022-06-15T16:08:18Z</time>
      </trkpt>
      <trkpt lat="48.03632" lon="7.00819">
        <ele>1258.5</ele>
        <time>2022-06-15T16:08:30Z</time>
      </trkpt>
      <trkpt lat="48.03637" lon="7.00811">
        <ele>1257.06</ele>
        <time>2022-06-15T16:08:42Z</time>
      </trkpt>
      <trkpt lat="48.03637" lon="7.00802">
        <ele>1258.02</ele>
        <time>2022-06-15T16:08:54Z</time>
      </trkpt>
      <trkpt lat="48.03634" lon="7.00797">
        <ele>1257.54</ele>
        <time>2022-06-15T16:09:08Z</time>
      </trkpt>
      <trkpt lat="48.03631" lon="7.008">
        <ele>1257.54</ele>
        <time>2022-06-15T16:09:23Z</time>
      </trkpt>
      <trkpt lat="48.03632" lon="7.008">
        <ele>1253.22</ele>
        <time>2022-06-15T16:09:32Z</time>
      </trkpt>
      <trkpt lat="48.03631" lon="7.008">
        <ele>1256.58</ele>
        <time>2022-06-15T16:09:33Z</time>
      </trkpt>
      <trkpt lat="48.03631" lon="7.008">
        <ele>1258.02</ele>
        <time>2022-06-15T16:09:35Z</time>
      </trkpt>
    </trkseg>
  </trk>
</gpx>